<?xml version="1.0" encoding="UTF-8" standalone="no" ?>
<gpx xmlns="http://www.topografix.com/GPX/1/1" xmlns:xsi="http://www.w3.org/2001/XMLSchema-instance" xsi:schemaLocation="http://www.topografix.com/GPX/1/1 http://www.topografix.com/GPX/1/1/gpx.xsd" version="1.1" creator="VisuGPX - https://www.visugpx.com">
  <metadata>
    <name>ER 2026-03-29 Vers (71)</name>
    <desc><![CDATA[Départ de Vers, Source de Clouzeau
Points de passage : La Cure, Roche St-Georges, Charmes, Royer, Cul de la Crâ, Dulphey]]></desc>
  </metadata>
  <wpt lat="46.58282" lon="4.85054">
    <ele>233</ele>
    <name><![CDATA[Point de passage 1]]></name>
  </wpt>
  <wpt lat="46.58295" lon="4.85047">
    <ele>233</ele>
    <name><![CDATA[Point de passage 2]]></name>
  </wpt>
  <trk>
    <name><![CDATA[Vers (71)]]></name>
    <extensions>
      <line xmlns="http://www.topografix.com/GPX/gpx_style/0/2">
        <color>0000FF</color>
        <width>4</width>
      </line>
    </extensions>
    <trkseg>
      <trkpt lat="46.58282" lon="4.85054">
        <ele>233</ele>
        <time>2026-03-29T08:05:27.000Z</time>
      </trkpt>
      <trkpt lat="46.58285" lon="4.85055">
        <ele>233</ele>
        <time>2026-03-29T08:05:30.000Z</time>
      </trkpt>
      <trkpt lat="46.58292" lon="4.85051">
        <ele>233</ele>
        <time>2026-03-29T08:08:02.000Z</time>
      </trkpt>
      <trkpt lat="46.58292" lon="4.85037">
        <ele>233</ele>
        <time>2026-03-29T08:08:21.000Z</time>
      </trkpt>
      <trkpt lat="46.58277" lon="4.85042">
        <ele>233</ele>
        <time>2026-03-29T08:08:30.000Z</time>
      </trkpt>
      <trkpt lat="46.58262" lon="4.85047">
        <ele>233</ele>
        <time>2026-03-29T08:08:34.000Z</time>
      </trkpt>
      <trkpt lat="46.58249" lon="4.85045">
        <ele>233</ele>
        <time>2026-03-29T08:09:09.000Z</time>
      </trkpt>
      <trkpt lat="46.5824" lon="4.85051">
        <ele>233</ele>
        <time>2026-03-29T08:09:15.000Z</time>
      </trkpt>
      <trkpt lat="46.58233" lon="4.85063">
        <ele>233</ele>
        <time>2026-03-29T08:09:21.000Z</time>
      </trkpt>
      <trkpt lat="46.58229" lon="4.85076">
        <ele>234</ele>
        <time>2026-03-29T08:09:26.000Z</time>
      </trkpt>
      <trkpt lat="46.58224" lon="4.85087">
        <ele>234</ele>
        <time>2026-03-29T08:09:32.000Z</time>
      </trkpt>
      <trkpt lat="46.58219" lon="4.85098">
        <ele>235</ele>
        <time>2026-03-29T08:09:38.000Z</time>
      </trkpt>
      <trkpt lat="46.58215" lon="4.85109">
        <ele>235</ele>
        <time>2026-03-29T08:09:44.000Z</time>
      </trkpt>
      <trkpt lat="46.58212" lon="4.85122">
        <ele>234</ele>
        <time>2026-03-29T08:09:49.000Z</time>
      </trkpt>
      <trkpt lat="46.5821" lon="4.85135">
        <ele>236</ele>
        <time>2026-03-29T08:09:55.000Z</time>
      </trkpt>
      <trkpt lat="46.58208" lon="4.85148">
        <ele>236</ele>
        <time>2026-03-29T08:10:02.000Z</time>
      </trkpt>
      <trkpt lat="46.58207" lon="4.85161">
        <ele>237</ele>
        <time>2026-03-29T08:10:08.000Z</time>
      </trkpt>
      <trkpt lat="46.58205" lon="4.85174">
        <ele>237</ele>
        <time>2026-03-29T08:10:15.000Z</time>
      </trkpt>
      <trkpt lat="46.58204" lon="4.85186">
        <ele>238</ele>
        <time>2026-03-29T08:10:21.000Z</time>
      </trkpt>
      <trkpt lat="46.58202" lon="4.85199">
        <ele>239</ele>
        <time>2026-03-29T08:10:28.000Z</time>
      </trkpt>
      <trkpt lat="46.58202" lon="4.85213">
        <ele>240</ele>
        <time>2026-03-29T08:10:37.000Z</time>
      </trkpt>
      <trkpt lat="46.58202" lon="4.85228">
        <ele>241</ele>
        <time>2026-03-29T08:10:46.000Z</time>
      </trkpt>
      <trkpt lat="46.58202" lon="4.85243">
        <ele>242</ele>
        <time>2026-03-29T08:10:57.000Z</time>
      </trkpt>
      <trkpt lat="46.58202" lon="4.85259">
        <ele>242</ele>
        <time>2026-03-29T08:11:07.000Z</time>
      </trkpt>
      <trkpt lat="46.58202" lon="4.85273">
        <ele>241</ele>
        <time>2026-03-29T08:11:16.000Z</time>
      </trkpt>
      <trkpt lat="46.58201" lon="4.85286">
        <ele>242</ele>
        <time>2026-03-29T08:11:26.000Z</time>
      </trkpt>
      <trkpt lat="46.58199" lon="4.85299">
        <ele>246</ele>
        <time>2026-03-29T08:11:35.000Z</time>
      </trkpt>
      <trkpt lat="46.58196" lon="4.85312">
        <ele>249</ele>
        <time>2026-03-29T08:11:46.000Z</time>
      </trkpt>
      <trkpt lat="46.58187" lon="4.85317">
        <ele>249</ele>
        <time>2026-03-29T08:11:57.000Z</time>
      </trkpt>
      <trkpt lat="46.58178" lon="4.85315">
        <ele>250</ele>
        <time>2026-03-29T08:12:09.000Z</time>
      </trkpt>
      <trkpt lat="46.5817" lon="4.85312">
        <ele>252</ele>
        <time>2026-03-29T08:12:19.000Z</time>
      </trkpt>
      <trkpt lat="46.5816" lon="4.85309">
        <ele>252</ele>
        <time>2026-03-29T08:12:28.000Z</time>
      </trkpt>
      <trkpt lat="46.5815" lon="4.85311">
        <ele>253</ele>
        <time>2026-03-29T08:12:40.000Z</time>
      </trkpt>
      <trkpt lat="46.58143" lon="4.85314">
        <ele>253</ele>
        <time>2026-03-29T08:13:17.000Z</time>
      </trkpt>
      <trkpt lat="46.58147" lon="4.85312">
        <ele>253</ele>
        <time>2026-03-29T08:13:52.000Z</time>
      </trkpt>
      <trkpt lat="46.5814" lon="4.85315">
        <ele>253</ele>
        <time>2026-03-29T08:14:30.000Z</time>
      </trkpt>
      <trkpt lat="46.58132" lon="4.8532">
        <ele>253</ele>
        <time>2026-03-29T08:14:37.000Z</time>
      </trkpt>
      <trkpt lat="46.58123" lon="4.85325">
        <ele>253</ele>
        <time>2026-03-29T08:14:45.000Z</time>
      </trkpt>
      <trkpt lat="46.58115" lon="4.85334">
        <ele>253</ele>
        <time>2026-03-29T08:14:55.000Z</time>
      </trkpt>
      <trkpt lat="46.58107" lon="4.85343">
        <ele>253</ele>
        <time>2026-03-29T08:15:06.000Z</time>
      </trkpt>
      <trkpt lat="46.58098" lon="4.85352">
        <ele>253</ele>
        <time>2026-03-29T08:15:12.000Z</time>
      </trkpt>
      <trkpt lat="46.58091" lon="4.85362">
        <ele>252</ele>
        <time>2026-03-29T08:15:18.000Z</time>
      </trkpt>
      <trkpt lat="46.58083" lon="4.8537">
        <ele>252</ele>
        <time>2026-03-29T08:15:25.000Z</time>
      </trkpt>
      <trkpt lat="46.58074" lon="4.85377">
        <ele>252</ele>
        <time>2026-03-29T08:15:33.000Z</time>
      </trkpt>
      <trkpt lat="46.58065" lon="4.85385">
        <ele>252</ele>
        <time>2026-03-29T08:15:42.000Z</time>
      </trkpt>
      <trkpt lat="46.58057" lon="4.85391">
        <ele>252</ele>
        <time>2026-03-29T08:15:48.000Z</time>
      </trkpt>
      <trkpt lat="46.58049" lon="4.85398">
        <ele>251</ele>
        <time>2026-03-29T08:15:54.000Z</time>
      </trkpt>
      <trkpt lat="46.5804" lon="4.85403">
        <ele>251</ele>
        <time>2026-03-29T08:16:02.000Z</time>
      </trkpt>
      <trkpt lat="46.5803" lon="4.85405">
        <ele>250</ele>
        <time>2026-03-29T08:16:10.000Z</time>
      </trkpt>
      <trkpt lat="46.5802" lon="4.85403">
        <ele>250</ele>
        <time>2026-03-29T08:16:18.000Z</time>
      </trkpt>
      <trkpt lat="46.5801" lon="4.85401">
        <ele>250</ele>
        <time>2026-03-29T08:16:26.000Z</time>
      </trkpt>
      <trkpt lat="46.58" lon="4.854">
        <ele>250</ele>
        <time>2026-03-29T08:16:34.000Z</time>
      </trkpt>
      <trkpt lat="46.57989" lon="4.85397">
        <ele>250</ele>
        <time>2026-03-29T08:16:42.000Z</time>
      </trkpt>
      <trkpt lat="46.57979" lon="4.85394">
        <ele>250</ele>
        <time>2026-03-29T08:16:50.000Z</time>
      </trkpt>
      <trkpt lat="46.57969" lon="4.85395">
        <ele>250</ele>
        <time>2026-03-29T08:16:58.000Z</time>
      </trkpt>
      <trkpt lat="46.57961" lon="4.85396">
        <ele>249</ele>
        <time>2026-03-29T08:17:04.000Z</time>
      </trkpt>
      <trkpt lat="46.57952" lon="4.85398">
        <ele>249</ele>
        <time>2026-03-29T08:17:10.000Z</time>
      </trkpt>
      <trkpt lat="46.57941" lon="4.85401">
        <ele>248</ele>
        <time>2026-03-29T08:17:18.000Z</time>
      </trkpt>
      <trkpt lat="46.57931" lon="4.85408">
        <ele>247</ele>
        <time>2026-03-29T08:17:42.000Z</time>
      </trkpt>
      <trkpt lat="46.57921" lon="4.85412">
        <ele>247</ele>
        <time>2026-03-29T08:17:50.000Z</time>
      </trkpt>
      <trkpt lat="46.57912" lon="4.85413">
        <ele>247</ele>
        <time>2026-03-29T08:17:58.000Z</time>
      </trkpt>
      <trkpt lat="46.57901" lon="4.8541">
        <ele>247</ele>
        <time>2026-03-29T08:18:08.000Z</time>
      </trkpt>
      <trkpt lat="46.57891" lon="4.85411">
        <ele>247</ele>
        <time>2026-03-29T08:18:14.000Z</time>
      </trkpt>
      <trkpt lat="46.57882" lon="4.85417">
        <ele>246</ele>
        <time>2026-03-29T08:18:20.000Z</time>
      </trkpt>
      <trkpt lat="46.57876" lon="4.85427">
        <ele>246</ele>
        <time>2026-03-29T08:18:26.000Z</time>
      </trkpt>
      <trkpt lat="46.57871" lon="4.85441">
        <ele>244</ele>
        <time>2026-03-29T08:18:34.000Z</time>
      </trkpt>
      <trkpt lat="46.57866" lon="4.85453">
        <ele>243</ele>
        <time>2026-03-29T08:18:41.000Z</time>
      </trkpt>
      <trkpt lat="46.57861" lon="4.85465">
        <ele>242</ele>
        <time>2026-03-29T08:18:47.000Z</time>
      </trkpt>
      <trkpt lat="46.57856" lon="4.85479">
        <ele>240</ele>
        <time>2026-03-29T08:18:55.000Z</time>
      </trkpt>
      <trkpt lat="46.57854" lon="4.85496">
        <ele>238</ele>
        <time>2026-03-29T08:19:03.000Z</time>
      </trkpt>
      <trkpt lat="46.57855" lon="4.85512">
        <ele>236</ele>
        <time>2026-03-29T08:19:11.000Z</time>
      </trkpt>
      <trkpt lat="46.57855" lon="4.85528">
        <ele>234</ele>
        <time>2026-03-29T08:19:19.000Z</time>
      </trkpt>
      <trkpt lat="46.57858" lon="4.85542">
        <ele>232</ele>
        <time>2026-03-29T08:19:27.000Z</time>
      </trkpt>
      <trkpt lat="46.57865" lon="4.85551">
        <ele>231</ele>
        <time>2026-03-29T08:19:34.000Z</time>
      </trkpt>
      <trkpt lat="46.57876" lon="4.85551">
        <ele>231</ele>
        <time>2026-03-29T08:19:42.000Z</time>
      </trkpt>
      <trkpt lat="46.57886" lon="4.85548">
        <ele>230</ele>
        <time>2026-03-29T08:19:50.000Z</time>
      </trkpt>
      <trkpt lat="46.57896" lon="4.85548">
        <ele>229</ele>
        <time>2026-03-29T08:19:57.000Z</time>
      </trkpt>
      <trkpt lat="46.57905" lon="4.85552">
        <ele>229</ele>
        <time>2026-03-29T08:20:05.000Z</time>
      </trkpt>
      <trkpt lat="46.57911" lon="4.85563">
        <ele>229</ele>
        <time>2026-03-29T08:20:13.000Z</time>
      </trkpt>
      <trkpt lat="46.57916" lon="4.85575">
        <ele>229</ele>
        <time>2026-03-29T08:20:21.000Z</time>
      </trkpt>
      <trkpt lat="46.57924" lon="4.85582">
        <ele>229</ele>
        <time>2026-03-29T08:20:29.000Z</time>
      </trkpt>
      <trkpt lat="46.57932" lon="4.85578">
        <ele>229</ele>
        <time>2026-03-29T08:20:37.000Z</time>
      </trkpt>
      <trkpt lat="46.5794" lon="4.85581">
        <ele>230</ele>
        <time>2026-03-29T08:22:11.000Z</time>
      </trkpt>
      <trkpt lat="46.57948" lon="4.85576">
        <ele>231</ele>
        <time>2026-03-29T08:23:09.000Z</time>
      </trkpt>
      <trkpt lat="46.57954" lon="4.85568">
        <ele>232</ele>
        <time>2026-03-29T08:23:35.000Z</time>
      </trkpt>
      <trkpt lat="46.57955" lon="4.85576">
        <ele>233</ele>
        <time>2026-03-29T08:24:23.000Z</time>
      </trkpt>
      <trkpt lat="46.57947" lon="4.85581">
        <ele>231</ele>
        <time>2026-03-29T08:24:38.000Z</time>
      </trkpt>
      <trkpt lat="46.57938" lon="4.85589">
        <ele>230</ele>
        <time>2026-03-29T08:24:52.000Z</time>
      </trkpt>
      <trkpt lat="46.57931" lon="4.85602">
        <ele>229</ele>
        <time>2026-03-29T08:25:00.000Z</time>
      </trkpt>
      <trkpt lat="46.57927" lon="4.85614">
        <ele>229</ele>
        <time>2026-03-29T08:25:06.000Z</time>
      </trkpt>
      <trkpt lat="46.57924" lon="4.85628">
        <ele>228</ele>
        <time>2026-03-29T08:25:14.000Z</time>
      </trkpt>
      <trkpt lat="46.5792" lon="4.85642">
        <ele>228</ele>
        <time>2026-03-29T08:25:23.000Z</time>
      </trkpt>
      <trkpt lat="46.57918" lon="4.85655">
        <ele>229</ele>
        <time>2026-03-29T08:25:31.000Z</time>
      </trkpt>
      <trkpt lat="46.57917" lon="4.85669">
        <ele>229</ele>
        <time>2026-03-29T08:25:40.000Z</time>
      </trkpt>
      <trkpt lat="46.57915" lon="4.85684">
        <ele>228</ele>
        <time>2026-03-29T08:25:48.000Z</time>
      </trkpt>
      <trkpt lat="46.57913" lon="4.85699">
        <ele>227</ele>
        <time>2026-03-29T08:25:57.000Z</time>
      </trkpt>
      <trkpt lat="46.57911" lon="4.85714">
        <ele>225</ele>
        <time>2026-03-29T08:26:05.000Z</time>
      </trkpt>
      <trkpt lat="46.57909" lon="4.85729">
        <ele>226</ele>
        <time>2026-03-29T08:26:14.000Z</time>
      </trkpt>
      <trkpt lat="46.57908" lon="4.85744">
        <ele>225</ele>
        <time>2026-03-29T08:26:23.000Z</time>
      </trkpt>
      <trkpt lat="46.57907" lon="4.85759">
        <ele>224</ele>
        <time>2026-03-29T08:26:32.000Z</time>
      </trkpt>
      <trkpt lat="46.57905" lon="4.85773">
        <ele>225</ele>
        <time>2026-03-29T08:26:41.000Z</time>
      </trkpt>
      <trkpt lat="46.57903" lon="4.85787">
        <ele>224</ele>
        <time>2026-03-29T08:26:50.000Z</time>
      </trkpt>
      <trkpt lat="46.57907" lon="4.85802">
        <ele>224</ele>
        <time>2026-03-29T08:26:59.000Z</time>
      </trkpt>
      <trkpt lat="46.57913" lon="4.85811">
        <ele>226</ele>
        <time>2026-03-29T08:27:05.000Z</time>
      </trkpt>
      <trkpt lat="46.57916" lon="4.85821">
        <ele>226</ele>
        <time>2026-03-29T08:27:13.000Z</time>
      </trkpt>
      <trkpt lat="46.57908" lon="4.8582">
        <ele>224</ele>
        <time>2026-03-29T08:27:36.000Z</time>
      </trkpt>
      <trkpt lat="46.579" lon="4.85816">
        <ele>224</ele>
        <time>2026-03-29T08:27:44.000Z</time>
      </trkpt>
      <trkpt lat="46.5789" lon="4.85811">
        <ele>223</ele>
        <time>2026-03-29T08:27:52.000Z</time>
      </trkpt>
      <trkpt lat="46.57883" lon="4.85802">
        <ele>223</ele>
        <time>2026-03-29T08:27:58.000Z</time>
      </trkpt>
      <trkpt lat="46.57874" lon="4.85795">
        <ele>222</ele>
        <time>2026-03-29T08:28:05.000Z</time>
      </trkpt>
      <trkpt lat="46.57865" lon="4.8579">
        <ele>223</ele>
        <time>2026-03-29T08:28:11.000Z</time>
      </trkpt>
      <trkpt lat="46.57855" lon="4.85784">
        <ele>222</ele>
        <time>2026-03-29T08:28:18.000Z</time>
      </trkpt>
      <trkpt lat="46.57848" lon="4.85778">
        <ele>222</ele>
        <time>2026-03-29T08:28:24.000Z</time>
      </trkpt>
      <trkpt lat="46.57841" lon="4.85772">
        <ele>224</ele>
        <time>2026-03-29T08:28:31.000Z</time>
      </trkpt>
      <trkpt lat="46.57834" lon="4.85779">
        <ele>224</ele>
        <time>2026-03-29T08:29:06.000Z</time>
      </trkpt>
      <trkpt lat="46.57825" lon="4.85785">
        <ele>224</ele>
        <time>2026-03-29T08:29:19.000Z</time>
      </trkpt>
      <trkpt lat="46.57816" lon="4.85786">
        <ele>224</ele>
        <time>2026-03-29T08:29:25.000Z</time>
      </trkpt>
      <trkpt lat="46.57807" lon="4.8579">
        <ele>225</ele>
        <time>2026-03-29T08:29:32.000Z</time>
      </trkpt>
      <trkpt lat="46.57798" lon="4.85799">
        <ele>224</ele>
        <time>2026-03-29T08:29:40.000Z</time>
      </trkpt>
      <trkpt lat="46.57791" lon="4.85807">
        <ele>224</ele>
        <time>2026-03-29T08:29:47.000Z</time>
      </trkpt>
      <trkpt lat="46.57784" lon="4.85814">
        <ele>224</ele>
        <time>2026-03-29T08:29:54.000Z</time>
      </trkpt>
      <trkpt lat="46.57776" lon="4.85823">
        <ele>224</ele>
        <time>2026-03-29T08:30:03.000Z</time>
      </trkpt>
      <trkpt lat="46.57769" lon="4.85833">
        <ele>224</ele>
        <time>2026-03-29T08:30:12.000Z</time>
      </trkpt>
      <trkpt lat="46.57762" lon="4.85844">
        <ele>224</ele>
        <time>2026-03-29T08:30:19.000Z</time>
      </trkpt>
      <trkpt lat="46.57753" lon="4.85854">
        <ele>224</ele>
        <time>2026-03-29T08:30:27.000Z</time>
      </trkpt>
      <trkpt lat="46.57745" lon="4.85862">
        <ele>224</ele>
        <time>2026-03-29T08:30:35.000Z</time>
      </trkpt>
      <trkpt lat="46.57737" lon="4.85868">
        <ele>225</ele>
        <time>2026-03-29T08:30:43.000Z</time>
      </trkpt>
      <trkpt lat="46.57728" lon="4.85867">
        <ele>227</ele>
        <time>2026-03-29T08:30:50.000Z</time>
      </trkpt>
      <trkpt lat="46.57719" lon="4.85864">
        <ele>229</ele>
        <time>2026-03-29T08:30:58.000Z</time>
      </trkpt>
      <trkpt lat="46.57711" lon="4.85864">
        <ele>231</ele>
        <time>2026-03-29T08:31:09.000Z</time>
      </trkpt>
      <trkpt lat="46.57708" lon="4.85875">
        <ele>231</ele>
        <time>2026-03-29T08:31:22.000Z</time>
      </trkpt>
      <trkpt lat="46.57709" lon="4.85888">
        <ele>231</ele>
        <time>2026-03-29T08:31:31.000Z</time>
      </trkpt>
      <trkpt lat="46.57716" lon="4.85892">
        <ele>228</ele>
        <time>2026-03-29T08:31:44.000Z</time>
      </trkpt>
      <trkpt lat="46.57715" lon="4.85907">
        <ele>229</ele>
        <time>2026-03-29T08:32:04.000Z</time>
      </trkpt>
      <trkpt lat="46.57713" lon="4.85922">
        <ele>229</ele>
        <time>2026-03-29T08:32:13.000Z</time>
      </trkpt>
      <trkpt lat="46.57711" lon="4.85936">
        <ele>230</ele>
        <time>2026-03-29T08:32:19.000Z</time>
      </trkpt>
      <trkpt lat="46.57709" lon="4.8595">
        <ele>227</ele>
        <time>2026-03-29T08:32:28.000Z</time>
      </trkpt>
      <trkpt lat="46.57708" lon="4.85964">
        <ele>226</ele>
        <time>2026-03-29T08:32:36.000Z</time>
      </trkpt>
      <trkpt lat="46.5771" lon="4.85977">
        <ele>224</ele>
        <time>2026-03-29T08:32:43.000Z</time>
      </trkpt>
      <trkpt lat="46.57709" lon="4.85992">
        <ele>223</ele>
        <time>2026-03-29T08:32:51.000Z</time>
      </trkpt>
      <trkpt lat="46.57706" lon="4.86007">
        <ele>223</ele>
        <time>2026-03-29T08:32:59.000Z</time>
      </trkpt>
      <trkpt lat="46.57704" lon="4.86019">
        <ele>222</ele>
        <time>2026-03-29T08:33:06.000Z</time>
      </trkpt>
      <trkpt lat="46.57701" lon="4.86033">
        <ele>223</ele>
        <time>2026-03-29T08:33:14.000Z</time>
      </trkpt>
      <trkpt lat="46.57697" lon="4.86046">
        <ele>223</ele>
        <time>2026-03-29T08:33:23.000Z</time>
      </trkpt>
      <trkpt lat="46.57691" lon="4.86057">
        <ele>224</ele>
        <time>2026-03-29T08:33:33.000Z</time>
      </trkpt>
      <trkpt lat="46.57686" lon="4.86068">
        <ele>224</ele>
        <time>2026-03-29T08:33:44.000Z</time>
      </trkpt>
      <trkpt lat="46.57684" lon="4.86081">
        <ele>224</ele>
        <time>2026-03-29T08:34:01.000Z</time>
      </trkpt>
      <trkpt lat="46.57686" lon="4.86094">
        <ele>222</ele>
        <time>2026-03-29T08:34:11.000Z</time>
      </trkpt>
      <trkpt lat="46.57688" lon="4.86106">
        <ele>221</ele>
        <time>2026-03-29T08:34:20.000Z</time>
      </trkpt>
      <trkpt lat="46.5768" lon="4.8611">
        <ele>221</ele>
        <time>2026-03-29T08:34:35.000Z</time>
      </trkpt>
      <trkpt lat="46.57672" lon="4.86113">
        <ele>223</ele>
        <time>2026-03-29T08:34:44.000Z</time>
      </trkpt>
      <trkpt lat="46.57664" lon="4.86119">
        <ele>224</ele>
        <time>2026-03-29T08:35:17.000Z</time>
      </trkpt>
      <trkpt lat="46.57658" lon="4.86128">
        <ele>224</ele>
        <time>2026-03-29T08:35:35.000Z</time>
      </trkpt>
      <trkpt lat="46.57654" lon="4.8614">
        <ele>223</ele>
        <time>2026-03-29T08:35:45.000Z</time>
      </trkpt>
      <trkpt lat="46.57652" lon="4.86155">
        <ele>223</ele>
        <time>2026-03-29T08:35:54.000Z</time>
      </trkpt>
      <trkpt lat="46.5765" lon="4.8617">
        <ele>223</ele>
        <time>2026-03-29T08:36:02.000Z</time>
      </trkpt>
      <trkpt lat="46.57648" lon="4.86183">
        <ele>222</ele>
        <time>2026-03-29T08:36:10.000Z</time>
      </trkpt>
      <trkpt lat="46.57644" lon="4.86196">
        <ele>222</ele>
        <time>2026-03-29T08:36:28.000Z</time>
      </trkpt>
      <trkpt lat="46.57642" lon="4.86211">
        <ele>222</ele>
        <time>2026-03-29T08:36:34.000Z</time>
      </trkpt>
      <trkpt lat="46.57641" lon="4.86224">
        <ele>222</ele>
        <time>2026-03-29T08:36:41.000Z</time>
      </trkpt>
      <trkpt lat="46.57639" lon="4.86238">
        <ele>221</ele>
        <time>2026-03-29T08:36:49.000Z</time>
      </trkpt>
      <trkpt lat="46.57637" lon="4.86252">
        <ele>220</ele>
        <time>2026-03-29T08:36:58.000Z</time>
      </trkpt>
      <trkpt lat="46.57632" lon="4.86265">
        <ele>220</ele>
        <time>2026-03-29T08:37:07.000Z</time>
      </trkpt>
      <trkpt lat="46.57625" lon="4.86277">
        <ele>220</ele>
        <time>2026-03-29T08:37:18.000Z</time>
      </trkpt>
      <trkpt lat="46.57617" lon="4.86288">
        <ele>222</ele>
        <time>2026-03-29T08:37:27.000Z</time>
      </trkpt>
      <trkpt lat="46.57608" lon="4.86294">
        <ele>223</ele>
        <time>2026-03-29T08:37:35.000Z</time>
      </trkpt>
      <trkpt lat="46.57599" lon="4.86297">
        <ele>225</ele>
        <time>2026-03-29T08:37:42.000Z</time>
      </trkpt>
      <trkpt lat="46.5759" lon="4.863">
        <ele>224</ele>
        <time>2026-03-29T08:37:50.000Z</time>
      </trkpt>
      <trkpt lat="46.57581" lon="4.86302">
        <ele>224</ele>
        <time>2026-03-29T08:37:59.000Z</time>
      </trkpt>
      <trkpt lat="46.57571" lon="4.86299">
        <ele>224</ele>
        <time>2026-03-29T08:38:09.000Z</time>
      </trkpt>
      <trkpt lat="46.57562" lon="4.86297">
        <ele>224</ele>
        <time>2026-03-29T08:38:18.000Z</time>
      </trkpt>
      <trkpt lat="46.57553" lon="4.86297">
        <ele>225</ele>
        <time>2026-03-29T08:38:26.000Z</time>
      </trkpt>
      <trkpt lat="46.57544" lon="4.86296">
        <ele>225</ele>
        <time>2026-03-29T08:38:33.000Z</time>
      </trkpt>
      <trkpt lat="46.57535" lon="4.86293">
        <ele>226</ele>
        <time>2026-03-29T08:38:40.000Z</time>
      </trkpt>
      <trkpt lat="46.57526" lon="4.86287">
        <ele>227</ele>
        <time>2026-03-29T08:38:49.000Z</time>
      </trkpt>
      <trkpt lat="46.57518" lon="4.86279">
        <ele>227</ele>
        <time>2026-03-29T08:38:58.000Z</time>
      </trkpt>
      <trkpt lat="46.57509" lon="4.86273">
        <ele>228</ele>
        <time>2026-03-29T08:39:06.000Z</time>
      </trkpt>
      <trkpt lat="46.575" lon="4.86267">
        <ele>228</ele>
        <time>2026-03-29T08:39:15.000Z</time>
      </trkpt>
      <trkpt lat="46.57492" lon="4.86259">
        <ele>229</ele>
        <time>2026-03-29T08:39:24.000Z</time>
      </trkpt>
      <trkpt lat="46.57483" lon="4.86253">
        <ele>229</ele>
        <time>2026-03-29T08:39:32.000Z</time>
      </trkpt>
      <trkpt lat="46.57474" lon="4.86258">
        <ele>228</ele>
        <time>2026-03-29T08:40:04.000Z</time>
      </trkpt>
      <trkpt lat="46.57468" lon="4.86269">
        <ele>227</ele>
        <time>2026-03-29T08:40:14.000Z</time>
      </trkpt>
      <trkpt lat="46.57462" lon="4.86282">
        <ele>227</ele>
        <time>2026-03-29T08:40:24.000Z</time>
      </trkpt>
      <trkpt lat="46.57456" lon="4.86293">
        <ele>228</ele>
        <time>2026-03-29T08:40:32.000Z</time>
      </trkpt>
      <trkpt lat="46.5745" lon="4.86303">
        <ele>228</ele>
        <time>2026-03-29T08:40:39.000Z</time>
      </trkpt>
      <trkpt lat="46.57444" lon="4.86312">
        <ele>228</ele>
        <time>2026-03-29T08:40:46.000Z</time>
      </trkpt>
      <trkpt lat="46.57444" lon="4.86328">
        <ele>226</ele>
        <time>2026-03-29T08:40:56.000Z</time>
      </trkpt>
      <trkpt lat="46.57442" lon="4.86343">
        <ele>226</ele>
        <time>2026-03-29T08:41:00.000Z</time>
      </trkpt>
      <trkpt lat="46.57437" lon="4.86357">
        <ele>225</ele>
        <time>2026-03-29T08:41:06.000Z</time>
      </trkpt>
      <trkpt lat="46.57434" lon="4.86369">
        <ele>225</ele>
        <time>2026-03-29T08:41:12.000Z</time>
      </trkpt>
      <trkpt lat="46.57433" lon="4.86383">
        <ele>224</ele>
        <time>2026-03-29T08:41:18.000Z</time>
      </trkpt>
      <trkpt lat="46.57432" lon="4.86398">
        <ele>224</ele>
        <time>2026-03-29T08:41:26.000Z</time>
      </trkpt>
      <trkpt lat="46.57429" lon="4.8641">
        <ele>223</ele>
        <time>2026-03-29T08:41:34.000Z</time>
      </trkpt>
      <trkpt lat="46.57421" lon="4.8642">
        <ele>224</ele>
        <time>2026-03-29T08:41:43.000Z</time>
      </trkpt>
      <trkpt lat="46.57411" lon="4.86426">
        <ele>223</ele>
        <time>2026-03-29T08:41:51.000Z</time>
      </trkpt>
      <trkpt lat="46.57402" lon="4.86427">
        <ele>223</ele>
        <time>2026-03-29T08:42:00.000Z</time>
      </trkpt>
      <trkpt lat="46.57392" lon="4.86427">
        <ele>224</ele>
        <time>2026-03-29T08:42:10.000Z</time>
      </trkpt>
      <trkpt lat="46.57383" lon="4.86426">
        <ele>225</ele>
        <time>2026-03-29T08:42:20.000Z</time>
      </trkpt>
      <trkpt lat="46.57374" lon="4.86421">
        <ele>225</ele>
        <time>2026-03-29T08:42:28.000Z</time>
      </trkpt>
      <trkpt lat="46.57365" lon="4.86415">
        <ele>226</ele>
        <time>2026-03-29T08:42:51.000Z</time>
      </trkpt>
      <trkpt lat="46.57354" lon="4.86414">
        <ele>227</ele>
        <time>2026-03-29T08:42:57.000Z</time>
      </trkpt>
      <trkpt lat="46.57344" lon="4.86415">
        <ele>227</ele>
        <time>2026-03-29T08:43:03.000Z</time>
      </trkpt>
      <trkpt lat="46.57334" lon="4.86417">
        <ele>226</ele>
        <time>2026-03-29T08:43:09.000Z</time>
      </trkpt>
      <trkpt lat="46.57325" lon="4.86422">
        <ele>226</ele>
        <time>2026-03-29T08:43:15.000Z</time>
      </trkpt>
      <trkpt lat="46.57317" lon="4.86429">
        <ele>225</ele>
        <time>2026-03-29T08:43:21.000Z</time>
      </trkpt>
      <trkpt lat="46.57309" lon="4.86434">
        <ele>224</ele>
        <time>2026-03-29T08:43:27.000Z</time>
      </trkpt>
      <trkpt lat="46.57299" lon="4.86433">
        <ele>225</ele>
        <time>2026-03-29T08:43:35.000Z</time>
      </trkpt>
      <trkpt lat="46.57289" lon="4.86431">
        <ele>225</ele>
        <time>2026-03-29T08:43:44.000Z</time>
      </trkpt>
      <trkpt lat="46.5728" lon="4.86431">
        <ele>226</ele>
        <time>2026-03-29T08:43:52.000Z</time>
      </trkpt>
      <trkpt lat="46.57271" lon="4.8643">
        <ele>226</ele>
        <time>2026-03-29T08:44:00.000Z</time>
      </trkpt>
      <trkpt lat="46.57263" lon="4.86428">
        <ele>226</ele>
        <time>2026-03-29T08:44:08.000Z</time>
      </trkpt>
      <trkpt lat="46.57254" lon="4.86425">
        <ele>227</ele>
        <time>2026-03-29T08:44:16.000Z</time>
      </trkpt>
      <trkpt lat="46.57245" lon="4.86421">
        <ele>228</ele>
        <time>2026-03-29T08:44:25.000Z</time>
      </trkpt>
      <trkpt lat="46.57236" lon="4.86417">
        <ele>228</ele>
        <time>2026-03-29T08:44:33.000Z</time>
      </trkpt>
      <trkpt lat="46.57227" lon="4.86417">
        <ele>228</ele>
        <time>2026-03-29T08:44:41.000Z</time>
      </trkpt>
      <trkpt lat="46.57218" lon="4.8642">
        <ele>229</ele>
        <time>2026-03-29T08:44:49.000Z</time>
      </trkpt>
      <trkpt lat="46.57215" lon="4.86431">
        <ele>228</ele>
        <time>2026-03-29T08:44:56.000Z</time>
      </trkpt>
      <trkpt lat="46.57212" lon="4.86442">
        <ele>227</ele>
        <time>2026-03-29T08:45:03.000Z</time>
      </trkpt>
      <trkpt lat="46.57205" lon="4.86443">
        <ele>228</ele>
        <time>2026-03-29T08:47:22.000Z</time>
      </trkpt>
      <trkpt lat="46.572" lon="4.86452">
        <ele>227</ele>
        <time>2026-03-29T08:47:41.000Z</time>
      </trkpt>
      <trkpt lat="46.57198" lon="4.86465">
        <ele>227</ele>
        <time>2026-03-29T08:47:51.000Z</time>
      </trkpt>
      <trkpt lat="46.572" lon="4.86478">
        <ele>226</ele>
        <time>2026-03-29T08:47:59.000Z</time>
      </trkpt>
      <trkpt lat="46.572" lon="4.86492">
        <ele>226</ele>
        <time>2026-03-29T08:48:09.000Z</time>
      </trkpt>
      <trkpt lat="46.572" lon="4.86505">
        <ele>225</ele>
        <time>2026-03-29T08:48:17.000Z</time>
      </trkpt>
      <trkpt lat="46.572" lon="4.86519">
        <ele>225</ele>
        <time>2026-03-29T08:48:26.000Z</time>
      </trkpt>
      <trkpt lat="46.572" lon="4.86534">
        <ele>224</ele>
        <time>2026-03-29T08:48:34.000Z</time>
      </trkpt>
      <trkpt lat="46.572" lon="4.86549">
        <ele>223</ele>
        <time>2026-03-29T08:48:40.000Z</time>
      </trkpt>
      <trkpt lat="46.57201" lon="4.86562">
        <ele>222</ele>
        <time>2026-03-29T08:48:46.000Z</time>
      </trkpt>
      <trkpt lat="46.572" lon="4.86575">
        <ele>222</ele>
        <time>2026-03-29T08:48:52.000Z</time>
      </trkpt>
      <trkpt lat="46.57199" lon="4.8659">
        <ele>221</ele>
        <time>2026-03-29T08:49:01.000Z</time>
      </trkpt>
      <trkpt lat="46.57198" lon="4.86605">
        <ele>220</ele>
        <time>2026-03-29T08:49:09.000Z</time>
      </trkpt>
      <trkpt lat="46.57197" lon="4.8662">
        <ele>219</ele>
        <time>2026-03-29T08:49:18.000Z</time>
      </trkpt>
      <trkpt lat="46.57196" lon="4.86635">
        <ele>219</ele>
        <time>2026-03-29T08:49:26.000Z</time>
      </trkpt>
      <trkpt lat="46.57194" lon="4.86649">
        <ele>218</ele>
        <time>2026-03-29T08:49:35.000Z</time>
      </trkpt>
      <trkpt lat="46.57191" lon="4.86663">
        <ele>217</ele>
        <time>2026-03-29T08:49:43.000Z</time>
      </trkpt>
      <trkpt lat="46.57189" lon="4.86676">
        <ele>217</ele>
        <time>2026-03-29T08:49:51.000Z</time>
      </trkpt>
      <trkpt lat="46.5718" lon="4.86683">
        <ele>216</ele>
        <time>2026-03-29T08:50:01.000Z</time>
      </trkpt>
      <trkpt lat="46.5717" lon="4.86685">
        <ele>217</ele>
        <time>2026-03-29T08:50:08.000Z</time>
      </trkpt>
      <trkpt lat="46.5716" lon="4.86683">
        <ele>217</ele>
        <time>2026-03-29T08:50:14.000Z</time>
      </trkpt>
      <trkpt lat="46.57151" lon="4.8668">
        <ele>217</ele>
        <time>2026-03-29T08:50:23.000Z</time>
      </trkpt>
      <trkpt lat="46.57143" lon="4.86676">
        <ele>218</ele>
        <time>2026-03-29T08:50:30.000Z</time>
      </trkpt>
      <trkpt lat="46.57135" lon="4.86684">
        <ele>217</ele>
        <time>2026-03-29T08:50:36.000Z</time>
      </trkpt>
      <trkpt lat="46.57128" lon="4.86694">
        <ele>215</ele>
        <time>2026-03-29T08:50:42.000Z</time>
      </trkpt>
      <trkpt lat="46.57124" lon="4.86705">
        <ele>213</ele>
        <time>2026-03-29T08:50:48.000Z</time>
      </trkpt>
      <trkpt lat="46.57121" lon="4.86718">
        <ele>211</ele>
        <time>2026-03-29T08:50:56.000Z</time>
      </trkpt>
      <trkpt lat="46.57117" lon="4.86732">
        <ele>210</ele>
        <time>2026-03-29T08:51:04.000Z</time>
      </trkpt>
      <trkpt lat="46.57112" lon="4.86745">
        <ele>209</ele>
        <time>2026-03-29T08:51:12.000Z</time>
      </trkpt>
      <trkpt lat="46.57108" lon="4.86759">
        <ele>209</ele>
        <time>2026-03-29T08:51:20.000Z</time>
      </trkpt>
      <trkpt lat="46.57106" lon="4.86773">
        <ele>208</ele>
        <time>2026-03-29T08:51:28.000Z</time>
      </trkpt>
      <trkpt lat="46.57104" lon="4.86788">
        <ele>208</ele>
        <time>2026-03-29T08:51:36.000Z</time>
      </trkpt>
      <trkpt lat="46.57102" lon="4.86801">
        <ele>208</ele>
        <time>2026-03-29T08:51:43.000Z</time>
      </trkpt>
      <trkpt lat="46.57098" lon="4.86813">
        <ele>209</ele>
        <time>2026-03-29T08:51:53.000Z</time>
      </trkpt>
      <trkpt lat="46.57094" lon="4.86827">
        <ele>208</ele>
        <time>2026-03-29T08:51:59.000Z</time>
      </trkpt>
      <trkpt lat="46.57092" lon="4.86841">
        <ele>209</ele>
        <time>2026-03-29T08:52:05.000Z</time>
      </trkpt>
      <trkpt lat="46.5709" lon="4.86855">
        <ele>209</ele>
        <time>2026-03-29T08:52:12.000Z</time>
      </trkpt>
      <trkpt lat="46.57086" lon="4.86866">
        <ele>210</ele>
        <time>2026-03-29T08:52:18.000Z</time>
      </trkpt>
      <trkpt lat="46.57077" lon="4.86872">
        <ele>211</ele>
        <time>2026-03-29T08:52:26.000Z</time>
      </trkpt>
      <trkpt lat="46.57068" lon="4.86873">
        <ele>211</ele>
        <time>2026-03-29T08:52:33.000Z</time>
      </trkpt>
      <trkpt lat="46.5706" lon="4.86863">
        <ele>212</ele>
        <time>2026-03-29T08:52:39.000Z</time>
      </trkpt>
      <trkpt lat="46.57052" lon="4.86854">
        <ele>213</ele>
        <time>2026-03-29T08:52:50.000Z</time>
      </trkpt>
      <trkpt lat="46.57042" lon="4.86854">
        <ele>214</ele>
        <time>2026-03-29T08:53:00.000Z</time>
      </trkpt>
      <trkpt lat="46.57034" lon="4.86862">
        <ele>216</ele>
        <time>2026-03-29T08:53:11.000Z</time>
      </trkpt>
      <trkpt lat="46.5703" lon="4.86874">
        <ele>218</ele>
        <time>2026-03-29T08:53:22.000Z</time>
      </trkpt>
      <trkpt lat="46.57024" lon="4.86885">
        <ele>220</ele>
        <time>2026-03-29T08:53:33.000Z</time>
      </trkpt>
      <trkpt lat="46.57015" lon="4.86885">
        <ele>221</ele>
        <time>2026-03-29T08:53:46.000Z</time>
      </trkpt>
      <trkpt lat="46.57005" lon="4.86881">
        <ele>221</ele>
        <time>2026-03-29T08:53:53.000Z</time>
      </trkpt>
      <trkpt lat="46.56996" lon="4.86879">
        <ele>223</ele>
        <time>2026-03-29T08:54:02.000Z</time>
      </trkpt>
      <trkpt lat="46.56986" lon="4.86879">
        <ele>223</ele>
        <time>2026-03-29T08:54:13.000Z</time>
      </trkpt>
      <trkpt lat="46.56977" lon="4.86879">
        <ele>224</ele>
        <time>2026-03-29T08:54:31.000Z</time>
      </trkpt>
      <trkpt lat="46.56967" lon="4.8688">
        <ele>226</ele>
        <time>2026-03-29T08:55:09.000Z</time>
      </trkpt>
      <trkpt lat="46.56958" lon="4.86881">
        <ele>227</ele>
        <time>2026-03-29T08:55:24.000Z</time>
      </trkpt>
      <trkpt lat="46.56948" lon="4.8688">
        <ele>229</ele>
        <time>2026-03-29T08:55:30.000Z</time>
      </trkpt>
      <trkpt lat="46.56939" lon="4.86882">
        <ele>230</ele>
        <time>2026-03-29T08:55:36.000Z</time>
      </trkpt>
      <trkpt lat="46.5693" lon="4.86885">
        <ele>232</ele>
        <time>2026-03-29T08:55:44.000Z</time>
      </trkpt>
      <trkpt lat="46.56921" lon="4.86888">
        <ele>233</ele>
        <time>2026-03-29T08:55:52.000Z</time>
      </trkpt>
      <trkpt lat="46.56912" lon="4.8689">
        <ele>235</ele>
        <time>2026-03-29T08:56:04.000Z</time>
      </trkpt>
      <trkpt lat="46.56906" lon="4.86898">
        <ele>236</ele>
        <time>2026-03-29T08:56:17.000Z</time>
      </trkpt>
      <trkpt lat="46.56898" lon="4.86904">
        <ele>238</ele>
        <time>2026-03-29T08:56:34.000Z</time>
      </trkpt>
      <trkpt lat="46.56889" lon="4.86906">
        <ele>240</ele>
        <time>2026-03-29T08:56:51.000Z</time>
      </trkpt>
      <trkpt lat="46.56879" lon="4.86903">
        <ele>241</ele>
        <time>2026-03-29T08:56:59.000Z</time>
      </trkpt>
      <trkpt lat="46.56869" lon="4.86899">
        <ele>243</ele>
        <time>2026-03-29T08:57:09.000Z</time>
      </trkpt>
      <trkpt lat="46.5686" lon="4.86895">
        <ele>244</ele>
        <time>2026-03-29T08:57:20.000Z</time>
      </trkpt>
      <trkpt lat="46.5685" lon="4.86892">
        <ele>246</ele>
        <time>2026-03-29T08:57:30.000Z</time>
      </trkpt>
      <trkpt lat="46.56841" lon="4.86887">
        <ele>246</ele>
        <time>2026-03-29T08:57:40.000Z</time>
      </trkpt>
      <trkpt lat="46.56832" lon="4.86883">
        <ele>246</ele>
        <time>2026-03-29T08:57:50.000Z</time>
      </trkpt>
      <trkpt lat="46.56822" lon="4.86879">
        <ele>247</ele>
        <time>2026-03-29T08:58:00.000Z</time>
      </trkpt>
      <trkpt lat="46.56813" lon="4.86878">
        <ele>248</ele>
        <time>2026-03-29T08:58:12.000Z</time>
      </trkpt>
      <trkpt lat="46.56803" lon="4.86877">
        <ele>249</ele>
        <time>2026-03-29T08:58:22.000Z</time>
      </trkpt>
      <trkpt lat="46.56794" lon="4.86875">
        <ele>250</ele>
        <time>2026-03-29T08:58:31.000Z</time>
      </trkpt>
      <trkpt lat="46.56784" lon="4.86873">
        <ele>251</ele>
        <time>2026-03-29T08:58:42.000Z</time>
      </trkpt>
      <trkpt lat="46.56775" lon="4.86874">
        <ele>252</ele>
        <time>2026-03-29T08:58:51.000Z</time>
      </trkpt>
      <trkpt lat="46.56767" lon="4.86876">
        <ele>253</ele>
        <time>2026-03-29T08:59:00.000Z</time>
      </trkpt>
      <trkpt lat="46.56763" lon="4.86886">
        <ele>254</ele>
        <time>2026-03-29T08:59:09.000Z</time>
      </trkpt>
      <trkpt lat="46.5676" lon="4.86901">
        <ele>255</ele>
        <time>2026-03-29T08:59:20.000Z</time>
      </trkpt>
      <trkpt lat="46.56756" lon="4.86913">
        <ele>257</ele>
        <time>2026-03-29T08:59:33.000Z</time>
      </trkpt>
      <trkpt lat="46.56753" lon="4.86927">
        <ele>258</ele>
        <time>2026-03-29T08:59:45.000Z</time>
      </trkpt>
      <trkpt lat="46.5675" lon="4.86941">
        <ele>259</ele>
        <time>2026-03-29T08:59:57.000Z</time>
      </trkpt>
      <trkpt lat="46.56745" lon="4.86953">
        <ele>260</ele>
        <time>2026-03-29T09:00:09.000Z</time>
      </trkpt>
      <trkpt lat="46.56741" lon="4.86966">
        <ele>261</ele>
        <time>2026-03-29T09:00:17.000Z</time>
      </trkpt>
      <trkpt lat="46.56736" lon="4.86978">
        <ele>263</ele>
        <time>2026-03-29T09:00:26.000Z</time>
      </trkpt>
      <trkpt lat="46.56732" lon="4.8699">
        <ele>264</ele>
        <time>2026-03-29T09:00:36.000Z</time>
      </trkpt>
      <trkpt lat="46.56728" lon="4.87001">
        <ele>265</ele>
        <time>2026-03-29T09:00:45.000Z</time>
      </trkpt>
      <trkpt lat="46.56723" lon="4.8701">
        <ele>266</ele>
        <time>2026-03-29T09:00:58.000Z</time>
      </trkpt>
      <trkpt lat="46.56713" lon="4.87005">
        <ele>265</ele>
        <time>2026-03-29T09:01:18.000Z</time>
      </trkpt>
      <trkpt lat="46.56703" lon="4.87003">
        <ele>265</ele>
        <time>2026-03-29T09:01:25.000Z</time>
      </trkpt>
      <trkpt lat="46.56696" lon="4.86996">
        <ele>265</ele>
        <time>2026-03-29T09:01:33.000Z</time>
      </trkpt>
      <trkpt lat="46.56691" lon="4.86984">
        <ele>264</ele>
        <time>2026-03-29T09:01:43.000Z</time>
      </trkpt>
      <trkpt lat="46.56686" lon="4.86974">
        <ele>263</ele>
        <time>2026-03-29T09:01:51.000Z</time>
      </trkpt>
      <trkpt lat="46.56676" lon="4.86969">
        <ele>262</ele>
        <time>2026-03-29T09:01:59.000Z</time>
      </trkpt>
      <trkpt lat="46.56666" lon="4.86968">
        <ele>262</ele>
        <time>2026-03-29T09:02:08.000Z</time>
      </trkpt>
      <trkpt lat="46.56657" lon="4.86965">
        <ele>262</ele>
        <time>2026-03-29T09:02:16.000Z</time>
      </trkpt>
      <trkpt lat="46.56648" lon="4.8696">
        <ele>263</ele>
        <time>2026-03-29T09:02:25.000Z</time>
      </trkpt>
      <trkpt lat="46.56638" lon="4.86956">
        <ele>263</ele>
        <time>2026-03-29T09:02:33.000Z</time>
      </trkpt>
      <trkpt lat="46.56628" lon="4.8695">
        <ele>262</ele>
        <time>2026-03-29T09:02:41.000Z</time>
      </trkpt>
      <trkpt lat="46.56621" lon="4.86943">
        <ele>262</ele>
        <time>2026-03-29T09:02:47.000Z</time>
      </trkpt>
      <trkpt lat="46.56613" lon="4.86934">
        <ele>261</ele>
        <time>2026-03-29T09:02:55.000Z</time>
      </trkpt>
      <trkpt lat="46.56605" lon="4.86924">
        <ele>262</ele>
        <time>2026-03-29T09:03:04.000Z</time>
      </trkpt>
      <trkpt lat="46.56597" lon="4.86914">
        <ele>261</ele>
        <time>2026-03-29T09:03:28.000Z</time>
      </trkpt>
      <trkpt lat="46.5659" lon="4.86905">
        <ele>261</ele>
        <time>2026-03-29T09:03:35.000Z</time>
      </trkpt>
      <trkpt lat="46.56582" lon="4.86899">
        <ele>261</ele>
        <time>2026-03-29T09:03:41.000Z</time>
      </trkpt>
      <trkpt lat="46.56573" lon="4.86895">
        <ele>260</ele>
        <time>2026-03-29T09:03:47.000Z</time>
      </trkpt>
      <trkpt lat="46.56567" lon="4.86886">
        <ele>260</ele>
        <time>2026-03-29T09:03:53.000Z</time>
      </trkpt>
      <trkpt lat="46.56563" lon="4.86875">
        <ele>259</ele>
        <time>2026-03-29T09:04:00.000Z</time>
      </trkpt>
      <trkpt lat="46.56561" lon="4.86862">
        <ele>259</ele>
        <time>2026-03-29T09:04:06.000Z</time>
      </trkpt>
      <trkpt lat="46.5656" lon="4.86849">
        <ele>257</ele>
        <time>2026-03-29T09:04:12.000Z</time>
      </trkpt>
      <trkpt lat="46.56555" lon="4.86837">
        <ele>256</ele>
        <time>2026-03-29T09:04:20.000Z</time>
      </trkpt>
      <trkpt lat="46.56547" lon="4.8683">
        <ele>256</ele>
        <time>2026-03-29T09:04:27.000Z</time>
      </trkpt>
      <trkpt lat="46.56538" lon="4.86825">
        <ele>256</ele>
        <time>2026-03-29T09:04:33.000Z</time>
      </trkpt>
      <trkpt lat="46.5653" lon="4.86821">
        <ele>256</ele>
        <time>2026-03-29T09:04:40.000Z</time>
      </trkpt>
      <trkpt lat="46.56519" lon="4.86821">
        <ele>256</ele>
        <time>2026-03-29T09:04:48.000Z</time>
      </trkpt>
      <trkpt lat="46.56514" lon="4.86832">
        <ele>257</ele>
        <time>2026-03-29T09:05:00.000Z</time>
      </trkpt>
      <trkpt lat="46.56522" lon="4.86842">
        <ele>259</ele>
        <time>2026-03-29T09:05:03.000Z</time>
      </trkpt>
      <trkpt lat="46.56529" lon="4.8684">
        <ele>258</ele>
        <time>2026-03-29T09:05:07.000Z</time>
      </trkpt>
      <trkpt lat="46.56521" lon="4.86832">
        <ele>257</ele>
        <time>2026-03-29T09:06:00.000Z</time>
      </trkpt>
      <trkpt lat="46.56507" lon="4.86821">
        <ele>256</ele>
        <time>2026-03-29T09:06:07.000Z</time>
      </trkpt>
      <trkpt lat="46.56496" lon="4.86821">
        <ele>256</ele>
        <time>2026-03-29T09:06:15.000Z</time>
      </trkpt>
      <trkpt lat="46.56487" lon="4.86822">
        <ele>256</ele>
        <time>2026-03-29T09:06:20.000Z</time>
      </trkpt>
      <trkpt lat="46.5648" lon="4.86831">
        <ele>257</ele>
        <time>2026-03-29T09:06:26.000Z</time>
      </trkpt>
      <trkpt lat="46.56477" lon="4.86843">
        <ele>258</ele>
        <time>2026-03-29T09:06:48.000Z</time>
      </trkpt>
      <trkpt lat="46.56478" lon="4.86857">
        <ele>259</ele>
        <time>2026-03-29T09:07:05.000Z</time>
      </trkpt>
      <trkpt lat="46.56475" lon="4.86869">
        <ele>259</ele>
        <time>2026-03-29T09:07:09.000Z</time>
      </trkpt>
      <trkpt lat="46.56469" lon="4.86882">
        <ele>259</ele>
        <time>2026-03-29T09:07:16.000Z</time>
      </trkpt>
      <trkpt lat="46.56461" lon="4.86891">
        <ele>259</ele>
        <time>2026-03-29T09:07:24.000Z</time>
      </trkpt>
      <trkpt lat="46.56455" lon="4.86904">
        <ele>260</ele>
        <time>2026-03-29T09:07:31.000Z</time>
      </trkpt>
      <trkpt lat="46.56452" lon="4.86918">
        <ele>260</ele>
        <time>2026-03-29T09:07:38.000Z</time>
      </trkpt>
      <trkpt lat="46.5645" lon="4.86932">
        <ele>261</ele>
        <time>2026-03-29T09:07:44.000Z</time>
      </trkpt>
      <trkpt lat="46.56445" lon="4.86946">
        <ele>263</ele>
        <time>2026-03-29T09:07:54.000Z</time>
      </trkpt>
      <trkpt lat="46.56439" lon="4.86958">
        <ele>264</ele>
        <time>2026-03-29T09:08:02.000Z</time>
      </trkpt>
      <trkpt lat="46.56432" lon="4.86969">
        <ele>265</ele>
        <time>2026-03-29T09:08:11.000Z</time>
      </trkpt>
      <trkpt lat="46.56424" lon="4.86975">
        <ele>266</ele>
        <time>2026-03-29T09:08:18.000Z</time>
      </trkpt>
      <trkpt lat="46.56415" lon="4.86979">
        <ele>267</ele>
        <time>2026-03-29T09:08:26.000Z</time>
      </trkpt>
      <trkpt lat="46.56405" lon="4.86984">
        <ele>267</ele>
        <time>2026-03-29T09:08:36.000Z</time>
      </trkpt>
      <trkpt lat="46.56394" lon="4.86989">
        <ele>268</ele>
        <time>2026-03-29T09:08:45.000Z</time>
      </trkpt>
      <trkpt lat="46.56386" lon="4.86994">
        <ele>269</ele>
        <time>2026-03-29T09:08:52.000Z</time>
      </trkpt>
      <trkpt lat="46.56378" lon="4.87001">
        <ele>270</ele>
        <time>2026-03-29T09:09:01.000Z</time>
      </trkpt>
      <trkpt lat="46.56371" lon="4.87008">
        <ele>271</ele>
        <time>2026-03-29T09:09:11.000Z</time>
      </trkpt>
      <trkpt lat="46.56363" lon="4.87011">
        <ele>272</ele>
        <time>2026-03-29T09:09:19.000Z</time>
      </trkpt>
      <trkpt lat="46.56355" lon="4.87002">
        <ele>270</ele>
        <time>2026-03-29T09:09:39.000Z</time>
      </trkpt>
      <trkpt lat="46.56346" lon="4.86998">
        <ele>269</ele>
        <time>2026-03-29T09:09:46.000Z</time>
      </trkpt>
      <trkpt lat="46.56338" lon="4.87001">
        <ele>270</ele>
        <time>2026-03-29T09:09:55.000Z</time>
      </trkpt>
      <trkpt lat="46.56328" lon="4.86997">
        <ele>270</ele>
        <time>2026-03-29T09:10:01.000Z</time>
      </trkpt>
      <trkpt lat="46.56319" lon="4.86995">
        <ele>270</ele>
        <time>2026-03-29T09:10:07.000Z</time>
      </trkpt>
      <trkpt lat="46.56309" lon="4.86997">
        <ele>269</ele>
        <time>2026-03-29T09:10:14.000Z</time>
      </trkpt>
      <trkpt lat="46.563" lon="4.86996">
        <ele>269</ele>
        <time>2026-03-29T09:10:22.000Z</time>
      </trkpt>
      <trkpt lat="46.56292" lon="4.86994">
        <ele>268</ele>
        <time>2026-03-29T09:10:29.000Z</time>
      </trkpt>
      <trkpt lat="46.56281" lon="4.86995">
        <ele>267</ele>
        <time>2026-03-29T09:10:37.000Z</time>
      </trkpt>
      <trkpt lat="46.56273" lon="4.87">
        <ele>267</ele>
        <time>2026-03-29T09:10:43.000Z</time>
      </trkpt>
      <trkpt lat="46.56264" lon="4.87003">
        <ele>266</ele>
        <time>2026-03-29T09:10:49.000Z</time>
      </trkpt>
      <trkpt lat="46.56255" lon="4.86999">
        <ele>264</ele>
        <time>2026-03-29T09:10:58.000Z</time>
      </trkpt>
      <trkpt lat="46.56245" lon="4.86992">
        <ele>263</ele>
        <time>2026-03-29T09:11:06.000Z</time>
      </trkpt>
      <trkpt lat="46.56236" lon="4.86988">
        <ele>262</ele>
        <time>2026-03-29T09:11:12.000Z</time>
      </trkpt>
      <trkpt lat="46.56228" lon="4.86988">
        <ele>261</ele>
        <time>2026-03-29T09:11:20.000Z</time>
      </trkpt>
      <trkpt lat="46.56217" lon="4.86987">
        <ele>260</ele>
        <time>2026-03-29T09:11:28.000Z</time>
      </trkpt>
      <trkpt lat="46.56206" lon="4.86988">
        <ele>260</ele>
        <time>2026-03-29T09:11:36.000Z</time>
      </trkpt>
      <trkpt lat="46.56196" lon="4.86988">
        <ele>259</ele>
        <time>2026-03-29T09:11:44.000Z</time>
      </trkpt>
      <trkpt lat="46.56186" lon="4.86986">
        <ele>258</ele>
        <time>2026-03-29T09:11:53.000Z</time>
      </trkpt>
      <trkpt lat="46.56178" lon="4.8698">
        <ele>258</ele>
        <time>2026-03-29T09:11:59.000Z</time>
      </trkpt>
      <trkpt lat="46.56174" lon="4.86965">
        <ele>257</ele>
        <time>2026-03-29T09:12:07.000Z</time>
      </trkpt>
      <trkpt lat="46.56175" lon="4.86951">
        <ele>255</ele>
        <time>2026-03-29T09:12:13.000Z</time>
      </trkpt>
      <trkpt lat="46.56175" lon="4.86937">
        <ele>255</ele>
        <time>2026-03-29T09:12:19.000Z</time>
      </trkpt>
      <trkpt lat="46.56176" lon="4.86924">
        <ele>254</ele>
        <time>2026-03-29T09:12:25.000Z</time>
      </trkpt>
      <trkpt lat="46.56177" lon="4.8691">
        <ele>252</ele>
        <time>2026-03-29T09:12:32.000Z</time>
      </trkpt>
      <trkpt lat="46.56178" lon="4.86896">
        <ele>252</ele>
        <time>2026-03-29T09:12:40.000Z</time>
      </trkpt>
      <trkpt lat="46.56179" lon="4.8688">
        <ele>250</ele>
        <time>2026-03-29T09:12:48.000Z</time>
      </trkpt>
      <trkpt lat="46.56181" lon="4.86865">
        <ele>249</ele>
        <time>2026-03-29T09:12:56.000Z</time>
      </trkpt>
      <trkpt lat="46.56183" lon="4.86852">
        <ele>247</ele>
        <time>2026-03-29T09:13:02.000Z</time>
      </trkpt>
      <trkpt lat="46.56184" lon="4.86837">
        <ele>245</ele>
        <time>2026-03-29T09:13:10.000Z</time>
      </trkpt>
      <trkpt lat="46.56183" lon="4.86823">
        <ele>245</ele>
        <time>2026-03-29T09:13:18.000Z</time>
      </trkpt>
      <trkpt lat="46.56184" lon="4.86808">
        <ele>242</ele>
        <time>2026-03-29T09:13:26.000Z</time>
      </trkpt>
      <trkpt lat="46.56185" lon="4.86795">
        <ele>240</ele>
        <time>2026-03-29T09:13:34.000Z</time>
      </trkpt>
      <trkpt lat="46.56188" lon="4.86783">
        <ele>239</ele>
        <time>2026-03-29T09:13:42.000Z</time>
      </trkpt>
      <trkpt lat="46.5619" lon="4.8677">
        <ele>238</ele>
        <time>2026-03-29T09:13:51.000Z</time>
      </trkpt>
      <trkpt lat="46.5619" lon="4.86756">
        <ele>237</ele>
        <time>2026-03-29T09:13:59.000Z</time>
      </trkpt>
      <trkpt lat="46.5619" lon="4.86741">
        <ele>236</ele>
        <time>2026-03-29T09:14:07.000Z</time>
      </trkpt>
      <trkpt lat="46.5619" lon="4.86727">
        <ele>236</ele>
        <time>2026-03-29T09:14:15.000Z</time>
      </trkpt>
      <trkpt lat="46.56193" lon="4.86713">
        <ele>236</ele>
        <time>2026-03-29T09:14:23.000Z</time>
      </trkpt>
      <trkpt lat="46.56198" lon="4.86701">
        <ele>235</ele>
        <time>2026-03-29T09:14:31.000Z</time>
      </trkpt>
      <trkpt lat="46.56204" lon="4.8669">
        <ele>234</ele>
        <time>2026-03-29T09:14:39.000Z</time>
      </trkpt>
      <trkpt lat="46.56211" lon="4.86681">
        <ele>232</ele>
        <time>2026-03-29T09:14:50.000Z</time>
      </trkpt>
      <trkpt lat="46.56215" lon="4.8667">
        <ele>232</ele>
        <time>2026-03-29T09:14:58.000Z</time>
      </trkpt>
      <trkpt lat="46.56216" lon="4.86658">
        <ele>231</ele>
        <time>2026-03-29T09:15:04.000Z</time>
      </trkpt>
      <trkpt lat="46.56214" lon="4.86646">
        <ele>232</ele>
        <time>2026-03-29T09:15:12.000Z</time>
      </trkpt>
      <trkpt lat="46.56205" lon="4.86647">
        <ele>233</ele>
        <time>2026-03-29T09:15:40.000Z</time>
      </trkpt>
      <trkpt lat="46.56197" lon="4.86647">
        <ele>234</ele>
        <time>2026-03-29T09:15:51.000Z</time>
      </trkpt>
      <trkpt lat="46.56189" lon="4.8664">
        <ele>234</ele>
        <time>2026-03-29T09:16:27.000Z</time>
      </trkpt>
      <trkpt lat="46.56181" lon="4.86635">
        <ele>234</ele>
        <time>2026-03-29T09:16:54.000Z</time>
      </trkpt>
      <trkpt lat="46.56172" lon="4.86633">
        <ele>236</ele>
        <time>2026-03-29T09:17:01.000Z</time>
      </trkpt>
      <trkpt lat="46.56163" lon="4.86638">
        <ele>237</ele>
        <time>2026-03-29T09:17:10.000Z</time>
      </trkpt>
      <trkpt lat="46.56156" lon="4.86648">
        <ele>238</ele>
        <time>2026-03-29T09:17:19.000Z</time>
      </trkpt>
      <trkpt lat="46.5615" lon="4.86657">
        <ele>240</ele>
        <time>2026-03-29T09:17:26.000Z</time>
      </trkpt>
      <trkpt lat="46.56141" lon="4.86663">
        <ele>241</ele>
        <time>2026-03-29T09:17:38.000Z</time>
      </trkpt>
      <trkpt lat="46.56132" lon="4.86667">
        <ele>242</ele>
        <time>2026-03-29T09:17:47.000Z</time>
      </trkpt>
      <trkpt lat="46.56123" lon="4.86671">
        <ele>242</ele>
        <time>2026-03-29T09:17:57.000Z</time>
      </trkpt>
      <trkpt lat="46.56115" lon="4.86677">
        <ele>244</ele>
        <time>2026-03-29T09:18:05.000Z</time>
      </trkpt>
      <trkpt lat="46.56108" lon="4.86685">
        <ele>246</ele>
        <time>2026-03-29T09:18:12.000Z</time>
      </trkpt>
      <trkpt lat="46.56101" lon="4.86693">
        <ele>247</ele>
        <time>2026-03-29T09:18:21.000Z</time>
      </trkpt>
      <trkpt lat="46.56093" lon="4.867">
        <ele>248</ele>
        <time>2026-03-29T09:18:30.000Z</time>
      </trkpt>
      <trkpt lat="46.56084" lon="4.86703">
        <ele>250</ele>
        <time>2026-03-29T09:18:40.000Z</time>
      </trkpt>
      <trkpt lat="46.56075" lon="4.86702">
        <ele>251</ele>
        <time>2026-03-29T09:18:49.000Z</time>
      </trkpt>
      <trkpt lat="46.56065" lon="4.86704">
        <ele>251</ele>
        <time>2026-03-29T09:18:58.000Z</time>
      </trkpt>
      <trkpt lat="46.56055" lon="4.86707">
        <ele>253</ele>
        <time>2026-03-29T09:19:06.000Z</time>
      </trkpt>
      <trkpt lat="46.56045" lon="4.86709">
        <ele>254</ele>
        <time>2026-03-29T09:19:14.000Z</time>
      </trkpt>
      <trkpt lat="46.56035" lon="4.86711">
        <ele>255</ele>
        <time>2026-03-29T09:19:23.000Z</time>
      </trkpt>
      <trkpt lat="46.56025" lon="4.86714">
        <ele>256</ele>
        <time>2026-03-29T09:19:34.000Z</time>
      </trkpt>
      <trkpt lat="46.56016" lon="4.86709">
        <ele>257</ele>
        <time>2026-03-29T09:19:43.000Z</time>
      </trkpt>
      <trkpt lat="46.56009" lon="4.86698">
        <ele>256</ele>
        <time>2026-03-29T09:19:53.000Z</time>
      </trkpt>
      <trkpt lat="46.56002" lon="4.8669">
        <ele>256</ele>
        <time>2026-03-29T09:20:03.000Z</time>
      </trkpt>
      <trkpt lat="46.55994" lon="4.86684">
        <ele>256</ele>
        <time>2026-03-29T09:20:12.000Z</time>
      </trkpt>
      <trkpt lat="46.55985" lon="4.8668">
        <ele>256</ele>
        <time>2026-03-29T09:20:21.000Z</time>
      </trkpt>
      <trkpt lat="46.55981" lon="4.86672">
        <ele>256</ele>
        <time>2026-03-29T09:20:39.000Z</time>
      </trkpt>
      <trkpt lat="46.55977" lon="4.8668">
        <ele>258</ele>
        <time>2026-03-29T09:24:11.000Z</time>
      </trkpt>
      <trkpt lat="46.55968" lon="4.86684">
        <ele>259</ele>
        <time>2026-03-29T09:24:23.000Z</time>
      </trkpt>
      <trkpt lat="46.55959" lon="4.86686">
        <ele>259</ele>
        <time>2026-03-29T09:24:31.000Z</time>
      </trkpt>
      <trkpt lat="46.5595" lon="4.86685">
        <ele>260</ele>
        <time>2026-03-29T09:24:38.000Z</time>
      </trkpt>
      <trkpt lat="46.55941" lon="4.86684">
        <ele>260</ele>
        <time>2026-03-29T09:24:44.000Z</time>
      </trkpt>
      <trkpt lat="46.55932" lon="4.86681">
        <ele>260</ele>
        <time>2026-03-29T09:24:51.000Z</time>
      </trkpt>
      <trkpt lat="46.55922" lon="4.86678">
        <ele>260</ele>
        <time>2026-03-29T09:25:00.000Z</time>
      </trkpt>
      <trkpt lat="46.55913" lon="4.86678">
        <ele>261</ele>
        <time>2026-03-29T09:25:11.000Z</time>
      </trkpt>
      <trkpt lat="46.55904" lon="4.86681">
        <ele>262</ele>
        <time>2026-03-29T09:25:18.000Z</time>
      </trkpt>
      <trkpt lat="46.55895" lon="4.86683">
        <ele>262</ele>
        <time>2026-03-29T09:25:27.000Z</time>
      </trkpt>
      <trkpt lat="46.55886" lon="4.86681">
        <ele>262</ele>
        <time>2026-03-29T09:25:36.000Z</time>
      </trkpt>
      <trkpt lat="46.55876" lon="4.86676">
        <ele>262</ele>
        <time>2026-03-29T09:25:44.000Z</time>
      </trkpt>
      <trkpt lat="46.55867" lon="4.86668">
        <ele>262</ele>
        <time>2026-03-29T09:25:53.000Z</time>
      </trkpt>
      <trkpt lat="46.55857" lon="4.86662">
        <ele>262</ele>
        <time>2026-03-29T09:26:01.000Z</time>
      </trkpt>
      <trkpt lat="46.55847" lon="4.86657">
        <ele>263</ele>
        <time>2026-03-29T09:26:10.000Z</time>
      </trkpt>
      <trkpt lat="46.55838" lon="4.86649">
        <ele>261</ele>
        <time>2026-03-29T09:26:18.000Z</time>
      </trkpt>
      <trkpt lat="46.55828" lon="4.86643">
        <ele>261</ele>
        <time>2026-03-29T09:26:27.000Z</time>
      </trkpt>
      <trkpt lat="46.55819" lon="4.86637">
        <ele>261</ele>
        <time>2026-03-29T09:26:36.000Z</time>
      </trkpt>
      <trkpt lat="46.55812" lon="4.86626">
        <ele>260</ele>
        <time>2026-03-29T09:27:03.000Z</time>
      </trkpt>
      <trkpt lat="46.55804" lon="4.86614">
        <ele>260</ele>
        <time>2026-03-29T09:27:09.000Z</time>
      </trkpt>
      <trkpt lat="46.55796" lon="4.86606">
        <ele>259</ele>
        <time>2026-03-29T09:27:15.000Z</time>
      </trkpt>
      <trkpt lat="46.55786" lon="4.86602">
        <ele>258</ele>
        <time>2026-03-29T09:27:21.000Z</time>
      </trkpt>
      <trkpt lat="46.55777" lon="4.86598">
        <ele>258</ele>
        <time>2026-03-29T09:27:29.000Z</time>
      </trkpt>
      <trkpt lat="46.55769" lon="4.86592">
        <ele>257</ele>
        <time>2026-03-29T09:27:38.000Z</time>
      </trkpt>
      <trkpt lat="46.5576" lon="4.86586">
        <ele>257</ele>
        <time>2026-03-29T09:27:47.000Z</time>
      </trkpt>
      <trkpt lat="46.55752" lon="4.86577">
        <ele>256</ele>
        <time>2026-03-29T09:27:57.000Z</time>
      </trkpt>
      <trkpt lat="46.55745" lon="4.86568">
        <ele>255</ele>
        <time>2026-03-29T09:28:06.000Z</time>
      </trkpt>
      <trkpt lat="46.55737" lon="4.86563">
        <ele>254</ele>
        <time>2026-03-29T09:28:15.000Z</time>
      </trkpt>
      <trkpt lat="46.55729" lon="4.86557">
        <ele>253</ele>
        <time>2026-03-29T09:28:25.000Z</time>
      </trkpt>
      <trkpt lat="46.55722" lon="4.86547">
        <ele>252</ele>
        <time>2026-03-29T09:28:36.000Z</time>
      </trkpt>
      <trkpt lat="46.55715" lon="4.86535">
        <ele>252</ele>
        <time>2026-03-29T09:29:44.000Z</time>
      </trkpt>
      <trkpt lat="46.55705" lon="4.86527">
        <ele>252</ele>
        <time>2026-03-29T09:30:30.000Z</time>
      </trkpt>
      <trkpt lat="46.55697" lon="4.8652">
        <ele>252</ele>
        <time>2026-03-29T09:30:36.000Z</time>
      </trkpt>
      <trkpt lat="46.55687" lon="4.86513">
        <ele>252</ele>
        <time>2026-03-29T09:30:43.000Z</time>
      </trkpt>
      <trkpt lat="46.55677" lon="4.86506">
        <ele>252</ele>
        <time>2026-03-29T09:30:49.000Z</time>
      </trkpt>
      <trkpt lat="46.55669" lon="4.86497">
        <ele>252</ele>
        <time>2026-03-29T09:30:56.000Z</time>
      </trkpt>
      <trkpt lat="46.55662" lon="4.86486">
        <ele>252</ele>
        <time>2026-03-29T09:31:02.000Z</time>
      </trkpt>
      <trkpt lat="46.55659" lon="4.86474">
        <ele>252</ele>
        <time>2026-03-29T09:31:10.000Z</time>
      </trkpt>
      <trkpt lat="46.55657" lon="4.86459">
        <ele>252</ele>
        <time>2026-03-29T09:31:19.000Z</time>
      </trkpt>
      <trkpt lat="46.55658" lon="4.86446">
        <ele>252</ele>
        <time>2026-03-29T09:31:30.000Z</time>
      </trkpt>
      <trkpt lat="46.55662" lon="4.86434">
        <ele>251</ele>
        <time>2026-03-29T09:31:39.000Z</time>
      </trkpt>
      <trkpt lat="46.55667" lon="4.86421">
        <ele>250</ele>
        <time>2026-03-29T09:31:50.000Z</time>
      </trkpt>
      <trkpt lat="46.55672" lon="4.8641">
        <ele>249</ele>
        <time>2026-03-29T09:31:56.000Z</time>
      </trkpt>
      <trkpt lat="46.55676" lon="4.86399">
        <ele>248</ele>
        <time>2026-03-29T09:32:03.000Z</time>
      </trkpt>
      <trkpt lat="46.55677" lon="4.86385">
        <ele>247</ele>
        <time>2026-03-29T09:32:12.000Z</time>
      </trkpt>
      <trkpt lat="46.55681" lon="4.86374">
        <ele>247</ele>
        <time>2026-03-29T09:32:18.000Z</time>
      </trkpt>
      <trkpt lat="46.55687" lon="4.86363">
        <ele>246</ele>
        <time>2026-03-29T09:32:26.000Z</time>
      </trkpt>
      <trkpt lat="46.55693" lon="4.86352">
        <ele>245</ele>
        <time>2026-03-29T09:32:35.000Z</time>
      </trkpt>
      <trkpt lat="46.55697" lon="4.86337">
        <ele>245</ele>
        <time>2026-03-29T09:32:43.000Z</time>
      </trkpt>
      <trkpt lat="46.55699" lon="4.86324">
        <ele>244</ele>
        <time>2026-03-29T09:32:49.000Z</time>
      </trkpt>
      <trkpt lat="46.55702" lon="4.86311">
        <ele>243</ele>
        <time>2026-03-29T09:32:57.000Z</time>
      </trkpt>
      <trkpt lat="46.55705" lon="4.86298">
        <ele>242</ele>
        <time>2026-03-29T09:33:05.000Z</time>
      </trkpt>
      <trkpt lat="46.55705" lon="4.86284">
        <ele>242</ele>
        <time>2026-03-29T09:33:14.000Z</time>
      </trkpt>
      <trkpt lat="46.55704" lon="4.86269">
        <ele>241</ele>
        <time>2026-03-29T09:33:22.000Z</time>
      </trkpt>
      <trkpt lat="46.55702" lon="4.86255">
        <ele>241</ele>
        <time>2026-03-29T09:33:34.000Z</time>
      </trkpt>
      <trkpt lat="46.55706" lon="4.8624">
        <ele>240</ele>
        <time>2026-03-29T09:33:44.000Z</time>
      </trkpt>
      <trkpt lat="46.5571" lon="4.86227">
        <ele>239</ele>
        <time>2026-03-29T09:33:50.000Z</time>
      </trkpt>
      <trkpt lat="46.55714" lon="4.86214">
        <ele>239</ele>
        <time>2026-03-29T09:33:59.000Z</time>
      </trkpt>
      <trkpt lat="46.55716" lon="4.86198">
        <ele>238</ele>
        <time>2026-03-29T09:34:07.000Z</time>
      </trkpt>
      <trkpt lat="46.55715" lon="4.86183">
        <ele>238</ele>
        <time>2026-03-29T09:34:15.000Z</time>
      </trkpt>
      <trkpt lat="46.55717" lon="4.8617">
        <ele>238</ele>
        <time>2026-03-29T09:34:24.000Z</time>
      </trkpt>
      <trkpt lat="46.55719" lon="4.86155">
        <ele>237</ele>
        <time>2026-03-29T09:34:32.000Z</time>
      </trkpt>
      <trkpt lat="46.55721" lon="4.86142">
        <ele>237</ele>
        <time>2026-03-29T09:34:42.000Z</time>
      </trkpt>
      <trkpt lat="46.55725" lon="4.86129">
        <ele>235</ele>
        <time>2026-03-29T09:34:49.000Z</time>
      </trkpt>
      <trkpt lat="46.55728" lon="4.86117">
        <ele>235</ele>
        <time>2026-03-29T09:34:55.000Z</time>
      </trkpt>
      <trkpt lat="46.55732" lon="4.86104">
        <ele>234</ele>
        <time>2026-03-29T09:35:03.000Z</time>
      </trkpt>
      <trkpt lat="46.55736" lon="4.86091">
        <ele>234</ele>
        <time>2026-03-29T09:35:12.000Z</time>
      </trkpt>
      <trkpt lat="46.55738" lon="4.86076">
        <ele>233</ele>
        <time>2026-03-29T09:35:20.000Z</time>
      </trkpt>
      <trkpt lat="46.55741" lon="4.86061">
        <ele>233</ele>
        <time>2026-03-29T09:35:28.000Z</time>
      </trkpt>
      <trkpt lat="46.55745" lon="4.86047">
        <ele>232</ele>
        <time>2026-03-29T09:35:36.000Z</time>
      </trkpt>
      <trkpt lat="46.55752" lon="4.86037">
        <ele>231</ele>
        <time>2026-03-29T09:35:45.000Z</time>
      </trkpt>
      <trkpt lat="46.55761" lon="4.86029">
        <ele>231</ele>
        <time>2026-03-29T09:35:53.000Z</time>
      </trkpt>
      <trkpt lat="46.5577" lon="4.86019">
        <ele>230</ele>
        <time>2026-03-29T09:36:01.000Z</time>
      </trkpt>
      <trkpt lat="46.55776" lon="4.86007">
        <ele>229</ele>
        <time>2026-03-29T09:36:09.000Z</time>
      </trkpt>
      <trkpt lat="46.55781" lon="4.85995">
        <ele>229</ele>
        <time>2026-03-29T09:36:18.000Z</time>
      </trkpt>
      <trkpt lat="46.55779" lon="4.85983">
        <ele>230</ele>
        <time>2026-03-29T09:36:26.000Z</time>
      </trkpt>
      <trkpt lat="46.55775" lon="4.8597">
        <ele>230</ele>
        <time>2026-03-29T09:36:34.000Z</time>
      </trkpt>
      <trkpt lat="46.55771" lon="4.85957">
        <ele>230</ele>
        <time>2026-03-29T09:36:43.000Z</time>
      </trkpt>
      <trkpt lat="46.55767" lon="4.85944">
        <ele>230</ele>
        <time>2026-03-29T09:36:51.000Z</time>
      </trkpt>
      <trkpt lat="46.55763" lon="4.85929">
        <ele>230</ele>
        <time>2026-03-29T09:36:59.000Z</time>
      </trkpt>
      <trkpt lat="46.5576" lon="4.85915">
        <ele>230</ele>
        <time>2026-03-29T09:37:05.000Z</time>
      </trkpt>
      <trkpt lat="46.55759" lon="4.85903">
        <ele>229</ele>
        <time>2026-03-29T09:37:12.000Z</time>
      </trkpt>
      <trkpt lat="46.55758" lon="4.8589">
        <ele>229</ele>
        <time>2026-03-29T09:37:18.000Z</time>
      </trkpt>
      <trkpt lat="46.55759" lon="4.85876">
        <ele>227</ele>
        <time>2026-03-29T09:37:26.000Z</time>
      </trkpt>
      <trkpt lat="46.55759" lon="4.85863">
        <ele>225</ele>
        <time>2026-03-29T09:37:34.000Z</time>
      </trkpt>
      <trkpt lat="46.55762" lon="4.85849">
        <ele>225</ele>
        <time>2026-03-29T09:38:04.000Z</time>
      </trkpt>
      <trkpt lat="46.55765" lon="4.85836">
        <ele>223</ele>
        <time>2026-03-29T09:38:12.000Z</time>
      </trkpt>
      <trkpt lat="46.5577" lon="4.85828">
        <ele>222</ele>
        <time>2026-03-29T09:38:21.000Z</time>
      </trkpt>
      <trkpt lat="46.55775" lon="4.85837">
        <ele>221</ele>
        <time>2026-03-29T09:38:29.000Z</time>
      </trkpt>
      <trkpt lat="46.55779" lon="4.8585">
        <ele>222</ele>
        <time>2026-03-29T09:38:38.000Z</time>
      </trkpt>
      <trkpt lat="46.55787" lon="4.8586">
        <ele>220</ele>
        <time>2026-03-29T09:38:44.000Z</time>
      </trkpt>
      <trkpt lat="46.55795" lon="4.85871">
        <ele>220</ele>
        <time>2026-03-29T09:38:50.000Z</time>
      </trkpt>
      <trkpt lat="46.55799" lon="4.85884">
        <ele>220</ele>
        <time>2026-03-29T09:38:58.000Z</time>
      </trkpt>
      <trkpt lat="46.55805" lon="4.85896">
        <ele>220</ele>
        <time>2026-03-29T09:39:06.000Z</time>
      </trkpt>
      <trkpt lat="46.55813" lon="4.85903">
        <ele>220</ele>
        <time>2026-03-29T09:39:13.000Z</time>
      </trkpt>
      <trkpt lat="46.55821" lon="4.85907">
        <ele>219</ele>
        <time>2026-03-29T09:39:19.000Z</time>
      </trkpt>
      <trkpt lat="46.5583" lon="4.85912">
        <ele>219</ele>
        <time>2026-03-29T09:39:25.000Z</time>
      </trkpt>
      <trkpt lat="46.5584" lon="4.85921">
        <ele>220</ele>
        <time>2026-03-29T09:39:33.000Z</time>
      </trkpt>
      <trkpt lat="46.55848" lon="4.85928">
        <ele>220</ele>
        <time>2026-03-29T09:39:42.000Z</time>
      </trkpt>
      <trkpt lat="46.55857" lon="4.85931">
        <ele>219</ele>
        <time>2026-03-29T09:39:48.000Z</time>
      </trkpt>
      <trkpt lat="46.55866" lon="4.85932">
        <ele>220</ele>
        <time>2026-03-29T09:39:54.000Z</time>
      </trkpt>
      <trkpt lat="46.55876" lon="4.85934">
        <ele>220</ele>
        <time>2026-03-29T09:40:03.000Z</time>
      </trkpt>
      <trkpt lat="46.55884" lon="4.85936">
        <ele>220</ele>
        <time>2026-03-29T09:40:09.000Z</time>
      </trkpt>
      <trkpt lat="46.55894" lon="4.85937">
        <ele>220</ele>
        <time>2026-03-29T09:40:17.000Z</time>
      </trkpt>
      <trkpt lat="46.55903" lon="4.85939">
        <ele>221</ele>
        <time>2026-03-29T09:40:24.000Z</time>
      </trkpt>
      <trkpt lat="46.55914" lon="4.85939">
        <ele>223</ele>
        <time>2026-03-29T09:40:32.000Z</time>
      </trkpt>
      <trkpt lat="46.55923" lon="4.85941">
        <ele>224</ele>
        <time>2026-03-29T09:40:41.000Z</time>
      </trkpt>
      <trkpt lat="46.5593" lon="4.85944">
        <ele>224</ele>
        <time>2026-03-29T09:40:52.000Z</time>
      </trkpt>
      <trkpt lat="46.55926" lon="4.85937">
        <ele>224</ele>
        <time>2026-03-29T09:41:16.000Z</time>
      </trkpt>
      <trkpt lat="46.55922" lon="4.85926">
        <ele>226</ele>
        <time>2026-03-29T09:41:22.000Z</time>
      </trkpt>
      <trkpt lat="46.55927" lon="4.85915">
        <ele>226</ele>
        <time>2026-03-29T09:41:47.000Z</time>
      </trkpt>
      <trkpt lat="46.55936" lon="4.85912">
        <ele>228</ele>
        <time>2026-03-29T09:41:54.000Z</time>
      </trkpt>
      <trkpt lat="46.55945" lon="4.85911">
        <ele>228</ele>
        <time>2026-03-29T09:42:01.000Z</time>
      </trkpt>
      <trkpt lat="46.55955" lon="4.85908">
        <ele>229</ele>
        <time>2026-03-29T09:42:10.000Z</time>
      </trkpt>
      <trkpt lat="46.55963" lon="4.85906">
        <ele>229</ele>
        <time>2026-03-29T09:42:21.000Z</time>
      </trkpt>
      <trkpt lat="46.55966" lon="4.85898">
        <ele>229</ele>
        <time>2026-03-29T09:42:31.000Z</time>
      </trkpt>
      <trkpt lat="46.55969" lon="4.85905">
        <ele>229</ele>
        <time>2026-03-29T09:42:55.000Z</time>
      </trkpt>
      <trkpt lat="46.55975" lon="4.85895">
        <ele>229</ele>
        <time>2026-03-29T09:44:05.000Z</time>
      </trkpt>
      <trkpt lat="46.55975" lon="4.8588">
        <ele>229</ele>
        <time>2026-03-29T09:44:13.000Z</time>
      </trkpt>
      <trkpt lat="46.55972" lon="4.85865">
        <ele>230</ele>
        <time>2026-03-29T09:44:21.000Z</time>
      </trkpt>
      <trkpt lat="46.55969" lon="4.85852">
        <ele>229</ele>
        <time>2026-03-29T09:44:44.000Z</time>
      </trkpt>
      <trkpt lat="46.55962" lon="4.85842">
        <ele>230</ele>
        <time>2026-03-29T09:44:50.000Z</time>
      </trkpt>
      <trkpt lat="46.55952" lon="4.85836">
        <ele>230</ele>
        <time>2026-03-29T09:44:58.000Z</time>
      </trkpt>
      <trkpt lat="46.55945" lon="4.85841">
        <ele>230</ele>
        <time>2026-03-29T09:45:06.000Z</time>
      </trkpt>
      <trkpt lat="46.5594" lon="4.85852">
        <ele>230</ele>
        <time>2026-03-29T09:45:12.000Z</time>
      </trkpt>
      <trkpt lat="46.55933" lon="4.85859">
        <ele>229</ele>
        <time>2026-03-29T09:45:19.000Z</time>
      </trkpt>
      <trkpt lat="46.55923" lon="4.85862">
        <ele>229</ele>
        <time>2026-03-29T09:45:27.000Z</time>
      </trkpt>
      <trkpt lat="46.55912" lon="4.8586">
        <ele>228</ele>
        <time>2026-03-29T09:45:35.000Z</time>
      </trkpt>
      <trkpt lat="46.55904" lon="4.85858">
        <ele>228</ele>
        <time>2026-03-29T09:45:41.000Z</time>
      </trkpt>
      <trkpt lat="46.55895" lon="4.85859">
        <ele>226</ele>
        <time>2026-03-29T09:45:47.000Z</time>
      </trkpt>
      <trkpt lat="46.55886" lon="4.85857">
        <ele>226</ele>
        <time>2026-03-29T09:45:56.000Z</time>
      </trkpt>
      <trkpt lat="46.55879" lon="4.85849">
        <ele>225</ele>
        <time>2026-03-29T09:47:54.000Z</time>
      </trkpt>
      <trkpt lat="46.55872" lon="4.85839">
        <ele>224</ele>
        <time>2026-03-29T09:48:02.000Z</time>
      </trkpt>
      <trkpt lat="46.55865" lon="4.8583">
        <ele>224</ele>
        <time>2026-03-29T09:48:11.000Z</time>
      </trkpt>
      <trkpt lat="46.55861" lon="4.85818">
        <ele>225</ele>
        <time>2026-03-29T09:48:18.000Z</time>
      </trkpt>
      <trkpt lat="46.55859" lon="4.85805">
        <ele>226</ele>
        <time>2026-03-29T09:48:29.000Z</time>
      </trkpt>
      <trkpt lat="46.55859" lon="4.85791">
        <ele>226</ele>
        <time>2026-03-29T09:48:41.000Z</time>
      </trkpt>
      <trkpt lat="46.55859" lon="4.85778">
        <ele>227</ele>
        <time>2026-03-29T09:48:48.000Z</time>
      </trkpt>
      <trkpt lat="46.5586" lon="4.85762">
        <ele>228</ele>
        <time>2026-03-29T09:48:57.000Z</time>
      </trkpt>
      <trkpt lat="46.5586" lon="4.85748">
        <ele>229</ele>
        <time>2026-03-29T09:49:04.000Z</time>
      </trkpt>
      <trkpt lat="46.55858" lon="4.85734">
        <ele>230</ele>
        <time>2026-03-29T09:49:11.000Z</time>
      </trkpt>
      <trkpt lat="46.55853" lon="4.85722">
        <ele>230</ele>
        <time>2026-03-29T09:49:19.000Z</time>
      </trkpt>
      <trkpt lat="46.55851" lon="4.85708">
        <ele>232</ele>
        <time>2026-03-29T09:49:27.000Z</time>
      </trkpt>
      <trkpt lat="46.55849" lon="4.85694">
        <ele>234</ele>
        <time>2026-03-29T09:49:34.000Z</time>
      </trkpt>
      <trkpt lat="46.55845" lon="4.85681">
        <ele>234</ele>
        <time>2026-03-29T09:49:43.000Z</time>
      </trkpt>
      <trkpt lat="46.5584" lon="4.85669">
        <ele>235</ele>
        <time>2026-03-29T09:49:51.000Z</time>
      </trkpt>
      <trkpt lat="46.55834" lon="4.85659">
        <ele>236</ele>
        <time>2026-03-29T09:49:58.000Z</time>
      </trkpt>
      <trkpt lat="46.55828" lon="4.85648">
        <ele>237</ele>
        <time>2026-03-29T09:50:05.000Z</time>
      </trkpt>
      <trkpt lat="46.55823" lon="4.85635">
        <ele>238</ele>
        <time>2026-03-29T09:50:14.000Z</time>
      </trkpt>
      <trkpt lat="46.55819" lon="4.85621">
        <ele>239</ele>
        <time>2026-03-29T09:50:23.000Z</time>
      </trkpt>
      <trkpt lat="46.55814" lon="4.85609">
        <ele>240</ele>
        <time>2026-03-29T09:50:34.000Z</time>
      </trkpt>
      <trkpt lat="46.5581" lon="4.85595">
        <ele>242</ele>
        <time>2026-03-29T09:50:44.000Z</time>
      </trkpt>
      <trkpt lat="46.55809" lon="4.8558">
        <ele>243</ele>
        <time>2026-03-29T09:50:55.000Z</time>
      </trkpt>
      <trkpt lat="46.55804" lon="4.85566">
        <ele>244</ele>
        <time>2026-03-29T09:51:04.000Z</time>
      </trkpt>
      <trkpt lat="46.55798" lon="4.85553">
        <ele>245</ele>
        <time>2026-03-29T09:51:13.000Z</time>
      </trkpt>
      <trkpt lat="46.55792" lon="4.85542">
        <ele>246</ele>
        <time>2026-03-29T09:51:22.000Z</time>
      </trkpt>
      <trkpt lat="46.55787" lon="4.85531">
        <ele>246</ele>
        <time>2026-03-29T09:51:29.000Z</time>
      </trkpt>
      <trkpt lat="46.5578" lon="4.8552">
        <ele>247</ele>
        <time>2026-03-29T09:51:38.000Z</time>
      </trkpt>
      <trkpt lat="46.55776" lon="4.85508">
        <ele>248</ele>
        <time>2026-03-29T09:51:49.000Z</time>
      </trkpt>
      <trkpt lat="46.55784" lon="4.85501">
        <ele>248</ele>
        <time>2026-03-29T09:52:35.000Z</time>
      </trkpt>
      <trkpt lat="46.5579" lon="4.85493">
        <ele>248</ele>
        <time>2026-03-29T09:52:48.000Z</time>
      </trkpt>
      <trkpt lat="46.55782" lon="4.85487">
        <ele>248</ele>
        <time>2026-03-29T09:53:20.000Z</time>
      </trkpt>
      <trkpt lat="46.55774" lon="4.85478">
        <ele>248</ele>
        <time>2026-03-29T09:53:27.000Z</time>
      </trkpt>
      <trkpt lat="46.55768" lon="4.85467">
        <ele>247</ele>
        <time>2026-03-29T09:53:33.000Z</time>
      </trkpt>
      <trkpt lat="46.5576" lon="4.85457">
        <ele>247</ele>
        <time>2026-03-29T09:53:42.000Z</time>
      </trkpt>
      <trkpt lat="46.5575" lon="4.85449">
        <ele>246</ele>
        <time>2026-03-29T09:53:50.000Z</time>
      </trkpt>
      <trkpt lat="46.55743" lon="4.85441">
        <ele>246</ele>
        <time>2026-03-29T09:53:56.000Z</time>
      </trkpt>
      <trkpt lat="46.55736" lon="4.8543">
        <ele>246</ele>
        <time>2026-03-29T09:54:05.000Z</time>
      </trkpt>
      <trkpt lat="46.55731" lon="4.85419">
        <ele>246</ele>
        <time>2026-03-29T09:54:11.000Z</time>
      </trkpt>
      <trkpt lat="46.55728" lon="4.85407">
        <ele>245</ele>
        <time>2026-03-29T09:54:17.000Z</time>
      </trkpt>
      <trkpt lat="46.55723" lon="4.85392">
        <ele>245</ele>
        <time>2026-03-29T09:54:25.000Z</time>
      </trkpt>
      <trkpt lat="46.55721" lon="4.85378">
        <ele>244</ele>
        <time>2026-03-29T09:54:33.000Z</time>
      </trkpt>
      <trkpt lat="46.5572" lon="4.85365">
        <ele>245</ele>
        <time>2026-03-29T09:54:42.000Z</time>
      </trkpt>
      <trkpt lat="46.5572" lon="4.85352">
        <ele>245</ele>
        <time>2026-03-29T09:54:48.000Z</time>
      </trkpt>
      <trkpt lat="46.55718" lon="4.85339">
        <ele>245</ele>
        <time>2026-03-29T09:54:54.000Z</time>
      </trkpt>
      <trkpt lat="46.55717" lon="4.85324">
        <ele>245</ele>
        <time>2026-03-29T09:55:02.000Z</time>
      </trkpt>
      <trkpt lat="46.55721" lon="4.8531">
        <ele>245</ele>
        <time>2026-03-29T09:55:10.000Z</time>
      </trkpt>
      <trkpt lat="46.55729" lon="4.853">
        <ele>245</ele>
        <time>2026-03-29T09:55:17.000Z</time>
      </trkpt>
      <trkpt lat="46.55735" lon="4.85288">
        <ele>245</ele>
        <time>2026-03-29T09:55:25.000Z</time>
      </trkpt>
      <trkpt lat="46.55739" lon="4.85275">
        <ele>245</ele>
        <time>2026-03-29T09:55:37.000Z</time>
      </trkpt>
      <trkpt lat="46.5574" lon="4.85261">
        <ele>245</ele>
        <time>2026-03-29T09:55:45.000Z</time>
      </trkpt>
      <trkpt lat="46.55741" lon="4.85246">
        <ele>246</ele>
        <time>2026-03-29T09:55:56.000Z</time>
      </trkpt>
      <trkpt lat="46.55738" lon="4.85233">
        <ele>246</ele>
        <time>2026-03-29T09:56:04.000Z</time>
      </trkpt>
      <trkpt lat="46.55733" lon="4.85219">
        <ele>246</ele>
        <time>2026-03-29T09:56:10.000Z</time>
      </trkpt>
      <trkpt lat="46.55733" lon="4.85207">
        <ele>247</ele>
        <time>2026-03-29T09:56:17.000Z</time>
      </trkpt>
      <trkpt lat="46.5574" lon="4.85199">
        <ele>247</ele>
        <time>2026-03-29T09:56:36.000Z</time>
      </trkpt>
      <trkpt lat="46.55744" lon="4.85188">
        <ele>247</ele>
        <time>2026-03-29T09:56:46.000Z</time>
      </trkpt>
      <trkpt lat="46.55748" lon="4.85176">
        <ele>247</ele>
        <time>2026-03-29T09:56:54.000Z</time>
      </trkpt>
      <trkpt lat="46.55749" lon="4.85161">
        <ele>248</ele>
        <time>2026-03-29T09:57:03.000Z</time>
      </trkpt>
      <trkpt lat="46.55744" lon="4.85147">
        <ele>248</ele>
        <time>2026-03-29T09:57:11.000Z</time>
      </trkpt>
      <trkpt lat="46.55738" lon="4.85134">
        <ele>249</ele>
        <time>2026-03-29T09:57:19.000Z</time>
      </trkpt>
      <trkpt lat="46.55734" lon="4.85119">
        <ele>250</ele>
        <time>2026-03-29T09:57:27.000Z</time>
      </trkpt>
      <trkpt lat="46.5573" lon="4.85104">
        <ele>251</ele>
        <time>2026-03-29T09:57:35.000Z</time>
      </trkpt>
      <trkpt lat="46.55726" lon="4.85091">
        <ele>251</ele>
        <time>2026-03-29T09:57:47.000Z</time>
      </trkpt>
      <trkpt lat="46.55727" lon="4.85078">
        <ele>252</ele>
        <time>2026-03-29T09:58:40.000Z</time>
      </trkpt>
      <trkpt lat="46.55723" lon="4.85066">
        <ele>252</ele>
        <time>2026-03-29T09:59:10.000Z</time>
      </trkpt>
      <trkpt lat="46.55717" lon="4.85051">
        <ele>253</ele>
        <time>2026-03-29T10:02:23.000Z</time>
      </trkpt>
      <trkpt lat="46.55709" lon="4.85036">
        <ele>253</ele>
        <time>2026-03-29T10:02:34.000Z</time>
      </trkpt>
      <trkpt lat="46.55703" lon="4.85025">
        <ele>255</ele>
        <time>2026-03-29T10:02:40.000Z</time>
      </trkpt>
      <trkpt lat="46.55694" lon="4.85022">
        <ele>256</ele>
        <time>2026-03-29T10:03:05.000Z</time>
      </trkpt>
      <trkpt lat="46.55687" lon="4.8502">
        <ele>258</ele>
        <time>2026-03-29T10:03:34.000Z</time>
      </trkpt>
      <trkpt lat="46.55689" lon="4.85025">
        <ele>257</ele>
        <time>2026-03-29T10:13:38.000Z</time>
      </trkpt>
      <trkpt lat="46.55672" lon="4.85019">
        <ele>259</ele>
        <time>2026-03-29T10:13:48.000Z</time>
      </trkpt>
      <trkpt lat="46.55662" lon="4.85013">
        <ele>260</ele>
        <time>2026-03-29T10:13:54.000Z</time>
      </trkpt>
      <trkpt lat="46.55653" lon="4.85008">
        <ele>261</ele>
        <time>2026-03-29T10:14:02.000Z</time>
      </trkpt>
      <trkpt lat="46.55643" lon="4.85006">
        <ele>262</ele>
        <time>2026-03-29T10:14:09.000Z</time>
      </trkpt>
      <trkpt lat="46.55635" lon="4.85002">
        <ele>263</ele>
        <time>2026-03-29T10:14:15.000Z</time>
      </trkpt>
      <trkpt lat="46.55626" lon="4.84997">
        <ele>264</ele>
        <time>2026-03-29T10:14:24.000Z</time>
      </trkpt>
      <trkpt lat="46.55616" lon="4.84991">
        <ele>265</ele>
        <time>2026-03-29T10:14:33.000Z</time>
      </trkpt>
      <trkpt lat="46.55608" lon="4.84981">
        <ele>267</ele>
        <time>2026-03-29T10:14:42.000Z</time>
      </trkpt>
      <trkpt lat="46.55604" lon="4.84968">
        <ele>267</ele>
        <time>2026-03-29T10:14:49.000Z</time>
      </trkpt>
      <trkpt lat="46.55606" lon="4.84955">
        <ele>268</ele>
        <time>2026-03-29T10:14:58.000Z</time>
      </trkpt>
      <trkpt lat="46.5561" lon="4.84941">
        <ele>268</ele>
        <time>2026-03-29T10:15:07.000Z</time>
      </trkpt>
      <trkpt lat="46.55611" lon="4.84926">
        <ele>269</ele>
        <time>2026-03-29T10:15:16.000Z</time>
      </trkpt>
      <trkpt lat="46.55609" lon="4.84912">
        <ele>270</ele>
        <time>2026-03-29T10:15:25.000Z</time>
      </trkpt>
      <trkpt lat="46.55606" lon="4.84899">
        <ele>270</ele>
        <time>2026-03-29T10:15:33.000Z</time>
      </trkpt>
      <trkpt lat="46.55606" lon="4.84887">
        <ele>271</ele>
        <time>2026-03-29T10:15:42.000Z</time>
      </trkpt>
      <trkpt lat="46.5561" lon="4.84875">
        <ele>271</ele>
        <time>2026-03-29T10:15:50.000Z</time>
      </trkpt>
      <trkpt lat="46.55612" lon="4.84862">
        <ele>271</ele>
        <time>2026-03-29T10:16:04.000Z</time>
      </trkpt>
      <trkpt lat="46.55612" lon="4.84848">
        <ele>272</ele>
        <time>2026-03-29T10:16:13.000Z</time>
      </trkpt>
      <trkpt lat="46.55613" lon="4.84833">
        <ele>272</ele>
        <time>2026-03-29T10:16:23.000Z</time>
      </trkpt>
      <trkpt lat="46.55613" lon="4.8482">
        <ele>272</ele>
        <time>2026-03-29T10:16:32.000Z</time>
      </trkpt>
      <trkpt lat="46.55614" lon="4.84805">
        <ele>273</ele>
        <time>2026-03-29T10:16:49.000Z</time>
      </trkpt>
      <trkpt lat="46.55615" lon="4.84789">
        <ele>273</ele>
        <time>2026-03-29T10:16:57.000Z</time>
      </trkpt>
      <trkpt lat="46.55614" lon="4.84774">
        <ele>273</ele>
        <time>2026-03-29T10:17:06.000Z</time>
      </trkpt>
      <trkpt lat="46.55612" lon="4.84759">
        <ele>273</ele>
        <time>2026-03-29T10:17:15.000Z</time>
      </trkpt>
      <trkpt lat="46.55607" lon="4.84746">
        <ele>273</ele>
        <time>2026-03-29T10:17:24.000Z</time>
      </trkpt>
      <trkpt lat="46.55602" lon="4.84733">
        <ele>274</ele>
        <time>2026-03-29T10:17:33.000Z</time>
      </trkpt>
      <trkpt lat="46.55599" lon="4.8472">
        <ele>275</ele>
        <time>2026-03-29T10:17:41.000Z</time>
      </trkpt>
      <trkpt lat="46.55596" lon="4.84707">
        <ele>276</ele>
        <time>2026-03-29T10:18:20.000Z</time>
      </trkpt>
      <trkpt lat="46.55596" lon="4.84692">
        <ele>276</ele>
        <time>2026-03-29T10:18:29.000Z</time>
      </trkpt>
      <trkpt lat="46.55599" lon="4.84678">
        <ele>276</ele>
        <time>2026-03-29T10:18:54.000Z</time>
      </trkpt>
      <trkpt lat="46.55602" lon="4.84665">
        <ele>275</ele>
        <time>2026-03-29T10:19:01.000Z</time>
      </trkpt>
      <trkpt lat="46.55596" lon="4.84658">
        <ele>276</ele>
        <time>2026-03-29T10:19:03.000Z</time>
      </trkpt>
      <trkpt lat="46.55591" lon="4.84647">
        <ele>277</ele>
        <time>2026-03-29T10:19:09.000Z</time>
      </trkpt>
      <trkpt lat="46.55588" lon="4.84634">
        <ele>278</ele>
        <time>2026-03-29T10:19:18.000Z</time>
      </trkpt>
      <trkpt lat="46.55585" lon="4.84621">
        <ele>278</ele>
        <time>2026-03-29T10:19:26.000Z</time>
      </trkpt>
      <trkpt lat="46.55583" lon="4.84608">
        <ele>279</ele>
        <time>2026-03-29T10:19:34.000Z</time>
      </trkpt>
      <trkpt lat="46.55579" lon="4.84594">
        <ele>279</ele>
        <time>2026-03-29T10:19:43.000Z</time>
      </trkpt>
      <trkpt lat="46.55578" lon="4.84582">
        <ele>279</ele>
        <time>2026-03-29T10:19:52.000Z</time>
      </trkpt>
      <trkpt lat="46.55579" lon="4.84567">
        <ele>279</ele>
        <time>2026-03-29T10:20:00.000Z</time>
      </trkpt>
      <trkpt lat="46.5558" lon="4.84552">
        <ele>280</ele>
        <time>2026-03-29T10:20:08.000Z</time>
      </trkpt>
      <trkpt lat="46.55579" lon="4.84537">
        <ele>280</ele>
        <time>2026-03-29T10:20:17.000Z</time>
      </trkpt>
      <trkpt lat="46.55577" lon="4.84524">
        <ele>281</ele>
        <time>2026-03-29T10:20:25.000Z</time>
      </trkpt>
      <trkpt lat="46.55574" lon="4.84509">
        <ele>282</ele>
        <time>2026-03-29T10:20:34.000Z</time>
      </trkpt>
      <trkpt lat="46.5557" lon="4.84496">
        <ele>283</ele>
        <time>2026-03-29T10:20:43.000Z</time>
      </trkpt>
      <trkpt lat="46.55565" lon="4.84484">
        <ele>284</ele>
        <time>2026-03-29T10:20:52.000Z</time>
      </trkpt>
      <trkpt lat="46.55558" lon="4.84475">
        <ele>284</ele>
        <time>2026-03-29T10:21:03.000Z</time>
      </trkpt>
      <trkpt lat="46.55556" lon="4.84464">
        <ele>285</ele>
        <time>2026-03-29T10:21:24.000Z</time>
      </trkpt>
      <trkpt lat="46.55555" lon="4.84451">
        <ele>285</ele>
        <time>2026-03-29T10:21:35.000Z</time>
      </trkpt>
      <trkpt lat="46.55557" lon="4.84438">
        <ele>287</ele>
        <time>2026-03-29T10:21:39.000Z</time>
      </trkpt>
      <trkpt lat="46.55558" lon="4.84425">
        <ele>287</ele>
        <time>2026-03-29T10:21:43.000Z</time>
      </trkpt>
      <trkpt lat="46.55555" lon="4.84412">
        <ele>288</ele>
        <time>2026-03-29T10:21:47.000Z</time>
      </trkpt>
      <trkpt lat="46.55551" lon="4.84397">
        <ele>289</ele>
        <time>2026-03-29T10:21:55.000Z</time>
      </trkpt>
      <trkpt lat="46.55546" lon="4.84387">
        <ele>289</ele>
        <time>2026-03-29T10:22:02.000Z</time>
      </trkpt>
      <trkpt lat="46.55542" lon="4.84376">
        <ele>290</ele>
        <time>2026-03-29T10:22:09.000Z</time>
      </trkpt>
      <trkpt lat="46.55538" lon="4.84362">
        <ele>291</ele>
        <time>2026-03-29T10:22:17.000Z</time>
      </trkpt>
      <trkpt lat="46.55535" lon="4.84349">
        <ele>292</ele>
        <time>2026-03-29T10:22:25.000Z</time>
      </trkpt>
      <trkpt lat="46.55531" lon="4.84337">
        <ele>293</ele>
        <time>2026-03-29T10:22:32.000Z</time>
      </trkpt>
      <trkpt lat="46.55525" lon="4.84329">
        <ele>293</ele>
        <time>2026-03-29T10:22:40.000Z</time>
      </trkpt>
      <trkpt lat="46.55524" lon="4.84316">
        <ele>294</ele>
        <time>2026-03-29T10:22:47.000Z</time>
      </trkpt>
      <trkpt lat="46.55526" lon="4.84302">
        <ele>295</ele>
        <time>2026-03-29T10:22:54.000Z</time>
      </trkpt>
      <trkpt lat="46.55526" lon="4.84287">
        <ele>296</ele>
        <time>2026-03-29T10:23:02.000Z</time>
      </trkpt>
      <trkpt lat="46.55523" lon="4.8427">
        <ele>298</ele>
        <time>2026-03-29T10:23:11.000Z</time>
      </trkpt>
      <trkpt lat="46.5552" lon="4.84255">
        <ele>299</ele>
        <time>2026-03-29T10:23:18.000Z</time>
      </trkpt>
      <trkpt lat="46.55516" lon="4.84239">
        <ele>301</ele>
        <time>2026-03-29T10:23:25.000Z</time>
      </trkpt>
      <trkpt lat="46.55511" lon="4.84224">
        <ele>302</ele>
        <time>2026-03-29T10:23:32.000Z</time>
      </trkpt>
      <trkpt lat="46.55507" lon="4.84211">
        <ele>303</ele>
        <time>2026-03-29T10:23:38.000Z</time>
      </trkpt>
      <trkpt lat="46.55503" lon="4.84198">
        <ele>304</ele>
        <time>2026-03-29T10:23:44.000Z</time>
      </trkpt>
      <trkpt lat="46.555" lon="4.84184">
        <ele>305</ele>
        <time>2026-03-29T10:23:59.000Z</time>
      </trkpt>
      <trkpt lat="46.55501" lon="4.8417">
        <ele>306</ele>
        <time>2026-03-29T10:24:07.000Z</time>
      </trkpt>
      <trkpt lat="46.55502" lon="4.84157">
        <ele>308</ele>
        <time>2026-03-29T10:24:18.000Z</time>
      </trkpt>
      <trkpt lat="46.55499" lon="4.84148">
        <ele>308</ele>
        <time>2026-03-29T10:24:26.000Z</time>
      </trkpt>
      <trkpt lat="46.55494" lon="4.84157">
        <ele>307</ele>
        <time>2026-03-29T10:24:33.000Z</time>
      </trkpt>
      <trkpt lat="46.55489" lon="4.84147">
        <ele>308</ele>
        <time>2026-03-29T10:24:39.000Z</time>
      </trkpt>
      <trkpt lat="46.55485" lon="4.84136">
        <ele>310</ele>
        <time>2026-03-29T10:25:05.000Z</time>
      </trkpt>
      <trkpt lat="46.55484" lon="4.84123">
        <ele>312</ele>
        <time>2026-03-29T10:25:18.000Z</time>
      </trkpt>
      <trkpt lat="46.55488" lon="4.84112">
        <ele>313</ele>
        <time>2026-03-29T10:25:29.000Z</time>
      </trkpt>
      <trkpt lat="46.55494" lon="4.84102">
        <ele>314</ele>
        <time>2026-03-29T10:25:38.000Z</time>
      </trkpt>
      <trkpt lat="46.55502" lon="4.84095">
        <ele>315</ele>
        <time>2026-03-29T10:25:47.000Z</time>
      </trkpt>
      <trkpt lat="46.55509" lon="4.84087">
        <ele>315</ele>
        <time>2026-03-29T10:25:55.000Z</time>
      </trkpt>
      <trkpt lat="46.55513" lon="4.84073">
        <ele>317</ele>
        <time>2026-03-29T10:26:04.000Z</time>
      </trkpt>
      <trkpt lat="46.55518" lon="4.8406">
        <ele>318</ele>
        <time>2026-03-29T10:26:14.000Z</time>
      </trkpt>
      <trkpt lat="46.55525" lon="4.84052">
        <ele>319</ele>
        <time>2026-03-29T10:26:24.000Z</time>
      </trkpt>
      <trkpt lat="46.55531" lon="4.8404">
        <ele>318</ele>
        <time>2026-03-29T10:26:53.000Z</time>
      </trkpt>
      <trkpt lat="46.5554" lon="4.84031">
        <ele>318</ele>
        <time>2026-03-29T10:26:59.000Z</time>
      </trkpt>
      <trkpt lat="46.55548" lon="4.84023">
        <ele>318</ele>
        <time>2026-03-29T10:27:05.000Z</time>
      </trkpt>
      <trkpt lat="46.55555" lon="4.84011">
        <ele>318</ele>
        <time>2026-03-29T10:27:10.000Z</time>
      </trkpt>
      <trkpt lat="46.55563" lon="4.84">
        <ele>318</ele>
        <time>2026-03-29T10:27:16.000Z</time>
      </trkpt>
      <trkpt lat="46.5557" lon="4.83989">
        <ele>319</ele>
        <time>2026-03-29T10:27:22.000Z</time>
      </trkpt>
      <trkpt lat="46.55578" lon="4.83978">
        <ele>318</ele>
        <time>2026-03-29T10:27:31.000Z</time>
      </trkpt>
      <trkpt lat="46.55583" lon="4.83968">
        <ele>318</ele>
        <time>2026-03-29T10:27:37.000Z</time>
      </trkpt>
      <trkpt lat="46.5558" lon="4.83955">
        <ele>318</ele>
        <time>2026-03-29T10:27:44.000Z</time>
      </trkpt>
      <trkpt lat="46.55572" lon="4.83957">
        <ele>320</ele>
        <time>2026-03-29T10:28:01.000Z</time>
      </trkpt>
      <trkpt lat="46.55562" lon="4.8396">
        <ele>320</ele>
        <time>2026-03-29T10:28:08.000Z</time>
      </trkpt>
      <trkpt lat="46.55553" lon="4.8396">
        <ele>320</ele>
        <time>2026-03-29T10:28:17.000Z</time>
      </trkpt>
      <trkpt lat="46.55549" lon="4.83948">
        <ele>322</ele>
        <time>2026-03-29T10:28:24.000Z</time>
      </trkpt>
      <trkpt lat="46.55545" lon="4.83936">
        <ele>322</ele>
        <time>2026-03-29T10:28:36.000Z</time>
      </trkpt>
      <trkpt lat="46.55541" lon="4.83923">
        <ele>323</ele>
        <time>2026-03-29T10:28:47.000Z</time>
      </trkpt>
      <trkpt lat="46.55536" lon="4.83911">
        <ele>324</ele>
        <time>2026-03-29T10:28:55.000Z</time>
      </trkpt>
      <trkpt lat="46.55532" lon="4.83899">
        <ele>324</ele>
        <time>2026-03-29T10:29:02.000Z</time>
      </trkpt>
      <trkpt lat="46.55526" lon="4.83887">
        <ele>325</ele>
        <time>2026-03-29T10:29:10.000Z</time>
      </trkpt>
      <trkpt lat="46.55521" lon="4.83876">
        <ele>325</ele>
        <time>2026-03-29T10:29:17.000Z</time>
      </trkpt>
      <trkpt lat="46.55517" lon="4.83864">
        <ele>325</ele>
        <time>2026-03-29T10:29:24.000Z</time>
      </trkpt>
      <trkpt lat="46.55512" lon="4.8385">
        <ele>326</ele>
        <time>2026-03-29T10:29:33.000Z</time>
      </trkpt>
      <trkpt lat="46.5551" lon="4.83837">
        <ele>326</ele>
        <time>2026-03-29T10:29:44.000Z</time>
      </trkpt>
      <trkpt lat="46.55514" lon="4.83825">
        <ele>325</ele>
        <time>2026-03-29T10:29:50.000Z</time>
      </trkpt>
      <trkpt lat="46.55518" lon="4.83814">
        <ele>326</ele>
        <time>2026-03-29T10:29:57.000Z</time>
      </trkpt>
      <trkpt lat="46.5552" lon="4.83802">
        <ele>326</ele>
        <time>2026-03-29T10:30:03.000Z</time>
      </trkpt>
      <trkpt lat="46.55523" lon="4.83788">
        <ele>326</ele>
        <time>2026-03-29T10:30:12.000Z</time>
      </trkpt>
      <trkpt lat="46.55526" lon="4.83773">
        <ele>326</ele>
        <time>2026-03-29T10:30:21.000Z</time>
      </trkpt>
      <trkpt lat="46.55526" lon="4.8376">
        <ele>326</ele>
        <time>2026-03-29T10:30:27.000Z</time>
      </trkpt>
      <trkpt lat="46.55524" lon="4.83748">
        <ele>327</ele>
        <time>2026-03-29T10:30:43.000Z</time>
      </trkpt>
      <trkpt lat="46.55528" lon="4.83734">
        <ele>327</ele>
        <time>2026-03-29T10:30:50.000Z</time>
      </trkpt>
      <trkpt lat="46.55532" lon="4.8372">
        <ele>327</ele>
        <time>2026-03-29T10:30:59.000Z</time>
      </trkpt>
      <trkpt lat="46.55534" lon="4.83706">
        <ele>328</ele>
        <time>2026-03-29T10:31:07.000Z</time>
      </trkpt>
      <trkpt lat="46.55535" lon="4.83691">
        <ele>329</ele>
        <time>2026-03-29T10:31:16.000Z</time>
      </trkpt>
      <trkpt lat="46.55532" lon="4.83678">
        <ele>329</ele>
        <time>2026-03-29T10:31:24.000Z</time>
      </trkpt>
      <trkpt lat="46.55524" lon="4.83669">
        <ele>329</ele>
        <time>2026-03-29T10:31:33.000Z</time>
      </trkpt>
      <trkpt lat="46.55519" lon="4.83656">
        <ele>330</ele>
        <time>2026-03-29T10:31:41.000Z</time>
      </trkpt>
      <trkpt lat="46.5552" lon="4.83641">
        <ele>330</ele>
        <time>2026-03-29T10:31:50.000Z</time>
      </trkpt>
      <trkpt lat="46.55518" lon="4.83627">
        <ele>330</ele>
        <time>2026-03-29T10:31:58.000Z</time>
      </trkpt>
      <trkpt lat="46.55512" lon="4.83615">
        <ele>330</ele>
        <time>2026-03-29T10:32:09.000Z</time>
      </trkpt>
      <trkpt lat="46.55504" lon="4.83607">
        <ele>330</ele>
        <time>2026-03-29T10:32:17.000Z</time>
      </trkpt>
      <trkpt lat="46.55495" lon="4.83601">
        <ele>331</ele>
        <time>2026-03-29T10:32:25.000Z</time>
      </trkpt>
      <trkpt lat="46.55487" lon="4.83592">
        <ele>332</ele>
        <time>2026-03-29T10:32:34.000Z</time>
      </trkpt>
      <trkpt lat="46.55478" lon="4.83584">
        <ele>332</ele>
        <time>2026-03-29T10:32:42.000Z</time>
      </trkpt>
      <trkpt lat="46.55468" lon="4.83577">
        <ele>333</ele>
        <time>2026-03-29T10:32:51.000Z</time>
      </trkpt>
      <trkpt lat="46.55459" lon="4.8357">
        <ele>333</ele>
        <time>2026-03-29T10:32:58.000Z</time>
      </trkpt>
      <trkpt lat="46.5545" lon="4.83561">
        <ele>334</ele>
        <time>2026-03-29T10:33:05.000Z</time>
      </trkpt>
      <trkpt lat="46.55441" lon="4.83554">
        <ele>335</ele>
        <time>2026-03-29T10:33:14.000Z</time>
      </trkpt>
      <trkpt lat="46.55433" lon="4.83549">
        <ele>335</ele>
        <time>2026-03-29T10:33:21.000Z</time>
      </trkpt>
      <trkpt lat="46.55424" lon="4.83544">
        <ele>336</ele>
        <time>2026-03-29T10:33:27.000Z</time>
      </trkpt>
      <trkpt lat="46.55416" lon="4.83539">
        <ele>337</ele>
        <time>2026-03-29T10:33:34.000Z</time>
      </trkpt>
      <trkpt lat="46.55407" lon="4.83534">
        <ele>337</ele>
        <time>2026-03-29T10:33:42.000Z</time>
      </trkpt>
      <trkpt lat="46.55397" lon="4.83527">
        <ele>338</ele>
        <time>2026-03-29T10:33:52.000Z</time>
      </trkpt>
      <trkpt lat="46.55388" lon="4.83521">
        <ele>339</ele>
        <time>2026-03-29T10:34:00.000Z</time>
      </trkpt>
      <trkpt lat="46.5538" lon="4.83513">
        <ele>339</ele>
        <time>2026-03-29T10:34:08.000Z</time>
      </trkpt>
      <trkpt lat="46.55373" lon="4.83502">
        <ele>340</ele>
        <time>2026-03-29T10:34:16.000Z</time>
      </trkpt>
      <trkpt lat="46.55369" lon="4.83489">
        <ele>342</ele>
        <time>2026-03-29T10:34:23.000Z</time>
      </trkpt>
      <trkpt lat="46.55363" lon="4.83477">
        <ele>343</ele>
        <time>2026-03-29T10:34:32.000Z</time>
      </trkpt>
      <trkpt lat="46.55356" lon="4.83467">
        <ele>343</ele>
        <time>2026-03-29T10:34:40.000Z</time>
      </trkpt>
      <trkpt lat="46.55348" lon="4.83457">
        <ele>344</ele>
        <time>2026-03-29T10:34:49.000Z</time>
      </trkpt>
      <trkpt lat="46.55341" lon="4.83446">
        <ele>344</ele>
        <time>2026-03-29T10:34:58.000Z</time>
      </trkpt>
      <trkpt lat="46.55333" lon="4.83435">
        <ele>344</ele>
        <time>2026-03-29T10:35:07.000Z</time>
      </trkpt>
      <trkpt lat="46.55323" lon="4.83426">
        <ele>345</ele>
        <time>2026-03-29T10:35:16.000Z</time>
      </trkpt>
      <trkpt lat="46.55315" lon="4.83418">
        <ele>345</ele>
        <time>2026-03-29T10:35:43.000Z</time>
      </trkpt>
      <trkpt lat="46.55309" lon="4.83407">
        <ele>345</ele>
        <time>2026-03-29T10:35:50.000Z</time>
      </trkpt>
      <trkpt lat="46.55301" lon="4.83398">
        <ele>345</ele>
        <time>2026-03-29T10:35:56.000Z</time>
      </trkpt>
      <trkpt lat="46.55293" lon="4.8339">
        <ele>346</ele>
        <time>2026-03-29T10:36:03.000Z</time>
      </trkpt>
      <trkpt lat="46.55286" lon="4.83381">
        <ele>346</ele>
        <time>2026-03-29T10:36:10.000Z</time>
      </trkpt>
      <trkpt lat="46.5528" lon="4.83371">
        <ele>346</ele>
        <time>2026-03-29T10:36:17.000Z</time>
      </trkpt>
      <trkpt lat="46.55271" lon="4.83365">
        <ele>346</ele>
        <time>2026-03-29T10:36:23.000Z</time>
      </trkpt>
      <trkpt lat="46.55262" lon="4.83357">
        <ele>347</ele>
        <time>2026-03-29T10:36:31.000Z</time>
      </trkpt>
      <trkpt lat="46.55255" lon="4.83349">
        <ele>347</ele>
        <time>2026-03-29T10:36:38.000Z</time>
      </trkpt>
      <trkpt lat="46.55248" lon="4.83341">
        <ele>347</ele>
        <time>2026-03-29T10:36:45.000Z</time>
      </trkpt>
      <trkpt lat="46.55241" lon="4.83331">
        <ele>347</ele>
        <time>2026-03-29T10:36:53.000Z</time>
      </trkpt>
      <trkpt lat="46.55233" lon="4.83323">
        <ele>347</ele>
        <time>2026-03-29T10:37:01.000Z</time>
      </trkpt>
      <trkpt lat="46.55226" lon="4.83312">
        <ele>347</ele>
        <time>2026-03-29T10:37:10.000Z</time>
      </trkpt>
      <trkpt lat="46.55219" lon="4.833">
        <ele>347</ele>
        <time>2026-03-29T10:37:20.000Z</time>
      </trkpt>
      <trkpt lat="46.55212" lon="4.83288">
        <ele>347</ele>
        <time>2026-03-29T10:37:29.000Z</time>
      </trkpt>
      <trkpt lat="46.55206" lon="4.83277">
        <ele>347</ele>
        <time>2026-03-29T10:37:35.000Z</time>
      </trkpt>
      <trkpt lat="46.552" lon="4.83266">
        <ele>346</ele>
        <time>2026-03-29T10:37:41.000Z</time>
      </trkpt>
      <trkpt lat="46.55193" lon="4.83254">
        <ele>347</ele>
        <time>2026-03-29T10:37:49.000Z</time>
      </trkpt>
      <trkpt lat="46.55186" lon="4.83244">
        <ele>346</ele>
        <time>2026-03-29T10:37:58.000Z</time>
      </trkpt>
      <trkpt lat="46.55177" lon="4.83235">
        <ele>347</ele>
        <time>2026-03-29T10:38:06.000Z</time>
      </trkpt>
      <trkpt lat="46.55169" lon="4.83228">
        <ele>347</ele>
        <time>2026-03-29T10:38:12.000Z</time>
      </trkpt>
      <trkpt lat="46.5516" lon="4.83225">
        <ele>348</ele>
        <time>2026-03-29T10:38:20.000Z</time>
      </trkpt>
      <trkpt lat="46.55151" lon="4.83219">
        <ele>348</ele>
        <time>2026-03-29T10:38:27.000Z</time>
      </trkpt>
      <trkpt lat="46.55142" lon="4.83211">
        <ele>348</ele>
        <time>2026-03-29T10:38:35.000Z</time>
      </trkpt>
      <trkpt lat="46.55133" lon="4.83203">
        <ele>347</ele>
        <time>2026-03-29T10:38:44.000Z</time>
      </trkpt>
      <trkpt lat="46.55125" lon="4.83195">
        <ele>347</ele>
        <time>2026-03-29T10:38:52.000Z</time>
      </trkpt>
      <trkpt lat="46.55116" lon="4.83187">
        <ele>348</ele>
        <time>2026-03-29T10:39:01.000Z</time>
      </trkpt>
      <trkpt lat="46.55107" lon="4.8318">
        <ele>347</ele>
        <time>2026-03-29T10:39:09.000Z</time>
      </trkpt>
      <trkpt lat="46.55097" lon="4.8318">
        <ele>347</ele>
        <time>2026-03-29T10:39:18.000Z</time>
      </trkpt>
      <trkpt lat="46.55089" lon="4.83176">
        <ele>347</ele>
        <time>2026-03-29T10:39:25.000Z</time>
      </trkpt>
      <trkpt lat="46.55082" lon="4.83165">
        <ele>346</ele>
        <time>2026-03-29T10:39:32.000Z</time>
      </trkpt>
      <trkpt lat="46.55079" lon="4.83153">
        <ele>346</ele>
        <time>2026-03-29T10:39:38.000Z</time>
      </trkpt>
      <trkpt lat="46.55076" lon="4.8314">
        <ele>345</ele>
        <time>2026-03-29T10:39:44.000Z</time>
      </trkpt>
      <trkpt lat="46.5507" lon="4.83128">
        <ele>345</ele>
        <time>2026-03-29T10:39:53.000Z</time>
      </trkpt>
      <trkpt lat="46.55061" lon="4.83121">
        <ele>345</ele>
        <time>2026-03-29T10:40:01.000Z</time>
      </trkpt>
      <trkpt lat="46.55052" lon="4.83118">
        <ele>345</ele>
        <time>2026-03-29T10:40:08.000Z</time>
      </trkpt>
      <trkpt lat="46.55043" lon="4.83113">
        <ele>345</ele>
        <time>2026-03-29T10:40:16.000Z</time>
      </trkpt>
      <trkpt lat="46.55034" lon="4.83108">
        <ele>345</ele>
        <time>2026-03-29T10:40:24.000Z</time>
      </trkpt>
      <trkpt lat="46.55025" lon="4.83104">
        <ele>345</ele>
        <time>2026-03-29T10:40:32.000Z</time>
      </trkpt>
      <trkpt lat="46.55017" lon="4.83095">
        <ele>345</ele>
        <time>2026-03-29T10:40:41.000Z</time>
      </trkpt>
      <trkpt lat="46.55009" lon="4.83088">
        <ele>345</ele>
        <time>2026-03-29T10:40:49.000Z</time>
      </trkpt>
      <trkpt lat="46.55001" lon="4.8308">
        <ele>344</ele>
        <time>2026-03-29T10:40:58.000Z</time>
      </trkpt>
      <trkpt lat="46.54995" lon="4.83073">
        <ele>344</ele>
        <time>2026-03-29T10:41:06.000Z</time>
      </trkpt>
      <trkpt lat="46.55" lon="4.83064">
        <ele>343</ele>
        <time>2026-03-29T10:41:43.000Z</time>
      </trkpt>
      <trkpt lat="46.55004" lon="4.83052">
        <ele>343</ele>
        <time>2026-03-29T10:41:51.000Z</time>
      </trkpt>
      <trkpt lat="46.5501" lon="4.83041">
        <ele>342</ele>
        <time>2026-03-29T10:42:00.000Z</time>
      </trkpt>
      <trkpt lat="46.55017" lon="4.83032">
        <ele>340</ele>
        <time>2026-03-29T10:42:06.000Z</time>
      </trkpt>
      <trkpt lat="46.55026" lon="4.83021">
        <ele>338</ele>
        <time>2026-03-29T10:42:24.000Z</time>
      </trkpt>
      <trkpt lat="46.55033" lon="4.8301">
        <ele>336</ele>
        <time>2026-03-29T10:42:34.000Z</time>
      </trkpt>
      <trkpt lat="46.55042" lon="4.83004">
        <ele>334</ele>
        <time>2026-03-29T10:42:43.000Z</time>
      </trkpt>
      <trkpt lat="46.55051" lon="4.83007">
        <ele>333</ele>
        <time>2026-03-29T10:42:52.000Z</time>
      </trkpt>
      <trkpt lat="46.55061" lon="4.83003">
        <ele>330</ele>
        <time>2026-03-29T10:43:45.000Z</time>
      </trkpt>
      <trkpt lat="46.5507" lon="4.82999">
        <ele>327</ele>
        <time>2026-03-29T10:43:51.000Z</time>
      </trkpt>
      <trkpt lat="46.5508" lon="4.82999">
        <ele>324</ele>
        <time>2026-03-29T10:43:59.000Z</time>
      </trkpt>
      <trkpt lat="46.5509" lon="4.82999">
        <ele>322</ele>
        <time>2026-03-29T10:44:07.000Z</time>
      </trkpt>
      <trkpt lat="46.55099" lon="4.83">
        <ele>318</ele>
        <time>2026-03-29T10:44:18.000Z</time>
      </trkpt>
      <trkpt lat="46.55108" lon="4.83006">
        <ele>317</ele>
        <time>2026-03-29T10:44:26.000Z</time>
      </trkpt>
      <trkpt lat="46.55117" lon="4.83009">
        <ele>313</ele>
        <time>2026-03-29T10:44:34.000Z</time>
      </trkpt>
      <trkpt lat="46.55127" lon="4.83012">
        <ele>310</ele>
        <time>2026-03-29T10:44:43.000Z</time>
      </trkpt>
      <trkpt lat="46.55136" lon="4.83017">
        <ele>310</ele>
        <time>2026-03-29T10:44:49.000Z</time>
      </trkpt>
      <trkpt lat="46.55145" lon="4.83021">
        <ele>306</ele>
        <time>2026-03-29T10:44:57.000Z</time>
      </trkpt>
      <trkpt lat="46.55155" lon="4.83027">
        <ele>306</ele>
        <time>2026-03-29T10:45:10.000Z</time>
      </trkpt>
      <trkpt lat="46.55163" lon="4.83032">
        <ele>303</ele>
        <time>2026-03-29T10:45:20.000Z</time>
      </trkpt>
      <trkpt lat="46.55173" lon="4.83036">
        <ele>302</ele>
        <time>2026-03-29T10:45:28.000Z</time>
      </trkpt>
      <trkpt lat="46.55183" lon="4.83038">
        <ele>298</ele>
        <time>2026-03-29T10:45:40.000Z</time>
      </trkpt>
      <trkpt lat="46.55193" lon="4.83041">
        <ele>297</ele>
        <time>2026-03-29T10:45:51.000Z</time>
      </trkpt>
      <trkpt lat="46.55202" lon="4.83046">
        <ele>293</ele>
        <time>2026-03-29T10:46:01.000Z</time>
      </trkpt>
      <trkpt lat="46.5521" lon="4.83053">
        <ele>291</ele>
        <time>2026-03-29T10:46:11.000Z</time>
      </trkpt>
      <trkpt lat="46.5522" lon="4.83057">
        <ele>290</ele>
        <time>2026-03-29T10:46:21.000Z</time>
      </trkpt>
      <trkpt lat="46.55229" lon="4.83061">
        <ele>289</ele>
        <time>2026-03-29T10:46:32.000Z</time>
      </trkpt>
      <trkpt lat="46.55239" lon="4.83067">
        <ele>286</ele>
        <time>2026-03-29T10:46:43.000Z</time>
      </trkpt>
      <trkpt lat="46.55247" lon="4.83071">
        <ele>285</ele>
        <time>2026-03-29T10:47:00.000Z</time>
      </trkpt>
      <trkpt lat="46.55256" lon="4.83069">
        <ele>284</ele>
        <time>2026-03-29T10:47:16.000Z</time>
      </trkpt>
      <trkpt lat="46.55266" lon="4.83067">
        <ele>282</ele>
        <time>2026-03-29T10:47:28.000Z</time>
      </trkpt>
      <trkpt lat="46.55273" lon="4.83057">
        <ele>280</ele>
        <time>2026-03-29T10:47:37.000Z</time>
      </trkpt>
      <trkpt lat="46.55284" lon="4.83052">
        <ele>278</ele>
        <time>2026-03-29T10:47:57.000Z</time>
      </trkpt>
      <trkpt lat="46.55292" lon="4.8304">
        <ele>277</ele>
        <time>2026-03-29T10:48:03.000Z</time>
      </trkpt>
      <trkpt lat="46.55298" lon="4.83026">
        <ele>275</ele>
        <time>2026-03-29T10:48:11.000Z</time>
      </trkpt>
      <trkpt lat="46.55304" lon="4.83008">
        <ele>273</ele>
        <time>2026-03-29T10:48:19.000Z</time>
      </trkpt>
      <trkpt lat="46.55309" lon="4.82995">
        <ele>271</ele>
        <time>2026-03-29T10:48:29.000Z</time>
      </trkpt>
      <trkpt lat="46.55312" lon="4.8298">
        <ele>269</ele>
        <time>2026-03-29T10:48:37.000Z</time>
      </trkpt>
      <trkpt lat="46.55313" lon="4.82966">
        <ele>268</ele>
        <time>2026-03-29T10:48:46.000Z</time>
      </trkpt>
      <trkpt lat="46.55309" lon="4.82951">
        <ele>266</ele>
        <time>2026-03-29T10:48:54.000Z</time>
      </trkpt>
      <trkpt lat="46.55309" lon="4.82939">
        <ele>266</ele>
        <time>2026-03-29T10:49:02.000Z</time>
      </trkpt>
      <trkpt lat="46.55317" lon="4.82932">
        <ele>264</ele>
        <time>2026-03-29T10:49:09.000Z</time>
      </trkpt>
      <trkpt lat="46.55325" lon="4.82926">
        <ele>262</ele>
        <time>2026-03-29T10:49:15.000Z</time>
      </trkpt>
      <trkpt lat="46.55332" lon="4.82916">
        <ele>261</ele>
        <time>2026-03-29T10:49:23.000Z</time>
      </trkpt>
      <trkpt lat="46.55336" lon="4.82904">
        <ele>260</ele>
        <time>2026-03-29T10:49:31.000Z</time>
      </trkpt>
      <trkpt lat="46.55339" lon="4.8289">
        <ele>259</ele>
        <time>2026-03-29T10:49:40.000Z</time>
      </trkpt>
      <trkpt lat="46.55344" lon="4.82877">
        <ele>259</ele>
        <time>2026-03-29T10:49:50.000Z</time>
      </trkpt>
      <trkpt lat="46.55349" lon="4.82867">
        <ele>257</ele>
        <time>2026-03-29T10:50:01.000Z</time>
      </trkpt>
      <trkpt lat="46.55343" lon="4.8285">
        <ele>258</ele>
        <time>2026-03-29T10:50:20.000Z</time>
      </trkpt>
      <trkpt lat="46.55343" lon="4.82837">
        <ele>258</ele>
        <time>2026-03-29T10:50:48.000Z</time>
      </trkpt>
      <trkpt lat="46.55351" lon="4.82827">
        <ele>257</ele>
        <time>2026-03-29T10:50:59.000Z</time>
      </trkpt>
      <trkpt lat="46.5536" lon="4.82819">
        <ele>259</ele>
        <time>2026-03-29T10:51:05.000Z</time>
      </trkpt>
      <trkpt lat="46.55367" lon="4.82812">
        <ele>260</ele>
        <time>2026-03-29T10:51:11.000Z</time>
      </trkpt>
      <trkpt lat="46.55376" lon="4.82804">
        <ele>260</ele>
        <time>2026-03-29T10:51:18.000Z</time>
      </trkpt>
      <trkpt lat="46.55385" lon="4.828">
        <ele>261</ele>
        <time>2026-03-29T10:51:26.000Z</time>
      </trkpt>
      <trkpt lat="46.55393" lon="4.82794">
        <ele>261</ele>
        <time>2026-03-29T10:51:32.000Z</time>
      </trkpt>
      <trkpt lat="46.55402" lon="4.82792">
        <ele>262</ele>
        <time>2026-03-29T10:51:41.000Z</time>
      </trkpt>
      <trkpt lat="46.55411" lon="4.82787">
        <ele>262</ele>
        <time>2026-03-29T10:51:49.000Z</time>
      </trkpt>
      <trkpt lat="46.55417" lon="4.8278">
        <ele>262</ele>
        <time>2026-03-29T10:51:56.000Z</time>
      </trkpt>
      <trkpt lat="46.55421" lon="4.82765">
        <ele>261</ele>
        <time>2026-03-29T10:52:06.000Z</time>
      </trkpt>
      <trkpt lat="46.55425" lon="4.82752">
        <ele>262</ele>
        <time>2026-03-29T10:52:13.000Z</time>
      </trkpt>
      <trkpt lat="46.55429" lon="4.82736">
        <ele>261</ele>
        <time>2026-03-29T10:52:38.000Z</time>
      </trkpt>
      <trkpt lat="46.55436" lon="4.82725">
        <ele>261</ele>
        <time>2026-03-29T10:52:44.000Z</time>
      </trkpt>
      <trkpt lat="46.55443" lon="4.82716">
        <ele>261</ele>
        <time>2026-03-29T10:52:50.000Z</time>
      </trkpt>
      <trkpt lat="46.5545" lon="4.82706">
        <ele>263</ele>
        <time>2026-03-29T10:53:00.000Z</time>
      </trkpt>
      <trkpt lat="46.55454" lon="4.82695">
        <ele>263</ele>
        <time>2026-03-29T10:53:12.000Z</time>
      </trkpt>
      <trkpt lat="46.55457" lon="4.82683">
        <ele>263</ele>
        <time>2026-03-29T10:53:18.000Z</time>
      </trkpt>
      <trkpt lat="46.55457" lon="4.82669">
        <ele>264</ele>
        <time>2026-03-29T10:53:26.000Z</time>
      </trkpt>
      <trkpt lat="46.55455" lon="4.82656">
        <ele>264</ele>
        <time>2026-03-29T10:53:35.000Z</time>
      </trkpt>
      <trkpt lat="46.55454" lon="4.82642">
        <ele>264</ele>
        <time>2026-03-29T10:53:43.000Z</time>
      </trkpt>
      <trkpt lat="46.55454" lon="4.82626">
        <ele>264</ele>
        <time>2026-03-29T10:53:51.000Z</time>
      </trkpt>
      <trkpt lat="46.55456" lon="4.82613">
        <ele>265</ele>
        <time>2026-03-29T10:53:58.000Z</time>
      </trkpt>
      <trkpt lat="46.5546" lon="4.82601">
        <ele>265</ele>
        <time>2026-03-29T10:54:06.000Z</time>
      </trkpt>
      <trkpt lat="46.55466" lon="4.8259">
        <ele>266</ele>
        <time>2026-03-29T10:54:14.000Z</time>
      </trkpt>
      <trkpt lat="46.55474" lon="4.82582">
        <ele>268</ele>
        <time>2026-03-29T10:54:24.000Z</time>
      </trkpt>
      <trkpt lat="46.55474" lon="4.8257">
        <ele>268</ele>
        <time>2026-03-29T10:54:50.000Z</time>
      </trkpt>
      <trkpt lat="46.5548" lon="4.8256">
        <ele>271</ele>
        <time>2026-03-29T10:54:57.000Z</time>
      </trkpt>
      <trkpt lat="46.55487" lon="4.82549">
        <ele>274</ele>
        <time>2026-03-29T10:55:06.000Z</time>
      </trkpt>
      <trkpt lat="46.5549" lon="4.82535">
        <ele>276</ele>
        <time>2026-03-29T10:55:15.000Z</time>
      </trkpt>
      <trkpt lat="46.5549" lon="4.82521">
        <ele>277</ele>
        <time>2026-03-29T10:55:23.000Z</time>
      </trkpt>
      <trkpt lat="46.5549" lon="4.82508">
        <ele>278</ele>
        <time>2026-03-29T10:55:32.000Z</time>
      </trkpt>
      <trkpt lat="46.55488" lon="4.82497">
        <ele>279</ele>
        <time>2026-03-29T10:56:40.000Z</time>
      </trkpt>
      <trkpt lat="46.55493" lon="4.82484">
        <ele>280</ele>
        <time>2026-03-29T10:56:59.000Z</time>
      </trkpt>
      <trkpt lat="46.55501" lon="4.82471">
        <ele>283</ele>
        <time>2026-03-29T10:57:05.000Z</time>
      </trkpt>
      <trkpt lat="46.55507" lon="4.82456">
        <ele>285</ele>
        <time>2026-03-29T10:57:13.000Z</time>
      </trkpt>
      <trkpt lat="46.55513" lon="4.82444">
        <ele>287</ele>
        <time>2026-03-29T10:57:20.000Z</time>
      </trkpt>
      <trkpt lat="46.5552" lon="4.82437">
        <ele>288</ele>
        <time>2026-03-29T10:57:33.000Z</time>
      </trkpt>
      <trkpt lat="46.55528" lon="4.82435">
        <ele>291</ele>
        <time>2026-03-29T10:57:42.000Z</time>
      </trkpt>
      <trkpt lat="46.55534" lon="4.82444">
        <ele>291</ele>
        <time>2026-03-29T10:57:55.000Z</time>
      </trkpt>
      <trkpt lat="46.55543" lon="4.82446">
        <ele>292</ele>
        <time>2026-03-29T10:58:35.000Z</time>
      </trkpt>
      <trkpt lat="46.55551" lon="4.82449">
        <ele>293</ele>
        <time>2026-03-29T10:58:40.000Z</time>
      </trkpt>
      <trkpt lat="46.55559" lon="4.82444">
        <ele>293</ele>
        <time>2026-03-29T10:58:47.000Z</time>
      </trkpt>
      <trkpt lat="46.55564" lon="4.82433">
        <ele>294</ele>
        <time>2026-03-29T10:58:53.000Z</time>
      </trkpt>
      <trkpt lat="46.55567" lon="4.8242">
        <ele>294</ele>
        <time>2026-03-29T10:59:02.000Z</time>
      </trkpt>
      <trkpt lat="46.55565" lon="4.82407">
        <ele>294</ele>
        <time>2026-03-29T10:59:09.000Z</time>
      </trkpt>
      <trkpt lat="46.55562" lon="4.82396">
        <ele>294</ele>
        <time>2026-03-29T10:59:15.000Z</time>
      </trkpt>
      <trkpt lat="46.55556" lon="4.82385">
        <ele>293</ele>
        <time>2026-03-29T10:59:21.000Z</time>
      </trkpt>
      <trkpt lat="46.55554" lon="4.82371">
        <ele>292</ele>
        <time>2026-03-29T10:59:29.000Z</time>
      </trkpt>
      <trkpt lat="46.55552" lon="4.82358">
        <ele>290</ele>
        <time>2026-03-29T10:59:44.000Z</time>
      </trkpt>
      <trkpt lat="46.55547" lon="4.8235">
        <ele>289</ele>
        <time>2026-03-29T10:59:55.000Z</time>
      </trkpt>
      <trkpt lat="46.55554" lon="4.82342">
        <ele>289</ele>
        <time>2026-03-29T11:01:41.000Z</time>
      </trkpt>
      <trkpt lat="46.5556" lon="4.82332">
        <ele>288</ele>
        <time>2026-03-29T11:01:47.000Z</time>
      </trkpt>
      <trkpt lat="46.55568" lon="4.82327">
        <ele>287</ele>
        <time>2026-03-29T11:01:55.000Z</time>
      </trkpt>
      <trkpt lat="46.55572" lon="4.82336">
        <ele>288</ele>
        <time>2026-03-29T11:02:24.000Z</time>
      </trkpt>
      <trkpt lat="46.55568" lon="4.82346">
        <ele>289</ele>
        <time>2026-03-29T11:02:37.000Z</time>
      </trkpt>
      <trkpt lat="46.55569" lon="4.82331">
        <ele>287</ele>
        <time>2026-03-29T11:03:49.000Z</time>
      </trkpt>
      <trkpt lat="46.55569" lon="4.82317">
        <ele>287</ele>
        <time>2026-03-29T11:03:56.000Z</time>
      </trkpt>
      <trkpt lat="46.55563" lon="4.82325">
        <ele>288</ele>
        <time>2026-03-29T11:04:47.000Z</time>
      </trkpt>
      <trkpt lat="46.55555" lon="4.82336">
        <ele>289</ele>
        <time>2026-03-29T11:04:52.000Z</time>
      </trkpt>
      <trkpt lat="46.55549" lon="4.82348">
        <ele>289</ele>
        <time>2026-03-29T11:05:02.000Z</time>
      </trkpt>
      <trkpt lat="46.55548" lon="4.82361">
        <ele>291</ele>
        <time>2026-03-29T11:42:53.000Z</time>
      </trkpt>
      <trkpt lat="46.55553" lon="4.82372">
        <ele>292</ele>
        <time>2026-03-29T11:43:04.000Z</time>
      </trkpt>
      <trkpt lat="46.55557" lon="4.82385">
        <ele>293</ele>
        <time>2026-03-29T11:43:15.000Z</time>
      </trkpt>
      <trkpt lat="46.55557" lon="4.82399">
        <ele>294</ele>
        <time>2026-03-29T11:43:24.000Z</time>
      </trkpt>
      <trkpt lat="46.5556" lon="4.82411">
        <ele>294</ele>
        <time>2026-03-29T11:43:30.000Z</time>
      </trkpt>
      <trkpt lat="46.5556" lon="4.82423">
        <ele>294</ele>
        <time>2026-03-29T11:44:17.000Z</time>
      </trkpt>
      <trkpt lat="46.55564" lon="4.82435">
        <ele>294</ele>
        <time>2026-03-29T11:44:32.000Z</time>
      </trkpt>
      <trkpt lat="46.55565" lon="4.82448">
        <ele>294</ele>
        <time>2026-03-29T11:44:47.000Z</time>
      </trkpt>
      <trkpt lat="46.55571" lon="4.82457">
        <ele>294</ele>
        <time>2026-03-29T11:44:53.000Z</time>
      </trkpt>
      <trkpt lat="46.55579" lon="4.82466">
        <ele>295</ele>
        <time>2026-03-29T11:45:06.000Z</time>
      </trkpt>
      <trkpt lat="46.55589" lon="4.8247">
        <ele>296</ele>
        <time>2026-03-29T11:45:16.000Z</time>
      </trkpt>
      <trkpt lat="46.55599" lon="4.82466">
        <ele>297</ele>
        <time>2026-03-29T11:45:25.000Z</time>
      </trkpt>
      <trkpt lat="46.5561" lon="4.82467">
        <ele>299</ele>
        <time>2026-03-29T11:45:34.000Z</time>
      </trkpt>
      <trkpt lat="46.55618" lon="4.82474">
        <ele>300</ele>
        <time>2026-03-29T11:45:43.000Z</time>
      </trkpt>
      <trkpt lat="46.55625" lon="4.82487">
        <ele>301</ele>
        <time>2026-03-29T11:46:01.000Z</time>
      </trkpt>
      <trkpt lat="46.55633" lon="4.82494">
        <ele>301</ele>
        <time>2026-03-29T11:46:10.000Z</time>
      </trkpt>
      <trkpt lat="46.55643" lon="4.82499">
        <ele>303</ele>
        <time>2026-03-29T11:46:23.000Z</time>
      </trkpt>
      <trkpt lat="46.55653" lon="4.82498">
        <ele>304</ele>
        <time>2026-03-29T11:46:30.000Z</time>
      </trkpt>
      <trkpt lat="46.55663" lon="4.82497">
        <ele>305</ele>
        <time>2026-03-29T11:46:39.000Z</time>
      </trkpt>
      <trkpt lat="46.55674" lon="4.825">
        <ele>306</ele>
        <time>2026-03-29T11:46:47.000Z</time>
      </trkpt>
      <trkpt lat="46.55684" lon="4.82503">
        <ele>307</ele>
        <time>2026-03-29T11:46:56.000Z</time>
      </trkpt>
      <trkpt lat="46.55693" lon="4.82508">
        <ele>307</ele>
        <time>2026-03-29T11:47:04.000Z</time>
      </trkpt>
      <trkpt lat="46.55702" lon="4.82513">
        <ele>307</ele>
        <time>2026-03-29T11:47:13.000Z</time>
      </trkpt>
      <trkpt lat="46.55712" lon="4.82519">
        <ele>308</ele>
        <time>2026-03-29T11:47:22.000Z</time>
      </trkpt>
      <trkpt lat="46.55721" lon="4.82527">
        <ele>309</ele>
        <time>2026-03-29T11:47:32.000Z</time>
      </trkpt>
      <trkpt lat="46.55728" lon="4.82537">
        <ele>310</ele>
        <time>2026-03-29T11:47:41.000Z</time>
      </trkpt>
      <trkpt lat="46.55735" lon="4.82548">
        <ele>311</ele>
        <time>2026-03-29T11:47:53.000Z</time>
      </trkpt>
      <trkpt lat="46.55742" lon="4.82558">
        <ele>311</ele>
        <time>2026-03-29T11:48:16.000Z</time>
      </trkpt>
      <trkpt lat="46.55749" lon="4.82564">
        <ele>311</ele>
        <time>2026-03-29T11:48:26.000Z</time>
      </trkpt>
      <trkpt lat="46.55757" lon="4.82571">
        <ele>311</ele>
        <time>2026-03-29T11:48:32.000Z</time>
      </trkpt>
      <trkpt lat="46.55767" lon="4.82576">
        <ele>312</ele>
        <time>2026-03-29T11:48:39.000Z</time>
      </trkpt>
      <trkpt lat="46.55775" lon="4.82583">
        <ele>312</ele>
        <time>2026-03-29T11:48:45.000Z</time>
      </trkpt>
      <trkpt lat="46.55782" lon="4.82594">
        <ele>312</ele>
        <time>2026-03-29T11:48:51.000Z</time>
      </trkpt>
      <trkpt lat="46.55787" lon="4.82607">
        <ele>311</ele>
        <time>2026-03-29T11:48:58.000Z</time>
      </trkpt>
      <trkpt lat="46.55791" lon="4.82619">
        <ele>310</ele>
        <time>2026-03-29T11:49:04.000Z</time>
      </trkpt>
      <trkpt lat="46.55792" lon="4.82633">
        <ele>310</ele>
        <time>2026-03-29T11:49:36.000Z</time>
      </trkpt>
      <trkpt lat="46.55797" lon="4.82646">
        <ele>309</ele>
        <time>2026-03-29T11:49:43.000Z</time>
      </trkpt>
      <trkpt lat="46.55801" lon="4.82659">
        <ele>307</ele>
        <time>2026-03-29T11:49:54.000Z</time>
      </trkpt>
      <trkpt lat="46.55803" lon="4.82674">
        <ele>305</ele>
        <time>2026-03-29T11:50:33.000Z</time>
      </trkpt>
      <trkpt lat="46.55806" lon="4.82689">
        <ele>303</ele>
        <time>2026-03-29T11:50:45.000Z</time>
      </trkpt>
      <trkpt lat="46.55815" lon="4.82697">
        <ele>304</ele>
        <time>2026-03-29T11:50:54.000Z</time>
      </trkpt>
      <trkpt lat="46.55822" lon="4.82707">
        <ele>303</ele>
        <time>2026-03-29T11:51:05.000Z</time>
      </trkpt>
      <trkpt lat="46.55826" lon="4.82719">
        <ele>302</ele>
        <time>2026-03-29T11:51:13.000Z</time>
      </trkpt>
      <trkpt lat="46.55832" lon="4.82731">
        <ele>301</ele>
        <time>2026-03-29T11:51:21.000Z</time>
      </trkpt>
      <trkpt lat="46.5584" lon="4.8274">
        <ele>300</ele>
        <time>2026-03-29T11:51:30.000Z</time>
      </trkpt>
      <trkpt lat="46.55847" lon="4.82748">
        <ele>300</ele>
        <time>2026-03-29T11:51:42.000Z</time>
      </trkpt>
      <trkpt lat="46.55854" lon="4.82747">
        <ele>300</ele>
        <time>2026-03-29T11:51:52.000Z</time>
      </trkpt>
      <trkpt lat="46.55856" lon="4.82739">
        <ele>301</ele>
        <time>2026-03-29T11:52:24.000Z</time>
      </trkpt>
      <trkpt lat="46.55869" lon="4.82753">
        <ele>301</ele>
        <time>2026-03-29T11:52:32.000Z</time>
      </trkpt>
      <trkpt lat="46.55878" lon="4.82764">
        <ele>301</ele>
        <time>2026-03-29T11:52:38.000Z</time>
      </trkpt>
      <trkpt lat="46.55886" lon="4.82772">
        <ele>301</ele>
        <time>2026-03-29T11:52:44.000Z</time>
      </trkpt>
      <trkpt lat="46.55895" lon="4.82779">
        <ele>301</ele>
        <time>2026-03-29T11:52:52.000Z</time>
      </trkpt>
      <trkpt lat="46.55903" lon="4.82788">
        <ele>300</ele>
        <time>2026-03-29T11:53:01.000Z</time>
      </trkpt>
      <trkpt lat="46.55909" lon="4.82798">
        <ele>299</ele>
        <time>2026-03-29T11:53:10.000Z</time>
      </trkpt>
      <trkpt lat="46.55916" lon="4.82809">
        <ele>299</ele>
        <time>2026-03-29T11:53:23.000Z</time>
      </trkpt>
      <trkpt lat="46.55925" lon="4.82813">
        <ele>299</ele>
        <time>2026-03-29T11:53:30.000Z</time>
      </trkpt>
      <trkpt lat="46.55934" lon="4.82811">
        <ele>301</ele>
        <time>2026-03-29T11:53:38.000Z</time>
      </trkpt>
      <trkpt lat="46.55944" lon="4.82809">
        <ele>302</ele>
        <time>2026-03-29T11:53:46.000Z</time>
      </trkpt>
      <trkpt lat="46.55953" lon="4.8281">
        <ele>302</ele>
        <time>2026-03-29T11:53:55.000Z</time>
      </trkpt>
      <trkpt lat="46.55962" lon="4.82814">
        <ele>303</ele>
        <time>2026-03-29T11:54:04.000Z</time>
      </trkpt>
      <trkpt lat="46.55971" lon="4.82815">
        <ele>303</ele>
        <time>2026-03-29T11:54:13.000Z</time>
      </trkpt>
      <trkpt lat="46.55979" lon="4.82816">
        <ele>303</ele>
        <time>2026-03-29T11:54:20.000Z</time>
      </trkpt>
      <trkpt lat="46.55988" lon="4.82821">
        <ele>303</ele>
        <time>2026-03-29T11:54:28.000Z</time>
      </trkpt>
      <trkpt lat="46.55996" lon="4.82828">
        <ele>302</ele>
        <time>2026-03-29T11:54:37.000Z</time>
      </trkpt>
      <trkpt lat="46.56002" lon="4.82841">
        <ele>301</ele>
        <time>2026-03-29T11:54:48.000Z</time>
      </trkpt>
      <trkpt lat="46.56002" lon="4.82852">
        <ele>300</ele>
        <time>2026-03-29T11:54:55.000Z</time>
      </trkpt>
      <trkpt lat="46.56011" lon="4.82852">
        <ele>301</ele>
        <time>2026-03-29T11:56:43.000Z</time>
      </trkpt>
      <trkpt lat="46.56019" lon="4.82859">
        <ele>300</ele>
        <time>2026-03-29T11:56:52.000Z</time>
      </trkpt>
      <trkpt lat="46.56028" lon="4.82868">
        <ele>299</ele>
        <time>2026-03-29T11:57:13.000Z</time>
      </trkpt>
      <trkpt lat="46.56035" lon="4.82878">
        <ele>299</ele>
        <time>2026-03-29T11:58:03.000Z</time>
      </trkpt>
      <trkpt lat="46.56041" lon="4.82888">
        <ele>298</ele>
        <time>2026-03-29T11:58:09.000Z</time>
      </trkpt>
      <trkpt lat="46.56046" lon="4.829">
        <ele>296</ele>
        <time>2026-03-29T11:58:20.000Z</time>
      </trkpt>
      <trkpt lat="46.56052" lon="4.8291">
        <ele>296</ele>
        <time>2026-03-29T11:59:01.000Z</time>
      </trkpt>
      <trkpt lat="46.56061" lon="4.82915">
        <ele>295</ele>
        <time>2026-03-29T11:59:17.000Z</time>
      </trkpt>
      <trkpt lat="46.5607" lon="4.82925">
        <ele>294</ele>
        <time>2026-03-29T11:59:25.000Z</time>
      </trkpt>
      <trkpt lat="46.56077" lon="4.82936">
        <ele>293</ele>
        <time>2026-03-29T11:59:34.000Z</time>
      </trkpt>
      <trkpt lat="46.56085" lon="4.82944">
        <ele>291</ele>
        <time>2026-03-29T11:59:41.000Z</time>
      </trkpt>
      <trkpt lat="46.56092" lon="4.82955">
        <ele>289</ele>
        <time>2026-03-29T11:59:49.000Z</time>
      </trkpt>
      <trkpt lat="46.56098" lon="4.82968">
        <ele>287</ele>
        <time>2026-03-29T11:59:58.000Z</time>
      </trkpt>
      <trkpt lat="46.56104" lon="4.8298">
        <ele>285</ele>
        <time>2026-03-29T12:00:20.000Z</time>
      </trkpt>
      <trkpt lat="46.56111" lon="4.82986">
        <ele>282</ele>
        <time>2026-03-29T12:00:28.000Z</time>
      </trkpt>
      <trkpt lat="46.56107" lon="4.82996">
        <ele>283</ele>
        <time>2026-03-29T12:01:39.000Z</time>
      </trkpt>
      <trkpt lat="46.56108" lon="4.83011">
        <ele>281</ele>
        <time>2026-03-29T12:01:43.000Z</time>
      </trkpt>
      <trkpt lat="46.56111" lon="4.83025">
        <ele>281</ele>
        <time>2026-03-29T12:01:51.000Z</time>
      </trkpt>
      <trkpt lat="46.56115" lon="4.83037">
        <ele>279</ele>
        <time>2026-03-29T12:02:00.000Z</time>
      </trkpt>
      <trkpt lat="46.56118" lon="4.8305">
        <ele>278</ele>
        <time>2026-03-29T12:02:10.000Z</time>
      </trkpt>
      <trkpt lat="46.56116" lon="4.83063">
        <ele>277</ele>
        <time>2026-03-29T12:02:16.000Z</time>
      </trkpt>
      <trkpt lat="46.56107" lon="4.83066">
        <ele>277</ele>
        <time>2026-03-29T12:02:22.000Z</time>
      </trkpt>
      <trkpt lat="46.56097" lon="4.83067">
        <ele>277</ele>
        <time>2026-03-29T12:02:34.000Z</time>
      </trkpt>
      <trkpt lat="46.56087" lon="4.83064">
        <ele>277</ele>
        <time>2026-03-29T12:02:40.000Z</time>
      </trkpt>
      <trkpt lat="46.56076" lon="4.83065">
        <ele>276</ele>
        <time>2026-03-29T12:02:46.000Z</time>
      </trkpt>
      <trkpt lat="46.56065" lon="4.83064">
        <ele>275</ele>
        <time>2026-03-29T12:03:07.000Z</time>
      </trkpt>
      <trkpt lat="46.56056" lon="4.83064">
        <ele>275</ele>
        <time>2026-03-29T12:03:16.000Z</time>
      </trkpt>
      <trkpt lat="46.56057" lon="4.83075">
        <ele>273</ele>
        <time>2026-03-29T12:03:24.000Z</time>
      </trkpt>
      <trkpt lat="46.56062" lon="4.83086">
        <ele>272</ele>
        <time>2026-03-29T12:03:32.000Z</time>
      </trkpt>
      <trkpt lat="46.56074" lon="4.83088">
        <ele>272</ele>
        <time>2026-03-29T12:03:39.000Z</time>
      </trkpt>
      <trkpt lat="46.56083" lon="4.83089">
        <ele>273</ele>
        <time>2026-03-29T12:03:45.000Z</time>
      </trkpt>
      <trkpt lat="46.56093" lon="4.83094">
        <ele>273</ele>
        <time>2026-03-29T12:03:54.000Z</time>
      </trkpt>
      <trkpt lat="46.56101" lon="4.83103">
        <ele>272</ele>
        <time>2026-03-29T12:04:07.000Z</time>
      </trkpt>
      <trkpt lat="46.56109" lon="4.8311">
        <ele>271</ele>
        <time>2026-03-29T12:04:13.000Z</time>
      </trkpt>
      <trkpt lat="46.56115" lon="4.83119">
        <ele>270</ele>
        <time>2026-03-29T12:04:20.000Z</time>
      </trkpt>
      <trkpt lat="46.56122" lon="4.83128">
        <ele>267</ele>
        <time>2026-03-29T12:04:26.000Z</time>
      </trkpt>
      <trkpt lat="46.56132" lon="4.83134">
        <ele>266</ele>
        <time>2026-03-29T12:04:34.000Z</time>
      </trkpt>
      <trkpt lat="46.56141" lon="4.83135">
        <ele>265</ele>
        <time>2026-03-29T12:04:40.000Z</time>
      </trkpt>
      <trkpt lat="46.56149" lon="4.83138">
        <ele>263</ele>
        <time>2026-03-29T12:04:49.000Z</time>
      </trkpt>
      <trkpt lat="46.56146" lon="4.8315">
        <ele>262</ele>
        <time>2026-03-29T12:05:29.000Z</time>
      </trkpt>
      <trkpt lat="46.56145" lon="4.83163">
        <ele>262</ele>
        <time>2026-03-29T12:05:33.000Z</time>
      </trkpt>
      <trkpt lat="46.56145" lon="4.83176">
        <ele>261</ele>
        <time>2026-03-29T12:05:40.000Z</time>
      </trkpt>
      <trkpt lat="46.56143" lon="4.8319">
        <ele>260</ele>
        <time>2026-03-29T12:05:48.000Z</time>
      </trkpt>
      <trkpt lat="46.56139" lon="4.83204">
        <ele>258</ele>
        <time>2026-03-29T12:05:56.000Z</time>
      </trkpt>
      <trkpt lat="46.56136" lon="4.83216">
        <ele>257</ele>
        <time>2026-03-29T12:06:03.000Z</time>
      </trkpt>
      <trkpt lat="46.56133" lon="4.83229">
        <ele>256</ele>
        <time>2026-03-29T12:06:12.000Z</time>
      </trkpt>
      <trkpt lat="46.56131" lon="4.83244">
        <ele>255</ele>
        <time>2026-03-29T12:06:20.000Z</time>
      </trkpt>
      <trkpt lat="46.56128" lon="4.83258">
        <ele>254</ele>
        <time>2026-03-29T12:06:28.000Z</time>
      </trkpt>
      <trkpt lat="46.56123" lon="4.83272">
        <ele>253</ele>
        <time>2026-03-29T12:06:37.000Z</time>
      </trkpt>
      <trkpt lat="46.56116" lon="4.83283">
        <ele>252</ele>
        <time>2026-03-29T12:06:45.000Z</time>
      </trkpt>
      <trkpt lat="46.56107" lon="4.83292">
        <ele>252</ele>
        <time>2026-03-29T12:06:53.000Z</time>
      </trkpt>
      <trkpt lat="46.56096" lon="4.83294">
        <ele>251</ele>
        <time>2026-03-29T12:07:01.000Z</time>
      </trkpt>
      <trkpt lat="46.56085" lon="4.83291">
        <ele>251</ele>
        <time>2026-03-29T12:07:10.000Z</time>
      </trkpt>
      <trkpt lat="46.56076" lon="4.83287">
        <ele>251</ele>
        <time>2026-03-29T12:07:56.000Z</time>
      </trkpt>
      <trkpt lat="46.56067" lon="4.83279">
        <ele>251</ele>
        <time>2026-03-29T12:08:04.000Z</time>
      </trkpt>
      <trkpt lat="46.56058" lon="4.83272">
        <ele>251</ele>
        <time>2026-03-29T12:08:09.000Z</time>
      </trkpt>
      <trkpt lat="46.56049" lon="4.83265">
        <ele>251</ele>
        <time>2026-03-29T12:08:18.000Z</time>
      </trkpt>
      <trkpt lat="46.5604" lon="4.83261">
        <ele>251</ele>
        <time>2026-03-29T12:08:26.000Z</time>
      </trkpt>
      <trkpt lat="46.56032" lon="4.83264">
        <ele>250</ele>
        <time>2026-03-29T12:08:32.000Z</time>
      </trkpt>
      <trkpt lat="46.56024" lon="4.8327">
        <ele>249</ele>
        <time>2026-03-29T12:08:38.000Z</time>
      </trkpt>
      <trkpt lat="46.56016" lon="4.83276">
        <ele>248</ele>
        <time>2026-03-29T12:08:45.000Z</time>
      </trkpt>
      <trkpt lat="46.5601" lon="4.83286">
        <ele>248</ele>
        <time>2026-03-29T12:08:52.000Z</time>
      </trkpt>
      <trkpt lat="46.56005" lon="4.83297">
        <ele>247</ele>
        <time>2026-03-29T12:09:03.000Z</time>
      </trkpt>
      <trkpt lat="46.55998" lon="4.83301">
        <ele>247</ele>
        <time>2026-03-29T12:09:12.000Z</time>
      </trkpt>
      <trkpt lat="46.55995" lon="4.83312">
        <ele>247</ele>
        <time>2026-03-29T12:11:05.000Z</time>
      </trkpt>
      <trkpt lat="46.55995" lon="4.83325">
        <ele>247</ele>
        <time>2026-03-29T12:11:25.000Z</time>
      </trkpt>
      <trkpt lat="46.55991" lon="4.8334">
        <ele>246</ele>
        <time>2026-03-29T12:11:31.000Z</time>
      </trkpt>
      <trkpt lat="46.55992" lon="4.83355">
        <ele>247</ele>
        <time>2026-03-29T12:11:38.000Z</time>
      </trkpt>
      <trkpt lat="46.55999" lon="4.83363">
        <ele>247</ele>
        <time>2026-03-29T12:11:47.000Z</time>
      </trkpt>
      <trkpt lat="46.56008" lon="4.83366">
        <ele>247</ele>
        <time>2026-03-29T12:11:55.000Z</time>
      </trkpt>
      <trkpt lat="46.56017" lon="4.83368">
        <ele>247</ele>
        <time>2026-03-29T12:12:06.000Z</time>
      </trkpt>
      <trkpt lat="46.56027" lon="4.83371">
        <ele>248</ele>
        <time>2026-03-29T12:12:17.000Z</time>
      </trkpt>
      <trkpt lat="46.56034" lon="4.83369">
        <ele>248</ele>
        <time>2026-03-29T12:12:23.000Z</time>
      </trkpt>
      <trkpt lat="46.56039" lon="4.83377">
        <ele>248</ele>
        <time>2026-03-29T12:12:44.000Z</time>
      </trkpt>
      <trkpt lat="46.56038" lon="4.83388">
        <ele>249</ele>
        <time>2026-03-29T12:12:46.000Z</time>
      </trkpt>
      <trkpt lat="46.56045" lon="4.83395">
        <ele>250</ele>
        <time>2026-03-29T12:12:55.000Z</time>
      </trkpt>
      <trkpt lat="46.56055" lon="4.83393">
        <ele>250</ele>
        <time>2026-03-29T12:13:02.000Z</time>
      </trkpt>
      <trkpt lat="46.56065" lon="4.83387">
        <ele>251</ele>
        <time>2026-03-29T12:13:09.000Z</time>
      </trkpt>
      <trkpt lat="46.56075" lon="4.83384">
        <ele>252</ele>
        <time>2026-03-29T12:13:16.000Z</time>
      </trkpt>
      <trkpt lat="46.56084" lon="4.8338">
        <ele>254</ele>
        <time>2026-03-29T12:13:26.000Z</time>
      </trkpt>
      <trkpt lat="46.56094" lon="4.83378">
        <ele>255</ele>
        <time>2026-03-29T12:13:32.000Z</time>
      </trkpt>
      <trkpt lat="46.56103" lon="4.83378">
        <ele>255</ele>
        <time>2026-03-29T12:13:43.000Z</time>
      </trkpt>
      <trkpt lat="46.56112" lon="4.83378">
        <ele>256</ele>
        <time>2026-03-29T12:13:50.000Z</time>
      </trkpt>
      <trkpt lat="46.56122" lon="4.83376">
        <ele>258</ele>
        <time>2026-03-29T12:13:57.000Z</time>
      </trkpt>
      <trkpt lat="46.56131" lon="4.83372">
        <ele>259</ele>
        <time>2026-03-29T12:14:03.000Z</time>
      </trkpt>
      <trkpt lat="46.5614" lon="4.8337">
        <ele>262</ele>
        <time>2026-03-29T12:14:12.000Z</time>
      </trkpt>
      <trkpt lat="46.5615" lon="4.83368">
        <ele>264</ele>
        <time>2026-03-29T12:14:27.000Z</time>
      </trkpt>
      <trkpt lat="46.5616" lon="4.83371">
        <ele>265</ele>
        <time>2026-03-29T12:14:39.000Z</time>
      </trkpt>
      <trkpt lat="46.56169" lon="4.83373">
        <ele>267</ele>
        <time>2026-03-29T12:14:50.000Z</time>
      </trkpt>
      <trkpt lat="46.56179" lon="4.83375">
        <ele>267</ele>
        <time>2026-03-29T12:15:00.000Z</time>
      </trkpt>
      <trkpt lat="46.56188" lon="4.83375">
        <ele>269</ele>
        <time>2026-03-29T12:15:08.000Z</time>
      </trkpt>
      <trkpt lat="46.56198" lon="4.83378">
        <ele>269</ele>
        <time>2026-03-29T12:15:19.000Z</time>
      </trkpt>
      <trkpt lat="46.56207" lon="4.83381">
        <ele>270</ele>
        <time>2026-03-29T12:15:28.000Z</time>
      </trkpt>
      <trkpt lat="46.56216" lon="4.83383">
        <ele>271</ele>
        <time>2026-03-29T12:15:36.000Z</time>
      </trkpt>
      <trkpt lat="46.56226" lon="4.83387">
        <ele>272</ele>
        <time>2026-03-29T12:20:14.000Z</time>
      </trkpt>
      <trkpt lat="46.56235" lon="4.83392">
        <ele>273</ele>
        <time>2026-03-29T12:20:28.000Z</time>
      </trkpt>
      <trkpt lat="46.56244" lon="4.83395">
        <ele>274</ele>
        <time>2026-03-29T12:20:35.000Z</time>
      </trkpt>
      <trkpt lat="46.56256" lon="4.83396">
        <ele>275</ele>
        <time>2026-03-29T12:20:39.000Z</time>
      </trkpt>
      <trkpt lat="46.56267" lon="4.83397">
        <ele>276</ele>
        <time>2026-03-29T12:20:48.000Z</time>
      </trkpt>
      <trkpt lat="46.56277" lon="4.83397">
        <ele>277</ele>
        <time>2026-03-29T12:20:56.000Z</time>
      </trkpt>
      <trkpt lat="46.56286" lon="4.834">
        <ele>278</ele>
        <time>2026-03-29T12:21:04.000Z</time>
      </trkpt>
      <trkpt lat="46.56297" lon="4.83404">
        <ele>278</ele>
        <time>2026-03-29T12:21:14.000Z</time>
      </trkpt>
      <trkpt lat="46.56307" lon="4.83406">
        <ele>279</ele>
        <time>2026-03-29T12:21:23.000Z</time>
      </trkpt>
      <trkpt lat="46.56318" lon="4.83406">
        <ele>280</ele>
        <time>2026-03-29T12:21:33.000Z</time>
      </trkpt>
      <trkpt lat="46.56327" lon="4.83406">
        <ele>282</ele>
        <time>2026-03-29T12:21:43.000Z</time>
      </trkpt>
      <trkpt lat="46.56336" lon="4.83408">
        <ele>282</ele>
        <time>2026-03-29T12:21:52.000Z</time>
      </trkpt>
      <trkpt lat="46.56345" lon="4.83408">
        <ele>283</ele>
        <time>2026-03-29T12:22:02.000Z</time>
      </trkpt>
      <trkpt lat="46.56355" lon="4.83409">
        <ele>284</ele>
        <time>2026-03-29T12:22:13.000Z</time>
      </trkpt>
      <trkpt lat="46.56365" lon="4.8341">
        <ele>286</ele>
        <time>2026-03-29T12:22:25.000Z</time>
      </trkpt>
      <trkpt lat="46.56374" lon="4.83412">
        <ele>288</ele>
        <time>2026-03-29T12:22:35.000Z</time>
      </trkpt>
      <trkpt lat="46.56383" lon="4.83416">
        <ele>289</ele>
        <time>2026-03-29T12:22:44.000Z</time>
      </trkpt>
      <trkpt lat="46.56393" lon="4.83421">
        <ele>288</ele>
        <time>2026-03-29T12:22:55.000Z</time>
      </trkpt>
      <trkpt lat="46.56403" lon="4.83426">
        <ele>290</ele>
        <time>2026-03-29T12:23:05.000Z</time>
      </trkpt>
      <trkpt lat="46.56413" lon="4.8343">
        <ele>290</ele>
        <time>2026-03-29T12:23:13.000Z</time>
      </trkpt>
      <trkpt lat="46.56422" lon="4.83431">
        <ele>291</ele>
        <time>2026-03-29T12:23:22.000Z</time>
      </trkpt>
      <trkpt lat="46.56431" lon="4.83434">
        <ele>291</ele>
        <time>2026-03-29T12:23:29.000Z</time>
      </trkpt>
      <trkpt lat="46.56441" lon="4.83439">
        <ele>292</ele>
        <time>2026-03-29T12:23:38.000Z</time>
      </trkpt>
      <trkpt lat="46.5645" lon="4.83444">
        <ele>293</ele>
        <time>2026-03-29T12:23:45.000Z</time>
      </trkpt>
      <trkpt lat="46.5646" lon="4.83449">
        <ele>294</ele>
        <time>2026-03-29T12:23:54.000Z</time>
      </trkpt>
      <trkpt lat="46.56469" lon="4.83454">
        <ele>294</ele>
        <time>2026-03-29T12:24:03.000Z</time>
      </trkpt>
      <trkpt lat="46.56479" lon="4.83463">
        <ele>294</ele>
        <time>2026-03-29T12:24:12.000Z</time>
      </trkpt>
      <trkpt lat="46.56485" lon="4.83473">
        <ele>294</ele>
        <time>2026-03-29T12:24:34.000Z</time>
      </trkpt>
      <trkpt lat="46.56488" lon="4.83486">
        <ele>294</ele>
        <time>2026-03-29T12:24:41.000Z</time>
      </trkpt>
      <trkpt lat="46.56495" lon="4.83494">
        <ele>294</ele>
        <time>2026-03-29T12:24:47.000Z</time>
      </trkpt>
      <trkpt lat="46.56502" lon="4.83501">
        <ele>294</ele>
        <time>2026-03-29T12:24:59.000Z</time>
      </trkpt>
      <trkpt lat="46.56511" lon="4.83508">
        <ele>294</ele>
        <time>2026-03-29T12:25:07.000Z</time>
      </trkpt>
      <trkpt lat="46.56521" lon="4.83509">
        <ele>295</ele>
        <time>2026-03-29T12:25:14.000Z</time>
      </trkpt>
      <trkpt lat="46.5653" lon="4.83514">
        <ele>295</ele>
        <time>2026-03-29T12:25:22.000Z</time>
      </trkpt>
      <trkpt lat="46.56538" lon="4.83521">
        <ele>296</ele>
        <time>2026-03-29T12:25:31.000Z</time>
      </trkpt>
      <trkpt lat="46.56546" lon="4.83528">
        <ele>296</ele>
        <time>2026-03-29T12:25:43.000Z</time>
      </trkpt>
      <trkpt lat="46.56554" lon="4.83536">
        <ele>297</ele>
        <time>2026-03-29T12:25:51.000Z</time>
      </trkpt>
      <trkpt lat="46.56562" lon="4.83542">
        <ele>296</ele>
        <time>2026-03-29T12:25:58.000Z</time>
      </trkpt>
      <trkpt lat="46.56571" lon="4.83549">
        <ele>296</ele>
        <time>2026-03-29T12:26:08.000Z</time>
      </trkpt>
      <trkpt lat="46.56578" lon="4.83558">
        <ele>297</ele>
        <time>2026-03-29T12:26:17.000Z</time>
      </trkpt>
      <trkpt lat="46.56584" lon="4.83569">
        <ele>296</ele>
        <time>2026-03-29T12:26:25.000Z</time>
      </trkpt>
      <trkpt lat="46.56589" lon="4.83581">
        <ele>295</ele>
        <time>2026-03-29T12:26:34.000Z</time>
      </trkpt>
      <trkpt lat="46.56597" lon="4.83589">
        <ele>295</ele>
        <time>2026-03-29T12:26:44.000Z</time>
      </trkpt>
      <trkpt lat="46.56605" lon="4.83596">
        <ele>295</ele>
        <time>2026-03-29T12:26:52.000Z</time>
      </trkpt>
      <trkpt lat="46.56613" lon="4.83607">
        <ele>296</ele>
        <time>2026-03-29T12:27:01.000Z</time>
      </trkpt>
      <trkpt lat="46.5662" lon="4.83617">
        <ele>296</ele>
        <time>2026-03-29T12:27:09.000Z</time>
      </trkpt>
      <trkpt lat="46.56628" lon="4.83627">
        <ele>296</ele>
        <time>2026-03-29T12:27:17.000Z</time>
      </trkpt>
      <trkpt lat="46.56634" lon="4.8364">
        <ele>295</ele>
        <time>2026-03-29T12:27:26.000Z</time>
      </trkpt>
      <trkpt lat="46.56641" lon="4.8365">
        <ele>295</ele>
        <time>2026-03-29T12:27:34.000Z</time>
      </trkpt>
      <trkpt lat="46.56649" lon="4.83658">
        <ele>295</ele>
        <time>2026-03-29T12:27:42.000Z</time>
      </trkpt>
      <trkpt lat="46.56658" lon="4.83666">
        <ele>295</ele>
        <time>2026-03-29T12:27:51.000Z</time>
      </trkpt>
      <trkpt lat="46.56668" lon="4.83674">
        <ele>294</ele>
        <time>2026-03-29T12:28:00.000Z</time>
      </trkpt>
      <trkpt lat="46.56676" lon="4.83683">
        <ele>294</ele>
        <time>2026-03-29T12:28:08.000Z</time>
      </trkpt>
      <trkpt lat="46.56683" lon="4.83692">
        <ele>293</ele>
        <time>2026-03-29T12:28:16.000Z</time>
      </trkpt>
      <trkpt lat="46.56692" lon="4.83697">
        <ele>293</ele>
        <time>2026-03-29T12:28:24.000Z</time>
      </trkpt>
      <trkpt lat="46.56701" lon="4.83703">
        <ele>294</ele>
        <time>2026-03-29T12:28:32.000Z</time>
      </trkpt>
      <trkpt lat="46.56709" lon="4.83712">
        <ele>293</ele>
        <time>2026-03-29T12:28:40.000Z</time>
      </trkpt>
      <trkpt lat="46.56717" lon="4.83722">
        <ele>292</ele>
        <time>2026-03-29T12:28:49.000Z</time>
      </trkpt>
      <trkpt lat="46.56725" lon="4.8373">
        <ele>293</ele>
        <time>2026-03-29T12:28:57.000Z</time>
      </trkpt>
      <trkpt lat="46.56734" lon="4.83738">
        <ele>293</ele>
        <time>2026-03-29T12:29:05.000Z</time>
      </trkpt>
      <trkpt lat="46.56743" lon="4.83744">
        <ele>293</ele>
        <time>2026-03-29T12:29:13.000Z</time>
      </trkpt>
      <trkpt lat="46.56752" lon="4.83753">
        <ele>291</ele>
        <time>2026-03-29T12:29:21.000Z</time>
      </trkpt>
      <trkpt lat="46.56759" lon="4.83763">
        <ele>290</ele>
        <time>2026-03-29T12:29:29.000Z</time>
      </trkpt>
      <trkpt lat="46.56766" lon="4.83774">
        <ele>291</ele>
        <time>2026-03-29T12:29:38.000Z</time>
      </trkpt>
      <trkpt lat="46.56773" lon="4.83785">
        <ele>290</ele>
        <time>2026-03-29T12:29:46.000Z</time>
      </trkpt>
      <trkpt lat="46.56781" lon="4.83797">
        <ele>289</ele>
        <time>2026-03-29T12:29:54.000Z</time>
      </trkpt>
      <trkpt lat="46.5679" lon="4.83805">
        <ele>288</ele>
        <time>2026-03-29T12:30:02.000Z</time>
      </trkpt>
      <trkpt lat="46.568" lon="4.83812">
        <ele>288</ele>
        <time>2026-03-29T12:30:10.000Z</time>
      </trkpt>
      <trkpt lat="46.56809" lon="4.83819">
        <ele>288</ele>
        <time>2026-03-29T12:30:18.000Z</time>
      </trkpt>
      <trkpt lat="46.56817" lon="4.83827">
        <ele>287</ele>
        <time>2026-03-29T12:30:24.000Z</time>
      </trkpt>
      <trkpt lat="46.56824" lon="4.83837">
        <ele>285</ele>
        <time>2026-03-29T12:30:32.000Z</time>
      </trkpt>
      <trkpt lat="46.5683" lon="4.83848">
        <ele>284</ele>
        <time>2026-03-29T12:30:41.000Z</time>
      </trkpt>
      <trkpt lat="46.56837" lon="4.83857">
        <ele>284</ele>
        <time>2026-03-29T12:30:49.000Z</time>
      </trkpt>
      <trkpt lat="46.56846" lon="4.83864">
        <ele>284</ele>
        <time>2026-03-29T12:30:57.000Z</time>
      </trkpt>
      <trkpt lat="46.56854" lon="4.83873">
        <ele>283</ele>
        <time>2026-03-29T12:31:05.000Z</time>
      </trkpt>
      <trkpt lat="46.56858" lon="4.83886">
        <ele>281</ele>
        <time>2026-03-29T12:31:27.000Z</time>
      </trkpt>
      <trkpt lat="46.56866" lon="4.83895">
        <ele>281</ele>
        <time>2026-03-29T12:31:36.000Z</time>
      </trkpt>
      <trkpt lat="46.56874" lon="4.83905">
        <ele>282</ele>
        <time>2026-03-29T12:31:44.000Z</time>
      </trkpt>
      <trkpt lat="46.56882" lon="4.83915">
        <ele>281</ele>
        <time>2026-03-29T12:31:53.000Z</time>
      </trkpt>
      <trkpt lat="46.5689" lon="4.83923">
        <ele>281</ele>
        <time>2026-03-29T12:32:01.000Z</time>
      </trkpt>
      <trkpt lat="46.56899" lon="4.8393">
        <ele>281</ele>
        <time>2026-03-29T12:32:09.000Z</time>
      </trkpt>
      <trkpt lat="46.56909" lon="4.83937">
        <ele>281</ele>
        <time>2026-03-29T12:32:17.000Z</time>
      </trkpt>
      <trkpt lat="46.56918" lon="4.83945">
        <ele>281</ele>
        <time>2026-03-29T12:32:26.000Z</time>
      </trkpt>
      <trkpt lat="46.56927" lon="4.83953">
        <ele>281</ele>
        <time>2026-03-29T12:32:34.000Z</time>
      </trkpt>
      <trkpt lat="46.56936" lon="4.83961">
        <ele>280</ele>
        <time>2026-03-29T12:32:42.000Z</time>
      </trkpt>
      <trkpt lat="46.56944" lon="4.8397">
        <ele>280</ele>
        <time>2026-03-29T12:32:51.000Z</time>
      </trkpt>
      <trkpt lat="46.56953" lon="4.83978">
        <ele>280</ele>
        <time>2026-03-29T12:32:59.000Z</time>
      </trkpt>
      <trkpt lat="46.56962" lon="4.83986">
        <ele>280</ele>
        <time>2026-03-29T12:33:07.000Z</time>
      </trkpt>
      <trkpt lat="46.5697" lon="4.83995">
        <ele>279</ele>
        <time>2026-03-29T12:33:15.000Z</time>
      </trkpt>
      <trkpt lat="46.56978" lon="4.84003">
        <ele>279</ele>
        <time>2026-03-29T12:33:23.000Z</time>
      </trkpt>
      <trkpt lat="46.56987" lon="4.8401">
        <ele>278</ele>
        <time>2026-03-29T12:33:32.000Z</time>
      </trkpt>
      <trkpt lat="46.56997" lon="4.84016">
        <ele>277</ele>
        <time>2026-03-29T12:33:40.000Z</time>
      </trkpt>
      <trkpt lat="46.57006" lon="4.84019">
        <ele>279</ele>
        <time>2026-03-29T12:33:47.000Z</time>
      </trkpt>
      <trkpt lat="46.57014" lon="4.84024">
        <ele>279</ele>
        <time>2026-03-29T12:33:55.000Z</time>
      </trkpt>
      <trkpt lat="46.57023" lon="4.84031">
        <ele>279</ele>
        <time>2026-03-29T12:34:06.000Z</time>
      </trkpt>
      <trkpt lat="46.57032" lon="4.84039">
        <ele>279</ele>
        <time>2026-03-29T12:34:17.000Z</time>
      </trkpt>
      <trkpt lat="46.57041" lon="4.84048">
        <ele>279</ele>
        <time>2026-03-29T12:34:25.000Z</time>
      </trkpt>
      <trkpt lat="46.57048" lon="4.84059">
        <ele>279</ele>
        <time>2026-03-29T12:34:36.000Z</time>
      </trkpt>
      <trkpt lat="46.57055" lon="4.84069">
        <ele>279</ele>
        <time>2026-03-29T12:34:44.000Z</time>
      </trkpt>
      <trkpt lat="46.57064" lon="4.84073">
        <ele>279</ele>
        <time>2026-03-29T12:34:50.000Z</time>
      </trkpt>
      <trkpt lat="46.57072" lon="4.84079">
        <ele>279</ele>
        <time>2026-03-29T12:34:58.000Z</time>
      </trkpt>
      <trkpt lat="46.57079" lon="4.84088">
        <ele>279</ele>
        <time>2026-03-29T12:35:07.000Z</time>
      </trkpt>
      <trkpt lat="46.57086" lon="4.84095">
        <ele>279</ele>
        <time>2026-03-29T12:35:13.000Z</time>
      </trkpt>
      <trkpt lat="46.57093" lon="4.84104">
        <ele>278</ele>
        <time>2026-03-29T12:35:19.000Z</time>
      </trkpt>
      <trkpt lat="46.571" lon="4.84115">
        <ele>278</ele>
        <time>2026-03-29T12:35:28.000Z</time>
      </trkpt>
      <trkpt lat="46.57106" lon="4.84126">
        <ele>277</ele>
        <time>2026-03-29T12:35:37.000Z</time>
      </trkpt>
      <trkpt lat="46.57112" lon="4.84137">
        <ele>277</ele>
        <time>2026-03-29T12:35:45.000Z</time>
      </trkpt>
      <trkpt lat="46.57118" lon="4.84149">
        <ele>277</ele>
        <time>2026-03-29T12:35:54.000Z</time>
      </trkpt>
      <trkpt lat="46.57121" lon="4.84161">
        <ele>276</ele>
        <time>2026-03-29T12:36:03.000Z</time>
      </trkpt>
      <trkpt lat="46.57128" lon="4.84171">
        <ele>275</ele>
        <time>2026-03-29T12:36:37.000Z</time>
      </trkpt>
      <trkpt lat="46.57133" lon="4.84184">
        <ele>274</ele>
        <time>2026-03-29T12:36:43.000Z</time>
      </trkpt>
      <trkpt lat="46.57138" lon="4.84194">
        <ele>274</ele>
        <time>2026-03-29T12:36:49.000Z</time>
      </trkpt>
      <trkpt lat="46.57144" lon="4.84205">
        <ele>273</ele>
        <time>2026-03-29T12:36:57.000Z</time>
      </trkpt>
      <trkpt lat="46.57147" lon="4.84217">
        <ele>272</ele>
        <time>2026-03-29T12:37:05.000Z</time>
      </trkpt>
      <trkpt lat="46.5715" lon="4.8423">
        <ele>271</ele>
        <time>2026-03-29T12:37:14.000Z</time>
      </trkpt>
      <trkpt lat="46.57154" lon="4.84244">
        <ele>270</ele>
        <time>2026-03-29T12:37:24.000Z</time>
      </trkpt>
      <trkpt lat="46.57156" lon="4.84257">
        <ele>269</ele>
        <time>2026-03-29T12:37:32.000Z</time>
      </trkpt>
      <trkpt lat="46.57158" lon="4.84272">
        <ele>267</ele>
        <time>2026-03-29T12:37:40.000Z</time>
      </trkpt>
      <trkpt lat="46.57159" lon="4.84288">
        <ele>266</ele>
        <time>2026-03-29T12:37:48.000Z</time>
      </trkpt>
      <trkpt lat="46.57162" lon="4.84303">
        <ele>265</ele>
        <time>2026-03-29T12:37:56.000Z</time>
      </trkpt>
      <trkpt lat="46.57164" lon="4.84318">
        <ele>264</ele>
        <time>2026-03-29T12:38:06.000Z</time>
      </trkpt>
      <trkpt lat="46.57167" lon="4.84332">
        <ele>263</ele>
        <time>2026-03-29T12:38:14.000Z</time>
      </trkpt>
      <trkpt lat="46.5717" lon="4.84346">
        <ele>262</ele>
        <time>2026-03-29T12:38:22.000Z</time>
      </trkpt>
      <trkpt lat="46.57171" lon="4.8436">
        <ele>261</ele>
        <time>2026-03-29T12:38:31.000Z</time>
      </trkpt>
      <trkpt lat="46.57171" lon="4.84375">
        <ele>260</ele>
        <time>2026-03-29T12:38:39.000Z</time>
      </trkpt>
      <trkpt lat="46.57175" lon="4.84389">
        <ele>259</ele>
        <time>2026-03-29T12:38:47.000Z</time>
      </trkpt>
      <trkpt lat="46.57179" lon="4.84402">
        <ele>259</ele>
        <time>2026-03-29T12:38:55.000Z</time>
      </trkpt>
      <trkpt lat="46.57183" lon="4.84415">
        <ele>258</ele>
        <time>2026-03-29T12:39:03.000Z</time>
      </trkpt>
      <trkpt lat="46.57186" lon="4.84428">
        <ele>257</ele>
        <time>2026-03-29T12:39:11.000Z</time>
      </trkpt>
      <trkpt lat="46.5719" lon="4.84442">
        <ele>256</ele>
        <time>2026-03-29T12:39:20.000Z</time>
      </trkpt>
      <trkpt lat="46.57193" lon="4.84456">
        <ele>255</ele>
        <time>2026-03-29T12:39:28.000Z</time>
      </trkpt>
      <trkpt lat="46.57195" lon="4.84471">
        <ele>253</ele>
        <time>2026-03-29T12:39:36.000Z</time>
      </trkpt>
      <trkpt lat="46.57199" lon="4.84484">
        <ele>252</ele>
        <time>2026-03-29T12:39:45.000Z</time>
      </trkpt>
      <trkpt lat="46.57204" lon="4.84495">
        <ele>251</ele>
        <time>2026-03-29T12:39:53.000Z</time>
      </trkpt>
      <trkpt lat="46.57211" lon="4.84505">
        <ele>249</ele>
        <time>2026-03-29T12:40:04.000Z</time>
      </trkpt>
      <trkpt lat="46.57216" lon="4.84516">
        <ele>248</ele>
        <time>2026-03-29T12:40:12.000Z</time>
      </trkpt>
      <trkpt lat="46.57221" lon="4.84526">
        <ele>247</ele>
        <time>2026-03-29T12:40:20.000Z</time>
      </trkpt>
      <trkpt lat="46.57228" lon="4.84538">
        <ele>246</ele>
        <time>2026-03-29T12:40:29.000Z</time>
      </trkpt>
      <trkpt lat="46.57235" lon="4.84548">
        <ele>245</ele>
        <time>2026-03-29T12:40:37.000Z</time>
      </trkpt>
      <trkpt lat="46.57241" lon="4.84552">
        <ele>245</ele>
        <time>2026-03-29T12:40:45.000Z</time>
      </trkpt>
      <trkpt lat="46.57234" lon="4.8454">
        <ele>245</ele>
        <time>2026-03-29T12:40:57.000Z</time>
      </trkpt>
      <trkpt lat="46.57235" lon="4.84548">
        <ele>245</ele>
        <time>2026-03-29T12:41:04.000Z</time>
      </trkpt>
      <trkpt lat="46.57245" lon="4.8455">
        <ele>245</ele>
        <time>2026-03-29T12:41:40.000Z</time>
      </trkpt>
      <trkpt lat="46.57254" lon="4.84558">
        <ele>244</ele>
        <time>2026-03-29T12:41:47.000Z</time>
      </trkpt>
      <trkpt lat="46.57263" lon="4.84564">
        <ele>243</ele>
        <time>2026-03-29T12:41:55.000Z</time>
      </trkpt>
      <trkpt lat="46.57272" lon="4.84568">
        <ele>244</ele>
        <time>2026-03-29T12:42:05.000Z</time>
      </trkpt>
      <trkpt lat="46.57282" lon="4.84574">
        <ele>242</ele>
        <time>2026-03-29T12:42:13.000Z</time>
      </trkpt>
      <trkpt lat="46.57291" lon="4.84582">
        <ele>242</ele>
        <time>2026-03-29T12:42:21.000Z</time>
      </trkpt>
      <trkpt lat="46.57297" lon="4.84595">
        <ele>242</ele>
        <time>2026-03-29T12:42:30.000Z</time>
      </trkpt>
      <trkpt lat="46.57302" lon="4.84609">
        <ele>242</ele>
        <time>2026-03-29T12:42:38.000Z</time>
      </trkpt>
      <trkpt lat="46.57306" lon="4.84622">
        <ele>242</ele>
        <time>2026-03-29T12:42:47.000Z</time>
      </trkpt>
      <trkpt lat="46.57313" lon="4.8463">
        <ele>242</ele>
        <time>2026-03-29T12:43:42.000Z</time>
      </trkpt>
      <trkpt lat="46.5732" lon="4.84638">
        <ele>242</ele>
        <time>2026-03-29T12:43:50.000Z</time>
      </trkpt>
      <trkpt lat="46.57324" lon="4.84649">
        <ele>243</ele>
        <time>2026-03-29T12:43:58.000Z</time>
      </trkpt>
      <trkpt lat="46.57327" lon="4.84662">
        <ele>243</ele>
        <time>2026-03-29T12:44:06.000Z</time>
      </trkpt>
      <trkpt lat="46.57327" lon="4.84676">
        <ele>243</ele>
        <time>2026-03-29T12:44:17.000Z</time>
      </trkpt>
      <trkpt lat="46.57329" lon="4.84689">
        <ele>243</ele>
        <time>2026-03-29T12:44:44.000Z</time>
      </trkpt>
      <trkpt lat="46.57328" lon="4.84702">
        <ele>242</ele>
        <time>2026-03-29T12:44:50.000Z</time>
      </trkpt>
      <trkpt lat="46.57326" lon="4.84717">
        <ele>243</ele>
        <time>2026-03-29T12:44:58.000Z</time>
      </trkpt>
      <trkpt lat="46.57324" lon="4.8473">
        <ele>243</ele>
        <time>2026-03-29T12:45:04.000Z</time>
      </trkpt>
      <trkpt lat="46.57322" lon="4.84743">
        <ele>243</ele>
        <time>2026-03-29T12:45:10.000Z</time>
      </trkpt>
      <trkpt lat="46.57319" lon="4.84755">
        <ele>243</ele>
        <time>2026-03-29T12:45:16.000Z</time>
      </trkpt>
      <trkpt lat="46.57314" lon="4.84769">
        <ele>243</ele>
        <time>2026-03-29T12:45:24.000Z</time>
      </trkpt>
      <trkpt lat="46.57309" lon="4.84782">
        <ele>243</ele>
        <time>2026-03-29T12:45:32.000Z</time>
      </trkpt>
      <trkpt lat="46.57304" lon="4.84795">
        <ele>243</ele>
        <time>2026-03-29T12:45:40.000Z</time>
      </trkpt>
      <trkpt lat="46.573" lon="4.84804">
        <ele>244</ele>
        <time>2026-03-29T12:46:03.000Z</time>
      </trkpt>
      <trkpt lat="46.57301" lon="4.84795">
        <ele>243</ele>
        <time>2026-03-29T12:47:24.000Z</time>
      </trkpt>
      <trkpt lat="46.57311" lon="4.84791">
        <ele>244</ele>
        <time>2026-03-29T12:47:34.000Z</time>
      </trkpt>
      <trkpt lat="46.57321" lon="4.84802">
        <ele>245</ele>
        <time>2026-03-29T12:47:44.000Z</time>
      </trkpt>
      <trkpt lat="46.57328" lon="4.84814">
        <ele>245</ele>
        <time>2026-03-29T12:47:53.000Z</time>
      </trkpt>
      <trkpt lat="46.57335" lon="4.84825">
        <ele>247</ele>
        <time>2026-03-29T12:48:04.000Z</time>
      </trkpt>
      <trkpt lat="46.57343" lon="4.84829">
        <ele>248</ele>
        <time>2026-03-29T12:48:11.000Z</time>
      </trkpt>
      <trkpt lat="46.57352" lon="4.84828">
        <ele>248</ele>
        <time>2026-03-29T12:48:18.000Z</time>
      </trkpt>
      <trkpt lat="46.57361" lon="4.84832">
        <ele>249</ele>
        <time>2026-03-29T12:48:27.000Z</time>
      </trkpt>
      <trkpt lat="46.57371" lon="4.84838">
        <ele>250</ele>
        <time>2026-03-29T12:48:38.000Z</time>
      </trkpt>
      <trkpt lat="46.57379" lon="4.84844">
        <ele>251</ele>
        <time>2026-03-29T12:48:46.000Z</time>
      </trkpt>
      <trkpt lat="46.57386" lon="4.84851">
        <ele>253</ele>
        <time>2026-03-29T12:48:55.000Z</time>
      </trkpt>
      <trkpt lat="46.5739" lon="4.84862">
        <ele>253</ele>
        <time>2026-03-29T12:49:07.000Z</time>
      </trkpt>
      <trkpt lat="46.57391" lon="4.84875">
        <ele>254</ele>
        <time>2026-03-29T12:49:14.000Z</time>
      </trkpt>
      <trkpt lat="46.57389" lon="4.8489">
        <ele>255</ele>
        <time>2026-03-29T12:49:25.000Z</time>
      </trkpt>
      <trkpt lat="46.57384" lon="4.84901">
        <ele>255</ele>
        <time>2026-03-29T12:49:34.000Z</time>
      </trkpt>
      <trkpt lat="46.57381" lon="4.84913">
        <ele>256</ele>
        <time>2026-03-29T12:49:46.000Z</time>
      </trkpt>
      <trkpt lat="46.57378" lon="4.84927">
        <ele>256</ele>
        <time>2026-03-29T12:49:55.000Z</time>
      </trkpt>
      <trkpt lat="46.57373" lon="4.84938">
        <ele>257</ele>
        <time>2026-03-29T12:50:02.000Z</time>
      </trkpt>
      <trkpt lat="46.57365" lon="4.84945">
        <ele>259</ele>
        <time>2026-03-29T12:51:58.000Z</time>
      </trkpt>
      <trkpt lat="46.57363" lon="4.84953">
        <ele>259</ele>
        <time>2026-03-29T12:52:10.000Z</time>
      </trkpt>
      <trkpt lat="46.57362" lon="4.84945">
        <ele>259</ele>
        <time>2026-03-29T12:53:13.000Z</time>
      </trkpt>
      <trkpt lat="46.57369" lon="4.84938">
        <ele>258</ele>
        <time>2026-03-29T12:54:02.000Z</time>
      </trkpt>
      <trkpt lat="46.57375" lon="4.84929">
        <ele>257</ele>
        <time>2026-03-29T12:55:09.000Z</time>
      </trkpt>
      <trkpt lat="46.5738" lon="4.84917">
        <ele>256</ele>
        <time>2026-03-29T12:55:18.000Z</time>
      </trkpt>
      <trkpt lat="46.57383" lon="4.84905">
        <ele>255</ele>
        <time>2026-03-29T12:55:28.000Z</time>
      </trkpt>
      <trkpt lat="46.57385" lon="4.84891">
        <ele>255</ele>
        <time>2026-03-29T12:55:34.000Z</time>
      </trkpt>
      <trkpt lat="46.57388" lon="4.84879">
        <ele>254</ele>
        <time>2026-03-29T12:55:40.000Z</time>
      </trkpt>
      <trkpt lat="46.5739" lon="4.84866">
        <ele>254</ele>
        <time>2026-03-29T12:55:46.000Z</time>
      </trkpt>
      <trkpt lat="46.57393" lon="4.84851">
        <ele>253</ele>
        <time>2026-03-29T12:55:54.000Z</time>
      </trkpt>
      <trkpt lat="46.57397" lon="4.84837">
        <ele>252</ele>
        <time>2026-03-29T12:56:02.000Z</time>
      </trkpt>
      <trkpt lat="46.57401" lon="4.84825">
        <ele>250</ele>
        <time>2026-03-29T12:56:10.000Z</time>
      </trkpt>
      <trkpt lat="46.57405" lon="4.8481">
        <ele>250</ele>
        <time>2026-03-29T12:56:18.000Z</time>
      </trkpt>
      <trkpt lat="46.57409" lon="4.84796">
        <ele>248</ele>
        <time>2026-03-29T12:56:26.000Z</time>
      </trkpt>
      <trkpt lat="46.57412" lon="4.84782">
        <ele>247</ele>
        <time>2026-03-29T12:56:34.000Z</time>
      </trkpt>
      <trkpt lat="46.57414" lon="4.84767">
        <ele>248</ele>
        <time>2026-03-29T12:56:42.000Z</time>
      </trkpt>
      <trkpt lat="46.57416" lon="4.84754">
        <ele>248</ele>
        <time>2026-03-29T12:56:48.000Z</time>
      </trkpt>
      <trkpt lat="46.57419" lon="4.8474">
        <ele>251</ele>
        <time>2026-03-29T12:56:56.000Z</time>
      </trkpt>
      <trkpt lat="46.57421" lon="4.84727">
        <ele>251</ele>
        <time>2026-03-29T12:57:03.000Z</time>
      </trkpt>
      <trkpt lat="46.57423" lon="4.84713">
        <ele>251</ele>
        <time>2026-03-29T12:57:11.000Z</time>
      </trkpt>
      <trkpt lat="46.57424" lon="4.84699">
        <ele>251</ele>
        <time>2026-03-29T12:57:20.000Z</time>
      </trkpt>
      <trkpt lat="46.57428" lon="4.84686">
        <ele>251</ele>
        <time>2026-03-29T12:57:26.000Z</time>
      </trkpt>
      <trkpt lat="46.57432" lon="4.84673">
        <ele>250</ele>
        <time>2026-03-29T12:57:34.000Z</time>
      </trkpt>
      <trkpt lat="46.57436" lon="4.84659">
        <ele>250</ele>
        <time>2026-03-29T12:57:42.000Z</time>
      </trkpt>
      <trkpt lat="46.57439" lon="4.84645">
        <ele>250</ele>
        <time>2026-03-29T12:57:51.000Z</time>
      </trkpt>
      <trkpt lat="46.57438" lon="4.84633">
        <ele>250</ele>
        <time>2026-03-29T12:57:59.000Z</time>
      </trkpt>
      <trkpt lat="46.57444" lon="4.84626">
        <ele>250</ele>
        <time>2026-03-29T12:58:13.000Z</time>
      </trkpt>
      <trkpt lat="46.57453" lon="4.84622">
        <ele>251</ele>
        <time>2026-03-29T12:58:23.000Z</time>
      </trkpt>
      <trkpt lat="46.57463" lon="4.84621">
        <ele>251</ele>
        <time>2026-03-29T12:58:31.000Z</time>
      </trkpt>
      <trkpt lat="46.57472" lon="4.84616">
        <ele>252</ele>
        <time>2026-03-29T12:58:39.000Z</time>
      </trkpt>
      <trkpt lat="46.57481" lon="4.84606">
        <ele>253</ele>
        <time>2026-03-29T12:58:47.000Z</time>
      </trkpt>
      <trkpt lat="46.57488" lon="4.84594">
        <ele>253</ele>
        <time>2026-03-29T12:58:55.000Z</time>
      </trkpt>
      <trkpt lat="46.57494" lon="4.8458">
        <ele>252</ele>
        <time>2026-03-29T12:59:03.000Z</time>
      </trkpt>
      <trkpt lat="46.57498" lon="4.84566">
        <ele>252</ele>
        <time>2026-03-29T12:59:14.000Z</time>
      </trkpt>
      <trkpt lat="46.57499" lon="4.84552">
        <ele>252</ele>
        <time>2026-03-29T12:59:22.000Z</time>
      </trkpt>
      <trkpt lat="46.57501" lon="4.84539">
        <ele>252</ele>
        <time>2026-03-29T12:59:31.000Z</time>
      </trkpt>
      <trkpt lat="46.57505" lon="4.84526">
        <ele>252</ele>
        <time>2026-03-29T12:59:39.000Z</time>
      </trkpt>
      <trkpt lat="46.57506" lon="4.84511">
        <ele>253</ele>
        <time>2026-03-29T12:59:47.000Z</time>
      </trkpt>
      <trkpt lat="46.57507" lon="4.84498">
        <ele>253</ele>
        <time>2026-03-29T12:59:54.000Z</time>
      </trkpt>
      <trkpt lat="46.5751" lon="4.84485">
        <ele>253</ele>
        <time>2026-03-29T13:00:00.000Z</time>
      </trkpt>
      <trkpt lat="46.57513" lon="4.84471">
        <ele>254</ele>
        <time>2026-03-29T13:00:08.000Z</time>
      </trkpt>
      <trkpt lat="46.57516" lon="4.84456">
        <ele>255</ele>
        <time>2026-03-29T13:00:17.000Z</time>
      </trkpt>
      <trkpt lat="46.57519" lon="4.8444">
        <ele>256</ele>
        <time>2026-03-29T13:00:26.000Z</time>
      </trkpt>
      <trkpt lat="46.57521" lon="4.84426">
        <ele>256</ele>
        <time>2026-03-29T13:00:34.000Z</time>
      </trkpt>
      <trkpt lat="46.57529" lon="4.84419">
        <ele>257</ele>
        <time>2026-03-29T13:00:45.000Z</time>
      </trkpt>
      <trkpt lat="46.57537" lon="4.8441">
        <ele>260</ele>
        <time>2026-03-29T13:00:55.000Z</time>
      </trkpt>
      <trkpt lat="46.57543" lon="4.84398">
        <ele>261</ele>
        <time>2026-03-29T13:01:04.000Z</time>
      </trkpt>
      <trkpt lat="46.57542" lon="4.84384">
        <ele>261</ele>
        <time>2026-03-29T13:01:09.000Z</time>
      </trkpt>
      <trkpt lat="46.57543" lon="4.84369">
        <ele>262</ele>
        <time>2026-03-29T13:01:19.000Z</time>
      </trkpt>
      <trkpt lat="46.57545" lon="4.84354">
        <ele>263</ele>
        <time>2026-03-29T13:01:28.000Z</time>
      </trkpt>
      <trkpt lat="46.57548" lon="4.84342">
        <ele>265</ele>
        <time>2026-03-29T13:01:36.000Z</time>
      </trkpt>
      <trkpt lat="46.57548" lon="4.84328">
        <ele>265</ele>
        <time>2026-03-29T13:01:45.000Z</time>
      </trkpt>
      <trkpt lat="46.57547" lon="4.84314">
        <ele>266</ele>
        <time>2026-03-29T13:01:53.000Z</time>
      </trkpt>
      <trkpt lat="46.57548" lon="4.84302">
        <ele>267</ele>
        <time>2026-03-29T13:02:01.000Z</time>
      </trkpt>
      <trkpt lat="46.57552" lon="4.8429">
        <ele>268</ele>
        <time>2026-03-29T13:02:10.000Z</time>
      </trkpt>
      <trkpt lat="46.57561" lon="4.84286">
        <ele>269</ele>
        <time>2026-03-29T13:02:20.000Z</time>
      </trkpt>
      <trkpt lat="46.5757" lon="4.84284">
        <ele>271</ele>
        <time>2026-03-29T13:02:28.000Z</time>
      </trkpt>
      <trkpt lat="46.57575" lon="4.84274">
        <ele>271</ele>
        <time>2026-03-29T13:02:55.000Z</time>
      </trkpt>
      <trkpt lat="46.57581" lon="4.84265">
        <ele>273</ele>
        <time>2026-03-29T13:03:06.000Z</time>
      </trkpt>
      <trkpt lat="46.57586" lon="4.84255">
        <ele>274</ele>
        <time>2026-03-29T13:03:13.000Z</time>
      </trkpt>
      <trkpt lat="46.57592" lon="4.84245">
        <ele>277</ele>
        <time>2026-03-29T13:03:22.000Z</time>
      </trkpt>
      <trkpt lat="46.576" lon="4.84237">
        <ele>279</ele>
        <time>2026-03-29T13:03:34.000Z</time>
      </trkpt>
      <trkpt lat="46.57607" lon="4.84228">
        <ele>281</ele>
        <time>2026-03-29T13:03:48.000Z</time>
      </trkpt>
      <trkpt lat="46.57614" lon="4.84218">
        <ele>285</ele>
        <time>2026-03-29T13:04:13.000Z</time>
      </trkpt>
      <trkpt lat="46.5762" lon="4.8421">
        <ele>287</ele>
        <time>2026-03-29T13:04:24.000Z</time>
      </trkpt>
      <trkpt lat="46.57629" lon="4.84206">
        <ele>290</ele>
        <time>2026-03-29T13:04:37.000Z</time>
      </trkpt>
      <trkpt lat="46.57638" lon="4.84205">
        <ele>292</ele>
        <time>2026-03-29T13:05:09.000Z</time>
      </trkpt>
      <trkpt lat="46.57647" lon="4.84206">
        <ele>294</ele>
        <time>2026-03-29T13:05:19.000Z</time>
      </trkpt>
      <trkpt lat="46.57656" lon="4.84207">
        <ele>296</ele>
        <time>2026-03-29T13:05:34.000Z</time>
      </trkpt>
      <trkpt lat="46.57666" lon="4.84206">
        <ele>297</ele>
        <time>2026-03-29T13:05:48.000Z</time>
      </trkpt>
      <trkpt lat="46.57672" lon="4.842">
        <ele>299</ele>
        <time>2026-03-29T13:06:30.000Z</time>
      </trkpt>
      <trkpt lat="46.57681" lon="4.84202">
        <ele>300</ele>
        <time>2026-03-29T13:06:40.000Z</time>
      </trkpt>
      <trkpt lat="46.57691" lon="4.84202">
        <ele>302</ele>
        <time>2026-03-29T13:06:51.000Z</time>
      </trkpt>
      <trkpt lat="46.57698" lon="4.84192">
        <ele>303</ele>
        <time>2026-03-29T13:07:18.000Z</time>
      </trkpt>
      <trkpt lat="46.57707" lon="4.84185">
        <ele>304</ele>
        <time>2026-03-29T13:07:24.000Z</time>
      </trkpt>
      <trkpt lat="46.57717" lon="4.8418">
        <ele>304</ele>
        <time>2026-03-29T13:07:34.000Z</time>
      </trkpt>
      <trkpt lat="46.57727" lon="4.84176">
        <ele>306</ele>
        <time>2026-03-29T13:07:42.000Z</time>
      </trkpt>
      <trkpt lat="46.57737" lon="4.84173">
        <ele>308</ele>
        <time>2026-03-29T13:07:52.000Z</time>
      </trkpt>
      <trkpt lat="46.57747" lon="4.8417">
        <ele>309</ele>
        <time>2026-03-29T13:08:01.000Z</time>
      </trkpt>
      <trkpt lat="46.57755" lon="4.84162">
        <ele>310</ele>
        <time>2026-03-29T13:08:13.000Z</time>
      </trkpt>
      <trkpt lat="46.57761" lon="4.84151">
        <ele>312</ele>
        <time>2026-03-29T13:08:25.000Z</time>
      </trkpt>
      <trkpt lat="46.57767" lon="4.84138">
        <ele>313</ele>
        <time>2026-03-29T13:08:37.000Z</time>
      </trkpt>
      <trkpt lat="46.5777" lon="4.84127">
        <ele>314</ele>
        <time>2026-03-29T13:08:47.000Z</time>
      </trkpt>
      <trkpt lat="46.57775" lon="4.84116">
        <ele>314</ele>
        <time>2026-03-29T13:08:57.000Z</time>
      </trkpt>
      <trkpt lat="46.57781" lon="4.84106">
        <ele>316</ele>
        <time>2026-03-29T13:09:06.000Z</time>
      </trkpt>
      <trkpt lat="46.57783" lon="4.84092">
        <ele>315</ele>
        <time>2026-03-29T13:09:14.000Z</time>
      </trkpt>
      <trkpt lat="46.57785" lon="4.8408">
        <ele>314</ele>
        <time>2026-03-29T13:09:54.000Z</time>
      </trkpt>
      <trkpt lat="46.5779" lon="4.84068">
        <ele>313</ele>
        <time>2026-03-29T13:10:09.000Z</time>
      </trkpt>
      <trkpt lat="46.57799" lon="4.8406">
        <ele>314</ele>
        <time>2026-03-29T13:11:23.000Z</time>
      </trkpt>
      <trkpt lat="46.57807" lon="4.84052">
        <ele>312</ele>
        <time>2026-03-29T13:11:29.000Z</time>
      </trkpt>
      <trkpt lat="46.57815" lon="4.84046">
        <ele>312</ele>
        <time>2026-03-29T13:11:35.000Z</time>
      </trkpt>
      <trkpt lat="46.57823" lon="4.84042">
        <ele>312</ele>
        <time>2026-03-29T13:11:41.000Z</time>
      </trkpt>
      <trkpt lat="46.57832" lon="4.84039">
        <ele>311</ele>
        <time>2026-03-29T13:11:47.000Z</time>
      </trkpt>
      <trkpt lat="46.57842" lon="4.84036">
        <ele>312</ele>
        <time>2026-03-29T13:11:55.000Z</time>
      </trkpt>
      <trkpt lat="46.57852" lon="4.84036">
        <ele>312</ele>
        <time>2026-03-29T13:12:00.000Z</time>
      </trkpt>
      <trkpt lat="46.57863" lon="4.84038">
        <ele>312</ele>
        <time>2026-03-29T13:12:08.000Z</time>
      </trkpt>
      <trkpt lat="46.57874" lon="4.84042">
        <ele>312</ele>
        <time>2026-03-29T13:12:16.000Z</time>
      </trkpt>
      <trkpt lat="46.57885" lon="4.84044">
        <ele>312</ele>
        <time>2026-03-29T13:12:24.000Z</time>
      </trkpt>
      <trkpt lat="46.57896" lon="4.84045">
        <ele>312</ele>
        <time>2026-03-29T13:12:32.000Z</time>
      </trkpt>
      <trkpt lat="46.57907" lon="4.84047">
        <ele>312</ele>
        <time>2026-03-29T13:12:40.000Z</time>
      </trkpt>
      <trkpt lat="46.57918" lon="4.84049">
        <ele>313</ele>
        <time>2026-03-29T13:12:48.000Z</time>
      </trkpt>
      <trkpt lat="46.57927" lon="4.84051">
        <ele>313</ele>
        <time>2026-03-29T13:12:54.000Z</time>
      </trkpt>
      <trkpt lat="46.57936" lon="4.84054">
        <ele>313</ele>
        <time>2026-03-29T13:13:00.000Z</time>
      </trkpt>
      <trkpt lat="46.57947" lon="4.84056">
        <ele>314</ele>
        <time>2026-03-29T13:13:08.000Z</time>
      </trkpt>
      <trkpt lat="46.57956" lon="4.84059">
        <ele>315</ele>
        <time>2026-03-29T13:13:14.000Z</time>
      </trkpt>
      <trkpt lat="46.57964" lon="4.84062">
        <ele>315</ele>
        <time>2026-03-29T13:13:20.000Z</time>
      </trkpt>
      <trkpt lat="46.57972" lon="4.84068">
        <ele>316</ele>
        <time>2026-03-29T13:13:26.000Z</time>
      </trkpt>
      <trkpt lat="46.5798" lon="4.84074">
        <ele>317</ele>
        <time>2026-03-29T13:13:33.000Z</time>
      </trkpt>
      <trkpt lat="46.57989" lon="4.84081">
        <ele>319</ele>
        <time>2026-03-29T13:13:39.000Z</time>
      </trkpt>
      <trkpt lat="46.57997" lon="4.84088">
        <ele>319</ele>
        <time>2026-03-29T13:13:47.000Z</time>
      </trkpt>
      <trkpt lat="46.58006" lon="4.84095">
        <ele>320</ele>
        <time>2026-03-29T13:13:56.000Z</time>
      </trkpt>
      <trkpt lat="46.58015" lon="4.84101">
        <ele>321</ele>
        <time>2026-03-29T13:14:08.000Z</time>
      </trkpt>
      <trkpt lat="46.58025" lon="4.84104">
        <ele>321</ele>
        <time>2026-03-29T13:14:19.000Z</time>
      </trkpt>
      <trkpt lat="46.58035" lon="4.84104">
        <ele>321</ele>
        <time>2026-03-29T13:14:29.000Z</time>
      </trkpt>
      <trkpt lat="46.58043" lon="4.84099">
        <ele>320</ele>
        <time>2026-03-29T13:14:42.000Z</time>
      </trkpt>
      <trkpt lat="46.58053" lon="4.84098">
        <ele>319</ele>
        <time>2026-03-29T13:14:52.000Z</time>
      </trkpt>
      <trkpt lat="46.58063" lon="4.841">
        <ele>319</ele>
        <time>2026-03-29T13:15:00.000Z</time>
      </trkpt>
      <trkpt lat="46.58072" lon="4.84104">
        <ele>321</ele>
        <time>2026-03-29T13:15:07.000Z</time>
      </trkpt>
      <trkpt lat="46.58082" lon="4.84106">
        <ele>321</ele>
        <time>2026-03-29T13:15:14.000Z</time>
      </trkpt>
      <trkpt lat="46.58091" lon="4.84108">
        <ele>321</ele>
        <time>2026-03-29T13:16:58.000Z</time>
      </trkpt>
      <trkpt lat="46.581" lon="4.84111">
        <ele>322</ele>
        <time>2026-03-29T13:17:05.000Z</time>
      </trkpt>
      <trkpt lat="46.5811" lon="4.84117">
        <ele>321</ele>
        <time>2026-03-29T13:17:13.000Z</time>
      </trkpt>
      <trkpt lat="46.5812" lon="4.84122">
        <ele>322</ele>
        <time>2026-03-29T13:17:22.000Z</time>
      </trkpt>
      <trkpt lat="46.58129" lon="4.8413">
        <ele>321</ele>
        <time>2026-03-29T13:17:34.000Z</time>
      </trkpt>
      <trkpt lat="46.58138" lon="4.84134">
        <ele>322</ele>
        <time>2026-03-29T13:17:41.000Z</time>
      </trkpt>
      <trkpt lat="46.58146" lon="4.84131">
        <ele>321</ele>
        <time>2026-03-29T13:17:48.000Z</time>
      </trkpt>
      <trkpt lat="46.58155" lon="4.84132">
        <ele>321</ele>
        <time>2026-03-29T13:17:57.000Z</time>
      </trkpt>
      <trkpt lat="46.58164" lon="4.84133">
        <ele>322</ele>
        <time>2026-03-29T13:18:06.000Z</time>
      </trkpt>
      <trkpt lat="46.58172" lon="4.84127">
        <ele>320</ele>
        <time>2026-03-29T13:18:15.000Z</time>
      </trkpt>
      <trkpt lat="46.5818" lon="4.84119">
        <ele>319</ele>
        <time>2026-03-29T13:18:22.000Z</time>
      </trkpt>
      <trkpt lat="46.58189" lon="4.84112">
        <ele>320</ele>
        <time>2026-03-29T13:18:31.000Z</time>
      </trkpt>
      <trkpt lat="46.582" lon="4.8411">
        <ele>319</ele>
        <time>2026-03-29T13:18:40.000Z</time>
      </trkpt>
      <trkpt lat="46.5821" lon="4.8411">
        <ele>319</ele>
        <time>2026-03-29T13:18:49.000Z</time>
      </trkpt>
      <trkpt lat="46.5822" lon="4.8411">
        <ele>320</ele>
        <time>2026-03-29T13:18:58.000Z</time>
      </trkpt>
      <trkpt lat="46.58229" lon="4.8411">
        <ele>320</ele>
        <time>2026-03-29T13:19:06.000Z</time>
      </trkpt>
      <trkpt lat="46.58238" lon="4.8411">
        <ele>320</ele>
        <time>2026-03-29T13:19:15.000Z</time>
      </trkpt>
      <trkpt lat="46.58248" lon="4.84112">
        <ele>320</ele>
        <time>2026-03-29T13:19:24.000Z</time>
      </trkpt>
      <trkpt lat="46.58257" lon="4.84116">
        <ele>320</ele>
        <time>2026-03-29T13:19:33.000Z</time>
      </trkpt>
      <trkpt lat="46.58266" lon="4.84111">
        <ele>319</ele>
        <time>2026-03-29T13:19:50.000Z</time>
      </trkpt>
      <trkpt lat="46.58276" lon="4.84107">
        <ele>319</ele>
        <time>2026-03-29T13:19:58.000Z</time>
      </trkpt>
      <trkpt lat="46.58284" lon="4.84101">
        <ele>319</ele>
        <time>2026-03-29T13:20:06.000Z</time>
      </trkpt>
      <trkpt lat="46.58288" lon="4.8409">
        <ele>319</ele>
        <time>2026-03-29T13:20:14.000Z</time>
      </trkpt>
      <trkpt lat="46.5829" lon="4.84076">
        <ele>319</ele>
        <time>2026-03-29T13:20:22.000Z</time>
      </trkpt>
      <trkpt lat="46.5829" lon="4.84062">
        <ele>319</ele>
        <time>2026-03-29T13:20:26.000Z</time>
      </trkpt>
      <trkpt lat="46.58291" lon="4.8405">
        <ele>321</ele>
        <time>2026-03-29T13:20:31.000Z</time>
      </trkpt>
      <trkpt lat="46.58299" lon="4.84043">
        <ele>321</ele>
        <time>2026-03-29T13:20:37.000Z</time>
      </trkpt>
      <trkpt lat="46.58307" lon="4.84034">
        <ele>321</ele>
        <time>2026-03-29T13:20:44.000Z</time>
      </trkpt>
      <trkpt lat="46.58315" lon="4.84028">
        <ele>321</ele>
        <time>2026-03-29T13:20:56.000Z</time>
      </trkpt>
      <trkpt lat="46.58324" lon="4.84024">
        <ele>321</ele>
        <time>2026-03-29T13:21:04.000Z</time>
      </trkpt>
      <trkpt lat="46.58333" lon="4.84018">
        <ele>321</ele>
        <time>2026-03-29T13:21:13.000Z</time>
      </trkpt>
      <trkpt lat="46.58341" lon="4.84011">
        <ele>321</ele>
        <time>2026-03-29T13:21:21.000Z</time>
      </trkpt>
      <trkpt lat="46.58346" lon="4.83999">
        <ele>321</ele>
        <time>2026-03-29T13:21:28.000Z</time>
      </trkpt>
      <trkpt lat="46.5835" lon="4.83985">
        <ele>321</ele>
        <time>2026-03-29T13:21:34.000Z</time>
      </trkpt>
      <trkpt lat="46.58352" lon="4.83971">
        <ele>320</ele>
        <time>2026-03-29T13:21:40.000Z</time>
      </trkpt>
      <trkpt lat="46.58351" lon="4.83956">
        <ele>320</ele>
        <time>2026-03-29T13:21:46.000Z</time>
      </trkpt>
      <trkpt lat="46.58349" lon="4.83943">
        <ele>319</ele>
        <time>2026-03-29T13:21:53.000Z</time>
      </trkpt>
      <trkpt lat="46.58351" lon="4.83929">
        <ele>319</ele>
        <time>2026-03-29T13:22:01.000Z</time>
      </trkpt>
      <trkpt lat="46.58357" lon="4.83919">
        <ele>320</ele>
        <time>2026-03-29T13:22:14.000Z</time>
      </trkpt>
      <trkpt lat="46.58363" lon="4.83908">
        <ele>321</ele>
        <time>2026-03-29T13:22:25.000Z</time>
      </trkpt>
      <trkpt lat="46.58369" lon="4.83896">
        <ele>322</ele>
        <time>2026-03-29T13:22:33.000Z</time>
      </trkpt>
      <trkpt lat="46.58373" lon="4.83881">
        <ele>323</ele>
        <time>2026-03-29T13:22:42.000Z</time>
      </trkpt>
      <trkpt lat="46.58375" lon="4.83869">
        <ele>325</ele>
        <time>2026-03-29T13:22:51.000Z</time>
      </trkpt>
      <trkpt lat="46.5838" lon="4.83876">
        <ele>324</ele>
        <time>2026-03-29T13:24:43.000Z</time>
      </trkpt>
      <trkpt lat="46.58389" lon="4.83882">
        <ele>324</ele>
        <time>2026-03-29T13:24:50.000Z</time>
      </trkpt>
      <trkpt lat="46.58399" lon="4.83884">
        <ele>325</ele>
        <time>2026-03-29T13:24:55.000Z</time>
      </trkpt>
      <trkpt lat="46.58409" lon="4.83883">
        <ele>327</ele>
        <time>2026-03-29T13:25:02.000Z</time>
      </trkpt>
      <trkpt lat="46.58418" lon="4.8388">
        <ele>328</ele>
        <time>2026-03-29T13:25:06.000Z</time>
      </trkpt>
      <trkpt lat="46.58428" lon="4.83877">
        <ele>328</ele>
        <time>2026-03-29T13:25:12.000Z</time>
      </trkpt>
      <trkpt lat="46.58437" lon="4.83879">
        <ele>329</ele>
        <time>2026-03-29T13:25:19.000Z</time>
      </trkpt>
      <trkpt lat="46.58446" lon="4.83882">
        <ele>329</ele>
        <time>2026-03-29T13:25:25.000Z</time>
      </trkpt>
      <trkpt lat="46.58457" lon="4.83887">
        <ele>330</ele>
        <time>2026-03-29T13:25:34.000Z</time>
      </trkpt>
      <trkpt lat="46.58465" lon="4.83894">
        <ele>330</ele>
        <time>2026-03-29T13:25:40.000Z</time>
      </trkpt>
      <trkpt lat="46.58474" lon="4.83902">
        <ele>330</ele>
        <time>2026-03-29T13:25:47.000Z</time>
      </trkpt>
      <trkpt lat="46.58481" lon="4.83909">
        <ele>330</ele>
        <time>2026-03-29T13:25:53.000Z</time>
      </trkpt>
      <trkpt lat="46.58484" lon="4.8392">
        <ele>328</ele>
        <time>2026-03-29T13:26:02.000Z</time>
      </trkpt>
      <trkpt lat="46.58492" lon="4.83926">
        <ele>327</ele>
        <time>2026-03-29T13:26:10.000Z</time>
      </trkpt>
      <trkpt lat="46.58502" lon="4.83928">
        <ele>329</ele>
        <time>2026-03-29T13:26:19.000Z</time>
      </trkpt>
      <trkpt lat="46.58511" lon="4.8393">
        <ele>329</ele>
        <time>2026-03-29T13:26:25.000Z</time>
      </trkpt>
      <trkpt lat="46.5852" lon="4.83937">
        <ele>328</ele>
        <time>2026-03-29T13:26:34.000Z</time>
      </trkpt>
      <trkpt lat="46.58529" lon="4.83945">
        <ele>329</ele>
        <time>2026-03-29T13:26:43.000Z</time>
      </trkpt>
      <trkpt lat="46.58538" lon="4.83954">
        <ele>327</ele>
        <time>2026-03-29T13:26:51.000Z</time>
      </trkpt>
      <trkpt lat="46.58546" lon="4.8396">
        <ele>327</ele>
        <time>2026-03-29T13:26:59.000Z</time>
      </trkpt>
      <trkpt lat="46.58556" lon="4.83964">
        <ele>327</ele>
        <time>2026-03-29T13:27:08.000Z</time>
      </trkpt>
      <trkpt lat="46.58565" lon="4.83968">
        <ele>327</ele>
        <time>2026-03-29T13:27:16.000Z</time>
      </trkpt>
      <trkpt lat="46.58574" lon="4.83973">
        <ele>327</ele>
        <time>2026-03-29T13:27:24.000Z</time>
      </trkpt>
      <trkpt lat="46.58583" lon="4.83977">
        <ele>326</ele>
        <time>2026-03-29T13:27:31.000Z</time>
      </trkpt>
      <trkpt lat="46.58592" lon="4.83981">
        <ele>326</ele>
        <time>2026-03-29T13:27:41.000Z</time>
      </trkpt>
      <trkpt lat="46.58601" lon="4.83983">
        <ele>326</ele>
        <time>2026-03-29T13:27:50.000Z</time>
      </trkpt>
      <trkpt lat="46.5861" lon="4.83984">
        <ele>326</ele>
        <time>2026-03-29T13:27:59.000Z</time>
      </trkpt>
      <trkpt lat="46.5862" lon="4.83985">
        <ele>326</ele>
        <time>2026-03-29T13:28:07.000Z</time>
      </trkpt>
      <trkpt lat="46.5863" lon="4.83985">
        <ele>327</ele>
        <time>2026-03-29T13:28:16.000Z</time>
      </trkpt>
      <trkpt lat="46.58639" lon="4.83986">
        <ele>327</ele>
        <time>2026-03-29T13:28:25.000Z</time>
      </trkpt>
      <trkpt lat="46.58647" lon="4.83994">
        <ele>327</ele>
        <time>2026-03-29T13:28:33.000Z</time>
      </trkpt>
      <trkpt lat="46.58656" lon="4.83999">
        <ele>326</ele>
        <time>2026-03-29T13:28:43.000Z</time>
      </trkpt>
      <trkpt lat="46.5866" lon="4.84009">
        <ele>324</ele>
        <time>2026-03-29T13:29:11.000Z</time>
      </trkpt>
      <trkpt lat="46.58669" lon="4.8401">
        <ele>324</ele>
        <time>2026-03-29T13:29:17.000Z</time>
      </trkpt>
      <trkpt lat="46.58678" lon="4.84019">
        <ele>323</ele>
        <time>2026-03-29T13:29:25.000Z</time>
      </trkpt>
      <trkpt lat="46.58687" lon="4.84029">
        <ele>322</ele>
        <time>2026-03-29T13:29:34.000Z</time>
      </trkpt>
      <trkpt lat="46.58696" lon="4.84035">
        <ele>323</ele>
        <time>2026-03-29T13:29:42.000Z</time>
      </trkpt>
      <trkpt lat="46.58706" lon="4.84039">
        <ele>323</ele>
        <time>2026-03-29T13:29:51.000Z</time>
      </trkpt>
      <trkpt lat="46.58716" lon="4.84043">
        <ele>322</ele>
        <time>2026-03-29T13:29:59.000Z</time>
      </trkpt>
      <trkpt lat="46.58727" lon="4.84047">
        <ele>322</ele>
        <time>2026-03-29T13:30:08.000Z</time>
      </trkpt>
      <trkpt lat="46.58737" lon="4.84052">
        <ele>322</ele>
        <time>2026-03-29T13:30:16.000Z</time>
      </trkpt>
      <trkpt lat="46.58748" lon="4.84053">
        <ele>322</ele>
        <time>2026-03-29T13:30:25.000Z</time>
      </trkpt>
      <trkpt lat="46.58757" lon="4.8405">
        <ele>320</ele>
        <time>2026-03-29T13:30:33.000Z</time>
      </trkpt>
      <trkpt lat="46.58765" lon="4.84043">
        <ele>318</ele>
        <time>2026-03-29T13:30:40.000Z</time>
      </trkpt>
      <trkpt lat="46.58771" lon="4.84033">
        <ele>319</ele>
        <time>2026-03-29T13:30:46.000Z</time>
      </trkpt>
      <trkpt lat="46.58779" lon="4.84024">
        <ele>319</ele>
        <time>2026-03-29T13:30:54.000Z</time>
      </trkpt>
      <trkpt lat="46.58787" lon="4.84015">
        <ele>322</ele>
        <time>2026-03-29T13:31:06.000Z</time>
      </trkpt>
      <trkpt lat="46.58795" lon="4.84007">
        <ele>324</ele>
        <time>2026-03-29T13:31:14.000Z</time>
      </trkpt>
      <trkpt lat="46.58804" lon="4.84002">
        <ele>325</ele>
        <time>2026-03-29T13:31:22.000Z</time>
      </trkpt>
      <trkpt lat="46.58813" lon="4.84">
        <ele>324</ele>
        <time>2026-03-29T13:31:34.000Z</time>
      </trkpt>
      <trkpt lat="46.58821" lon="4.83997">
        <ele>322</ele>
        <time>2026-03-29T13:31:50.000Z</time>
      </trkpt>
      <trkpt lat="46.58831" lon="4.83993">
        <ele>324</ele>
        <time>2026-03-29T13:32:02.000Z</time>
      </trkpt>
      <trkpt lat="46.58839" lon="4.83993">
        <ele>324</ele>
        <time>2026-03-29T13:32:12.000Z</time>
      </trkpt>
      <trkpt lat="46.58848" lon="4.83999">
        <ele>325</ele>
        <time>2026-03-29T13:32:23.000Z</time>
      </trkpt>
      <trkpt lat="46.58856" lon="4.84005">
        <ele>326</ele>
        <time>2026-03-29T13:32:36.000Z</time>
      </trkpt>
      <trkpt lat="46.58865" lon="4.8401">
        <ele>327</ele>
        <time>2026-03-29T13:32:55.000Z</time>
      </trkpt>
      <trkpt lat="46.58875" lon="4.84012">
        <ele>329</ele>
        <time>2026-03-29T13:33:01.000Z</time>
      </trkpt>
      <trkpt lat="46.58886" lon="4.84014">
        <ele>331</ele>
        <time>2026-03-29T13:33:13.000Z</time>
      </trkpt>
      <trkpt lat="46.58895" lon="4.84019">
        <ele>333</ele>
        <time>2026-03-29T13:33:26.000Z</time>
      </trkpt>
      <trkpt lat="46.58903" lon="4.84025">
        <ele>334</ele>
        <time>2026-03-29T13:33:53.000Z</time>
      </trkpt>
      <trkpt lat="46.5891" lon="4.84032">
        <ele>335</ele>
        <time>2026-03-29T13:34:08.000Z</time>
      </trkpt>
      <trkpt lat="46.58919" lon="4.84039">
        <ele>337</ele>
        <time>2026-03-29T13:34:21.000Z</time>
      </trkpt>
      <trkpt lat="46.58928" lon="4.84045">
        <ele>339</ele>
        <time>2026-03-29T13:34:40.000Z</time>
      </trkpt>
      <trkpt lat="46.58938" lon="4.84049">
        <ele>340</ele>
        <time>2026-03-29T13:34:54.000Z</time>
      </trkpt>
      <trkpt lat="46.58947" lon="4.84054">
        <ele>342</ele>
        <time>2026-03-29T13:35:07.000Z</time>
      </trkpt>
      <trkpt lat="46.58955" lon="4.84061">
        <ele>344</ele>
        <time>2026-03-29T13:35:21.000Z</time>
      </trkpt>
      <trkpt lat="46.58963" lon="4.84069">
        <ele>345</ele>
        <time>2026-03-29T13:35:31.000Z</time>
      </trkpt>
      <trkpt lat="46.58972" lon="4.84074">
        <ele>347</ele>
        <time>2026-03-29T13:36:11.000Z</time>
      </trkpt>
      <trkpt lat="46.58982" lon="4.84081">
        <ele>348</ele>
        <time>2026-03-29T13:36:23.000Z</time>
      </trkpt>
      <trkpt lat="46.5899" lon="4.8409">
        <ele>349</ele>
        <time>2026-03-29T13:36:33.000Z</time>
      </trkpt>
      <trkpt lat="46.58998" lon="4.84096">
        <ele>349</ele>
        <time>2026-03-29T13:36:42.000Z</time>
      </trkpt>
      <trkpt lat="46.59007" lon="4.841">
        <ele>350</ele>
        <time>2026-03-29T13:36:51.000Z</time>
      </trkpt>
      <trkpt lat="46.59015" lon="4.84105">
        <ele>351</ele>
        <time>2026-03-29T13:36:58.000Z</time>
      </trkpt>
      <trkpt lat="46.59022" lon="4.84114">
        <ele>351</ele>
        <time>2026-03-29T13:37:07.000Z</time>
      </trkpt>
      <trkpt lat="46.5903" lon="4.84122">
        <ele>351</ele>
        <time>2026-03-29T13:37:15.000Z</time>
      </trkpt>
      <trkpt lat="46.59038" lon="4.84132">
        <ele>351</ele>
        <time>2026-03-29T13:37:22.000Z</time>
      </trkpt>
      <trkpt lat="46.59042" lon="4.84144">
        <ele>351</ele>
        <time>2026-03-29T13:38:03.000Z</time>
      </trkpt>
      <trkpt lat="46.59043" lon="4.84157">
        <ele>349</ele>
        <time>2026-03-29T13:38:11.000Z</time>
      </trkpt>
      <trkpt lat="46.59045" lon="4.84169">
        <ele>348</ele>
        <time>2026-03-29T13:38:27.000Z</time>
      </trkpt>
      <trkpt lat="46.59048" lon="4.84182">
        <ele>346</ele>
        <time>2026-03-29T13:41:22.000Z</time>
      </trkpt>
      <trkpt lat="46.59043" lon="4.84193">
        <ele>346</ele>
        <time>2026-03-29T13:41:29.000Z</time>
      </trkpt>
      <trkpt lat="46.59039" lon="4.84206">
        <ele>345</ele>
        <time>2026-03-29T13:41:37.000Z</time>
      </trkpt>
      <trkpt lat="46.5904" lon="4.84219">
        <ele>342</ele>
        <time>2026-03-29T13:41:48.000Z</time>
      </trkpt>
      <trkpt lat="46.59038" lon="4.84232">
        <ele>341</ele>
        <time>2026-03-29T13:41:59.000Z</time>
      </trkpt>
      <trkpt lat="46.59031" lon="4.84242">
        <ele>340</ele>
        <time>2026-03-29T13:42:08.000Z</time>
      </trkpt>
      <trkpt lat="46.59024" lon="4.8425">
        <ele>339</ele>
        <time>2026-03-29T13:42:15.000Z</time>
      </trkpt>
      <trkpt lat="46.59017" lon="4.84259">
        <ele>339</ele>
        <time>2026-03-29T13:42:21.000Z</time>
      </trkpt>
      <trkpt lat="46.59011" lon="4.8427">
        <ele>337</ele>
        <time>2026-03-29T13:42:28.000Z</time>
      </trkpt>
      <trkpt lat="46.59007" lon="4.84283">
        <ele>335</ele>
        <time>2026-03-29T13:42:36.000Z</time>
      </trkpt>
      <trkpt lat="46.59003" lon="4.84296">
        <ele>334</ele>
        <time>2026-03-29T13:42:45.000Z</time>
      </trkpt>
      <trkpt lat="46.58999" lon="4.84308">
        <ele>333</ele>
        <time>2026-03-29T13:42:55.000Z</time>
      </trkpt>
      <trkpt lat="46.58996" lon="4.8432">
        <ele>332</ele>
        <time>2026-03-29T13:43:04.000Z</time>
      </trkpt>
      <trkpt lat="46.58991" lon="4.84331">
        <ele>332</ele>
        <time>2026-03-29T13:43:13.000Z</time>
      </trkpt>
      <trkpt lat="46.58986" lon="4.84343">
        <ele>331</ele>
        <time>2026-03-29T13:43:21.000Z</time>
      </trkpt>
      <trkpt lat="46.58982" lon="4.84356">
        <ele>330</ele>
        <time>2026-03-29T13:43:30.000Z</time>
      </trkpt>
      <trkpt lat="46.58979" lon="4.84369">
        <ele>329</ele>
        <time>2026-03-29T13:43:38.000Z</time>
      </trkpt>
      <trkpt lat="46.58975" lon="4.84381">
        <ele>329</ele>
        <time>2026-03-29T13:43:46.000Z</time>
      </trkpt>
      <trkpt lat="46.58969" lon="4.84391">
        <ele>328</ele>
        <time>2026-03-29T13:43:55.000Z</time>
      </trkpt>
      <trkpt lat="46.58961" lon="4.84397">
        <ele>328</ele>
        <time>2026-03-29T13:44:03.000Z</time>
      </trkpt>
      <trkpt lat="46.58952" lon="4.84402">
        <ele>328</ele>
        <time>2026-03-29T13:44:11.000Z</time>
      </trkpt>
      <trkpt lat="46.58943" lon="4.84406">
        <ele>326</ele>
        <time>2026-03-29T13:44:18.000Z</time>
      </trkpt>
      <trkpt lat="46.58933" lon="4.8441">
        <ele>326</ele>
        <time>2026-03-29T13:44:26.000Z</time>
      </trkpt>
      <trkpt lat="46.58924" lon="4.84415">
        <ele>325</ele>
        <time>2026-03-29T13:44:34.000Z</time>
      </trkpt>
      <trkpt lat="46.58916" lon="4.84422">
        <ele>324</ele>
        <time>2026-03-29T13:44:42.000Z</time>
      </trkpt>
      <trkpt lat="46.58906" lon="4.84426">
        <ele>323</ele>
        <time>2026-03-29T13:44:50.000Z</time>
      </trkpt>
      <trkpt lat="46.58897" lon="4.8443">
        <ele>322</ele>
        <time>2026-03-29T13:44:59.000Z</time>
      </trkpt>
      <trkpt lat="46.58892" lon="4.84441">
        <ele>321</ele>
        <time>2026-03-29T13:45:14.000Z</time>
      </trkpt>
      <trkpt lat="46.58885" lon="4.84451">
        <ele>320</ele>
        <time>2026-03-29T13:45:21.000Z</time>
      </trkpt>
      <trkpt lat="46.58877" lon="4.84458">
        <ele>319</ele>
        <time>2026-03-29T13:45:27.000Z</time>
      </trkpt>
      <trkpt lat="46.58868" lon="4.84465">
        <ele>318</ele>
        <time>2026-03-29T13:45:35.000Z</time>
      </trkpt>
      <trkpt lat="46.58858" lon="4.84469">
        <ele>317</ele>
        <time>2026-03-29T13:45:43.000Z</time>
      </trkpt>
      <trkpt lat="46.58847" lon="4.84469">
        <ele>316</ele>
        <time>2026-03-29T13:45:52.000Z</time>
      </trkpt>
      <trkpt lat="46.58838" lon="4.84472">
        <ele>315</ele>
        <time>2026-03-29T13:46:00.000Z</time>
      </trkpt>
      <trkpt lat="46.58829" lon="4.84473">
        <ele>315</ele>
        <time>2026-03-29T13:46:08.000Z</time>
      </trkpt>
      <trkpt lat="46.58819" lon="4.8447">
        <ele>315</ele>
        <time>2026-03-29T13:46:16.000Z</time>
      </trkpt>
      <trkpt lat="46.58809" lon="4.84466">
        <ele>314</ele>
        <time>2026-03-29T13:46:25.000Z</time>
      </trkpt>
      <trkpt lat="46.58799" lon="4.84465">
        <ele>313</ele>
        <time>2026-03-29T13:46:33.000Z</time>
      </trkpt>
      <trkpt lat="46.58789" lon="4.84468">
        <ele>313</ele>
        <time>2026-03-29T13:46:41.000Z</time>
      </trkpt>
      <trkpt lat="46.5878" lon="4.8447">
        <ele>312</ele>
        <time>2026-03-29T13:46:49.000Z</time>
      </trkpt>
      <trkpt lat="46.58772" lon="4.84473">
        <ele>311</ele>
        <time>2026-03-29T13:46:57.000Z</time>
      </trkpt>
      <trkpt lat="46.58763" lon="4.84479">
        <ele>311</ele>
        <time>2026-03-29T13:47:05.000Z</time>
      </trkpt>
      <trkpt lat="46.58753" lon="4.84486">
        <ele>310</ele>
        <time>2026-03-29T13:47:14.000Z</time>
      </trkpt>
      <trkpt lat="46.58743" lon="4.84491">
        <ele>310</ele>
        <time>2026-03-29T13:47:22.000Z</time>
      </trkpt>
      <trkpt lat="46.58733" lon="4.84498">
        <ele>309</ele>
        <time>2026-03-29T13:47:30.000Z</time>
      </trkpt>
      <trkpt lat="46.58724" lon="4.84501">
        <ele>308</ele>
        <time>2026-03-29T13:47:39.000Z</time>
      </trkpt>
      <trkpt lat="46.58714" lon="4.84503">
        <ele>308</ele>
        <time>2026-03-29T13:47:47.000Z</time>
      </trkpt>
      <trkpt lat="46.58704" lon="4.84507">
        <ele>308</ele>
        <time>2026-03-29T13:47:55.000Z</time>
      </trkpt>
      <trkpt lat="46.58696" lon="4.84514">
        <ele>308</ele>
        <time>2026-03-29T13:48:03.000Z</time>
      </trkpt>
      <trkpt lat="46.58686" lon="4.84519">
        <ele>308</ele>
        <time>2026-03-29T13:48:12.000Z</time>
      </trkpt>
      <trkpt lat="46.58677" lon="4.84525">
        <ele>309</ele>
        <time>2026-03-29T13:48:20.000Z</time>
      </trkpt>
      <trkpt lat="46.5867" lon="4.84531">
        <ele>309</ele>
        <time>2026-03-29T13:48:28.000Z</time>
      </trkpt>
      <trkpt lat="46.58661" lon="4.84534">
        <ele>309</ele>
        <time>2026-03-29T13:48:34.000Z</time>
      </trkpt>
      <trkpt lat="46.58652" lon="4.8454">
        <ele>308</ele>
        <time>2026-03-29T13:48:43.000Z</time>
      </trkpt>
      <trkpt lat="46.58645" lon="4.8455">
        <ele>307</ele>
        <time>2026-03-29T13:48:49.000Z</time>
      </trkpt>
      <trkpt lat="46.58637" lon="4.84559">
        <ele>307</ele>
        <time>2026-03-29T13:48:57.000Z</time>
      </trkpt>
      <trkpt lat="46.58629" lon="4.84565">
        <ele>307</ele>
        <time>2026-03-29T13:49:05.000Z</time>
      </trkpt>
      <trkpt lat="46.58619" lon="4.84569">
        <ele>306</ele>
        <time>2026-03-29T13:49:13.000Z</time>
      </trkpt>
      <trkpt lat="46.58609" lon="4.84571">
        <ele>306</ele>
        <time>2026-03-29T13:49:22.000Z</time>
      </trkpt>
      <trkpt lat="46.586" lon="4.84572">
        <ele>305</ele>
        <time>2026-03-29T13:49:30.000Z</time>
      </trkpt>
      <trkpt lat="46.5859" lon="4.84575">
        <ele>305</ele>
        <time>2026-03-29T13:49:38.000Z</time>
      </trkpt>
      <trkpt lat="46.5858" lon="4.84581">
        <ele>304</ele>
        <time>2026-03-29T13:49:47.000Z</time>
      </trkpt>
      <trkpt lat="46.58571" lon="4.84587">
        <ele>303</ele>
        <time>2026-03-29T13:49:55.000Z</time>
      </trkpt>
      <trkpt lat="46.58565" lon="4.84601">
        <ele>302</ele>
        <time>2026-03-29T13:50:04.000Z</time>
      </trkpt>
      <trkpt lat="46.5856" lon="4.84615">
        <ele>301</ele>
        <time>2026-03-29T13:50:12.000Z</time>
      </trkpt>
      <trkpt lat="46.58556" lon="4.84628">
        <ele>301</ele>
        <time>2026-03-29T13:50:20.000Z</time>
      </trkpt>
      <trkpt lat="46.58552" lon="4.84641">
        <ele>299</ele>
        <time>2026-03-29T13:50:29.000Z</time>
      </trkpt>
      <trkpt lat="46.58549" lon="4.84653">
        <ele>298</ele>
        <time>2026-03-29T13:50:38.000Z</time>
      </trkpt>
      <trkpt lat="46.58544" lon="4.84666">
        <ele>296</ele>
        <time>2026-03-29T13:50:46.000Z</time>
      </trkpt>
      <trkpt lat="46.5854" lon="4.84679">
        <ele>294</ele>
        <time>2026-03-29T13:50:55.000Z</time>
      </trkpt>
      <trkpt lat="46.58537" lon="4.84692">
        <ele>292</ele>
        <time>2026-03-29T13:51:03.000Z</time>
      </trkpt>
      <trkpt lat="46.58532" lon="4.84703">
        <ele>291</ele>
        <time>2026-03-29T13:51:14.000Z</time>
      </trkpt>
      <trkpt lat="46.58529" lon="4.84716">
        <ele>290</ele>
        <time>2026-03-29T13:51:22.000Z</time>
      </trkpt>
      <trkpt lat="46.58527" lon="4.84729">
        <ele>289</ele>
        <time>2026-03-29T13:51:31.000Z</time>
      </trkpt>
      <trkpt lat="46.58524" lon="4.84744">
        <ele>289</ele>
        <time>2026-03-29T13:51:48.000Z</time>
      </trkpt>
      <trkpt lat="46.58521" lon="4.84758">
        <ele>288</ele>
        <time>2026-03-29T13:51:57.000Z</time>
      </trkpt>
      <trkpt lat="46.58515" lon="4.84769">
        <ele>287</ele>
        <time>2026-03-29T13:52:05.000Z</time>
      </trkpt>
      <trkpt lat="46.58508" lon="4.84779">
        <ele>285</ele>
        <time>2026-03-29T13:52:13.000Z</time>
      </trkpt>
      <trkpt lat="46.58504" lon="4.8479">
        <ele>284</ele>
        <time>2026-03-29T13:52:21.000Z</time>
      </trkpt>
      <trkpt lat="46.58498" lon="4.84804">
        <ele>283</ele>
        <time>2026-03-29T13:52:29.000Z</time>
      </trkpt>
      <trkpt lat="46.58495" lon="4.84817">
        <ele>281</ele>
        <time>2026-03-29T13:52:37.000Z</time>
      </trkpt>
      <trkpt lat="46.58491" lon="4.84829">
        <ele>278</ele>
        <time>2026-03-29T13:52:46.000Z</time>
      </trkpt>
      <trkpt lat="46.58488" lon="4.84843">
        <ele>276</ele>
        <time>2026-03-29T13:52:54.000Z</time>
      </trkpt>
      <trkpt lat="46.58485" lon="4.84857">
        <ele>274</ele>
        <time>2026-03-29T13:53:04.000Z</time>
      </trkpt>
      <trkpt lat="46.58483" lon="4.84872">
        <ele>273</ele>
        <time>2026-03-29T13:53:14.000Z</time>
      </trkpt>
      <trkpt lat="46.58483" lon="4.84885">
        <ele>270</ele>
        <time>2026-03-29T13:53:22.000Z</time>
      </trkpt>
      <trkpt lat="46.58486" lon="4.84898">
        <ele>269</ele>
        <time>2026-03-29T13:53:32.000Z</time>
      </trkpt>
      <trkpt lat="46.58491" lon="4.84911">
        <ele>268</ele>
        <time>2026-03-29T13:53:40.000Z</time>
      </trkpt>
      <trkpt lat="46.58497" lon="4.84921">
        <ele>268</ele>
        <time>2026-03-29T13:53:53.000Z</time>
      </trkpt>
      <trkpt lat="46.58503" lon="4.84932">
        <ele>265</ele>
        <time>2026-03-29T13:54:00.000Z</time>
      </trkpt>
      <trkpt lat="46.58507" lon="4.84946">
        <ele>263</ele>
        <time>2026-03-29T13:54:08.000Z</time>
      </trkpt>
      <trkpt lat="46.58514" lon="4.84955">
        <ele>262</ele>
        <time>2026-03-29T13:54:16.000Z</time>
      </trkpt>
      <trkpt lat="46.58522" lon="4.84962">
        <ele>264</ele>
        <time>2026-03-29T13:54:24.000Z</time>
      </trkpt>
      <trkpt lat="46.58529" lon="4.84974">
        <ele>262</ele>
        <time>2026-03-29T13:54:40.000Z</time>
      </trkpt>
      <trkpt lat="46.58533" lon="4.84988">
        <ele>261</ele>
        <time>2026-03-29T13:54:48.000Z</time>
      </trkpt>
      <trkpt lat="46.58528" lon="4.84997">
        <ele>260</ele>
        <time>2026-03-29T13:54:54.000Z</time>
      </trkpt>
      <trkpt lat="46.58519" lon="4.85001">
        <ele>257</ele>
        <time>2026-03-29T13:54:56.000Z</time>
      </trkpt>
      <trkpt lat="46.58516" lon="4.85012">
        <ele>256</ele>
        <time>2026-03-29T13:55:03.000Z</time>
      </trkpt>
      <trkpt lat="46.58512" lon="4.85025">
        <ele>255</ele>
        <time>2026-03-29T13:55:09.000Z</time>
      </trkpt>
      <trkpt lat="46.58506" lon="4.85036">
        <ele>253</ele>
        <time>2026-03-29T13:55:17.000Z</time>
      </trkpt>
      <trkpt lat="46.585" lon="4.85046">
        <ele>252</ele>
        <time>2026-03-29T13:55:25.000Z</time>
      </trkpt>
      <trkpt lat="46.58495" lon="4.85059">
        <ele>250</ele>
        <time>2026-03-29T13:55:34.000Z</time>
      </trkpt>
      <trkpt lat="46.58489" lon="4.8507">
        <ele>248</ele>
        <time>2026-03-29T13:55:44.000Z</time>
      </trkpt>
      <trkpt lat="46.5848" lon="4.85074">
        <ele>246</ele>
        <time>2026-03-29T13:56:01.000Z</time>
      </trkpt>
      <trkpt lat="46.58474" lon="4.85063">
        <ele>245</ele>
        <time>2026-03-29T13:56:09.000Z</time>
      </trkpt>
      <trkpt lat="46.58469" lon="4.85053">
        <ele>247</ele>
        <time>2026-03-29T13:56:17.000Z</time>
      </trkpt>
      <trkpt lat="46.58462" lon="4.85044">
        <ele>247</ele>
        <time>2026-03-29T13:56:26.000Z</time>
      </trkpt>
      <trkpt lat="46.58452" lon="4.85043">
        <ele>244</ele>
        <time>2026-03-29T13:56:38.000Z</time>
      </trkpt>
      <trkpt lat="46.58444" lon="4.85039">
        <ele>244</ele>
        <time>2026-03-29T13:56:44.000Z</time>
      </trkpt>
      <trkpt lat="46.58435" lon="4.85038">
        <ele>242</ele>
        <time>2026-03-29T13:56:50.000Z</time>
      </trkpt>
      <trkpt lat="46.58426" lon="4.85035">
        <ele>240</ele>
        <time>2026-03-29T13:56:58.000Z</time>
      </trkpt>
      <trkpt lat="46.58416" lon="4.85031">
        <ele>239</ele>
        <time>2026-03-29T13:57:07.000Z</time>
      </trkpt>
      <trkpt lat="46.58407" lon="4.85022">
        <ele>240</ele>
        <time>2026-03-29T13:57:15.000Z</time>
      </trkpt>
      <trkpt lat="46.58399" lon="4.85015">
        <ele>242</ele>
        <time>2026-03-29T13:57:21.000Z</time>
      </trkpt>
      <trkpt lat="46.5839" lon="4.85013">
        <ele>241</ele>
        <time>2026-03-29T13:57:29.000Z</time>
      </trkpt>
      <trkpt lat="46.5838" lon="4.85012">
        <ele>240</ele>
        <time>2026-03-29T13:57:37.000Z</time>
      </trkpt>
      <trkpt lat="46.58371" lon="4.85007">
        <ele>238</ele>
        <time>2026-03-29T13:57:45.000Z</time>
      </trkpt>
      <trkpt lat="46.58362" lon="4.85003">
        <ele>237</ele>
        <time>2026-03-29T13:57:54.000Z</time>
      </trkpt>
      <trkpt lat="46.58353" lon="4.85005">
        <ele>235</ele>
        <time>2026-03-29T13:58:02.000Z</time>
      </trkpt>
      <trkpt lat="46.58347" lon="4.85014">
        <ele>234</ele>
        <time>2026-03-29T13:58:08.000Z</time>
      </trkpt>
      <trkpt lat="46.58344" lon="4.85027">
        <ele>233</ele>
        <time>2026-03-29T13:58:16.000Z</time>
      </trkpt>
      <trkpt lat="46.58343" lon="4.85042">
        <ele>233</ele>
        <time>2026-03-29T13:58:24.000Z</time>
      </trkpt>
      <trkpt lat="46.58344" lon="4.85056">
        <ele>233</ele>
        <time>2026-03-29T13:58:32.000Z</time>
      </trkpt>
      <trkpt lat="46.58343" lon="4.85067">
        <ele>233</ele>
        <time>2026-03-29T13:58:40.000Z</time>
      </trkpt>
      <trkpt lat="46.58335" lon="4.85071">
        <ele>233</ele>
        <time>2026-03-29T13:58:49.000Z</time>
      </trkpt>
      <trkpt lat="46.58327" lon="4.85066">
        <ele>233</ele>
        <time>2026-03-29T13:58:58.000Z</time>
      </trkpt>
      <trkpt lat="46.58318" lon="4.85069">
        <ele>233</ele>
        <time>2026-03-29T13:59:19.000Z</time>
      </trkpt>
      <trkpt lat="46.58311" lon="4.85059">
        <ele>233</ele>
        <time>2026-03-29T13:59:27.000Z</time>
      </trkpt>
      <trkpt lat="46.58304" lon="4.8505">
        <ele>233</ele>
        <time>2026-03-29T13:59:38.000Z</time>
      </trkpt>
      <trkpt lat="46.58295" lon="4.85047">
        <ele>233</ele>
        <time>2026-03-29T13:59:48.000Z</time>
      </trkpt>
    </trkseg>
  </trk>
</gpx>